Detalle de ayer:

20/9/21
Time         Wind Dir  Wind Gust   Humidity       Temp   Tot Rain Wind Chill Heat Index  Dew Point   Barom SL Temp Out H Temp Out L  DailyRain   HourRain   24HrRain   RainRate   Wind Run   Deg Heat   Deg Cool  MonthRain
                          km/hr          %         C         mm         C         C         C         mb         C         C         mm         mm         mm      mm/hr         km         C         C         mm
0:00              229        0.0         76       20.3      255.0       20.3       22.4       16.0     1015.5       20.3       20.3        0.0        0.0        0.0       0.00      179.0       0.04       3.69       29.0
0:02              228        0.0         76       20.3      255.0       20.3       22.4       16.0     1015.6       20.3       20.3        0.0        0.0        0.0       0.00        0.1       0.00       0.00       29.0
0:04              229        0.0         76       20.3      255.0       20.3       22.4       16.0     1015.5       20.3       20.3        0.0        0.0        0.0       0.00        0.3       0.00       0.00       29.0
0:06              229        0.0         76       20.3      255.0       20.3       22.4       16.0     1015.6       20.3       20.3        0.0        0.0        0.0       0.00        0.4       0.00       0.00       29.0
0:08              228        0.0         76       20.3      255.0       20.3       22.4       16.0     1015.6       20.3       20.3        0.0        0.0        0.0       0.00        0.5       0.00       0.00       29.0
0:10              229        0.0         76       20.3      255.0       20.3       22.3       15.9     1015.6       20.3       20.3        0.0        0.0        0.0       0.00        0.7       0.00       0.00       29.0
0:12              229        0.0         76       20.3      255.0       20.3       22.3       15.9     1015.6       20.3       20.3        0.0        0.0        0.0       0.00        0.8       0.00       0.00       29.0
0:14              229        0.0         76       20.3      255.0       20.3       22.3       15.9     1015.7       20.3       20.3        0.0        0.0        0.0       0.00        1.1       0.00       0.00       29.0
0:16              229        0.0         76       20.3      255.0       20.3       22.3       15.9     1015.6       20.3       20.3        0.0        0.0        0.0       0.00        1.2       0.00       0.00       29.0
0:18              229        0.0         76       20.3      255.0       20.3       22.3       15.9     1015.5       20.3       20.3        0.0        0.0        0.0       0.00        1.4       0.00       0.00       29.0
0:20              229        0.0         76       20.3      255.0       20.3       22.3       15.9     1015.6       20.3       20.3        0.0        0.0        0.0       0.00        1.6       0.00       0.00       29.0
0:22              229        0.0         76       20.3      255.0       20.3       22.3       15.9     1015.6       20.3       20.3        0.0        0.0        0.0       0.00        1.8       0.00       0.00       29.0
0:24              229        0.0         75       20.3      255.0       20.3       22.3       15.7     1015.7       20.3       20.3        0.0        0.0        0.0       0.00        2.0       0.00       0.00       29.0
0:26              228        0.0         75       20.3      255.0       20.3       22.3       15.7     1015.6       20.3       20.2        0.0        0.0        0.0       0.00        2.2       0.00       0.00       29.0
0:28              229        0.0         75       20.3      255.0       20.3       22.3       15.7     1015.6       20.3       20.2        0.0        0.0        0.0       0.00        2.4       0.00       0.00       29.0
0:30              229        0.0         75       20.3      255.0       20.3       22.3       15.7     1015.6       20.3       20.2        0.0        0.0        0.0       0.00        2.6       0.00       0.00       29.0
0:32              229        0.0         74       20.3      255.0       20.3       22.2       15.5     1015.6       20.3       20.2        0.0        0.0        0.0       0.00        2.8       0.00       0.00       29.0
0:34              229        0.0         74       20.3      255.0       20.3       22.2       15.5     1015.6       20.3       20.2        0.0        0.0        0.0       0.00        3.0       0.00       0.00       29.0
0:36              229        0.0         74       20.3      255.0       20.3       22.2       15.5     1015.7       20.3       20.2        0.0        0.0        0.0       0.00        3.2       0.00       0.00       29.0
0:38              229        0.0         74       20.3      255.0       20.3       22.2       15.5     1015.6       20.3       20.2        0.0        0.0        0.0       0.00        3.5       0.00       0.00       29.0
0:40              229        0.0         74       20.3      255.0       20.3       22.2       15.6     1015.6       20.3       20.2        0.0        0.0        0.0       0.00        3.7       0.00       0.00       29.0
0:42              229        0.0         74       20.3      255.0       20.3       22.2       15.6     1015.6       20.3       20.2        0.0        0.0        0.0       0.00        3.9       0.00       0.00       29.0
0:44              229        0.0         74       20.3      255.0       20.3       22.2       15.6     1015.6       20.3       20.2        0.0        0.0        0.0       0.00        4.2       0.00       0.00       29.0
0:46              229        0.0         74       20.3      255.0       20.3       22.2       15.6     1015.6       20.3       20.2        0.0        0.0        0.0       0.00        4.5       0.00       0.00       29.0
0:48              229        0.0         74       20.3      255.0       20.3       22.2       15.6     1015.5       20.4       20.2        0.0        0.0        0.0       0.00        4.7       0.00       0.00       29.0
0:50              229        0.0         73       20.3      255.0       20.3       22.2       15.3     1015.5       20.4       20.2        0.0        0.0        0.0       0.00        5.0       0.00       0.00       29.0
0:52              229        0.0         73       20.4      255.0       20.4       22.2       15.4     1015.5       20.4       20.2        0.0        0.0        0.0       0.00        5.3       0.00       0.00       29.0
0:54              229        0.0         73       20.4      255.0       20.4       22.2       15.4     1015.6       20.4       20.2        0.0        0.0        0.0       0.00        5.5       0.00       0.00       29.0
0:56              229        0.0         73       20.4      255.0       20.4       22.3       15.4     1015.6       20.4       20.2        0.0        0.0        0.0       0.00        5.8       0.00       0.00       29.0
0:58              229        0.0         73       20.4      255.0       20.4       22.3       15.4     1015.5       20.4       20.2        0.0        0.0        0.0       0.00        6.0       0.00       0.00       29.0
1:00              229        0.0         73       20.4      255.0       20.4       22.3       15.4     1015.6       20.5       20.2        0.0        0.0        0.0       0.00        6.3       0.00       0.00       29.0
1:02              229        0.0         73       20.5      255.0       20.5       22.3       15.5     1015.6       20.5       20.2        0.0        0.0        0.0       0.00        6.6       0.00       0.00       29.0
1:04              229        0.0         72       20.5      255.0       20.5       22.3       15.3     1015.5       20.6       20.2        0.0        0.0        0.0       0.00        6.9       0.00       0.00       29.0
1:06              229        0.0         72       20.6      255.0       20.6       22.4       15.4     1015.6       20.6       20.2        0.0        0.0        0.0       0.00        7.2       0.00       0.00       29.0
1:08              229        0.0         71       20.7      255.0       20.7       22.4       15.2     1015.6       20.7       20.2        0.0        0.0        0.0       0.00        7.5       0.00       0.00       29.0
1:10              229        0.0         71       20.7      255.0       20.7       22.4       15.3     1015.6       20.7       20.2        0.0        0.0        0.0       0.00        7.7       0.00       0.00       29.0
1:12              229        0.0         71       20.7      255.0       20.7       22.4       15.3     1015.5       20.7       20.2        0.0        0.0        0.0       0.00        8.0       0.00       0.00       29.0
1:14              229        0.0         71       20.8      255.0       20.8       22.5       15.3     1015.5       20.8       20.2        0.0        0.0        0.0       0.00        8.2       0.00       0.00       29.0
1:16              229        0.0         71       20.8      255.0       20.8       22.5       15.4     1015.4       20.8       20.2        0.0        0.0        0.0       0.00        8.4       0.00       0.00       29.0
1:18              229        0.0         71       20.8      255.0       20.8       22.5       15.4     1015.4       20.8       20.2        0.0        0.0        0.0       0.00        8.7       0.00       0.00       29.0
1:20              229        0.0         70       20.8      255.0       20.8       22.5       15.2     1015.4       20.8       20.2        0.0        0.0        0.0       0.00        8.9       0.00       0.00       29.0
1:22              229        0.0         70       20.8      255.0       20.8       22.5       15.2     1015.4       20.9       20.2        0.0        0.0        0.0       0.00        9.2       0.00       0.00       29.0
1:24              229        0.0         70       20.8      255.0       20.8       22.5       15.2     1015.3       20.9       20.2        0.0        0.0        0.0       0.00        9.5       0.00       0.00       29.0
1:26              229        0.0         70       20.9      255.0       20.9       22.5       15.2     1015.4       20.9       20.2        0.0        0.0        0.0       0.00        9.7       0.00       0.00       29.0
1:28              229        0.0         70       20.9      255.0       20.9       22.5       15.2     1015.3       20.9       20.2        0.0        0.0        0.0       0.00        9.9       0.00       0.00       29.0
1:29              229        0.0         70       20.9      255.0       20.9       22.5       15.2     1015.3       20.9       20.2        0.0        0.0        0.0       0.00       10.2       0.00       0.00       29.0
1:32              229        0.0         70       20.9      255.0       20.9       22.6       15.3     1015.3       20.9       20.2        0.0        0.0        0.0       0.00       10.4       0.00       0.00       29.0
1:34              229        0.0         70       20.9      255.0       20.9       22.6       15.3     1015.2       20.9       20.2        0.0        0.0        0.0       0.00       10.7       0.00       0.00       29.0
1:36              229        0.0         70       20.9      255.0       20.9       22.6       15.3     1015.3       20.9       20.2        0.0        0.0        0.0       0.00       10.9       0.00       0.00       29.0
1:38              229        0.0         69       21.0      255.0       21.0       22.6       15.1     1015.3       21.0       20.2        0.0        0.0        0.0       0.00       11.2       0.00       0.00       29.0
1:40              229        0.0         69       21.0      255.0       21.0       22.6       15.1     1015.3       21.0       20.2        0.0        0.0        0.0       0.00       11.4       0.00       0.00       29.0
1:42              229        0.0         69       21.0      255.0       21.0       22.6       15.1     1015.5       21.0       20.2        0.0        0.0        0.0       0.00       11.7       0.00       0.00       29.0
1:44              229        0.0         69       21.0      255.0       21.0       22.6       15.1     1015.4       21.0       20.2        0.0        0.0        0.0       0.00       12.0       0.00       0.00       29.0
1:46              229        0.0         69       21.0      255.0       21.0       22.6       15.1     1015.4       21.1       20.2        0.0        0.0        0.0       0.00       12.3       0.00       0.00       29.0
1:48              229        0.0         69       21.0      255.0       21.0       22.6       15.1     1015.4       21.1       20.2        0.0        0.0        0.0       0.00       12.5       0.00       0.00       29.0
1:50              229        0.0         69       21.0      255.0       21.0       22.6       15.1     1015.4       21.1       20.2        0.0        0.0        0.0       0.00       12.7       0.00       0.00       29.0
1:52              229        0.0         69       21.0      255.0       21.0       22.6       15.1     1015.4       21.1       20.2        0.0        0.0        0.0       0.00       12.9       0.00       0.00       29.0
1:54              229        0.0         69       21.1      255.0       21.1       22.6       15.2     1015.4       21.1       20.2        0.0        0.0        0.0       0.00       13.1       0.00       0.00       29.0
1:56              229        0.0         69       21.0      255.0       21.0       22.6       15.1     1015.5       21.1       20.2        0.0        0.0        0.0       0.00       13.3       0.00       0.00       29.0
1:58              229        0.0         69       21.1      255.0       21.1       22.6       15.2     1015.4       21.1       20.2        0.0        0.0        0.0       0.00       13.5       0.00       0.00       29.0
2:00              229        0.0         69       21.1      255.0       21.1       22.6       15.2     1015.5       21.1       20.2        0.0        0.0        0.0       0.00       13.8       0.00       0.00       29.0
2:02              229        0.0         69       21.1      255.0       21.1       22.6       15.2     1015.4       21.1       20.2        0.0        0.0        0.0       0.00       14.0       0.00       0.00       29.0
2:04              229        0.0         69       21.1      255.0       21.1       22.7       15.2     1015.4       21.1       20.2        0.0        0.0        0.0       0.00       14.3       0.00       0.00       29.0
2:06              229        0.0         69       21.1      255.0       21.1       22.7       15.2     1015.4       21.1       20.2        0.0        0.0        0.0       0.00       14.5       0.00       0.00       29.0
2:08              229        0.0         69       21.2      255.0       21.2       22.7       15.3     1015.4       21.2       20.2        0.0        0.0        0.0       0.00       14.7       0.00       0.00       29.0
2:10              229        0.0         69       21.2      255.0       21.2       22.7       15.3     1015.4       21.2       20.2        0.0        0.0        0.0       0.00       15.0       0.00       0.00       29.0
2:12              229        0.0         69       21.2      255.0       21.2       22.7       15.3     1015.4       21.2       20.2        0.0        0.0        0.0       0.00       15.2       0.00       0.00       29.0
2:14              229        0.0         69       21.2      255.0       21.2       22.8       15.3     1015.4       21.2       20.2        0.0        0.0        0.0       0.00       15.4       0.00       0.00       29.0
2:16              229        0.0         69       21.2      255.0       21.2       22.8       15.3     1015.3       21.2       20.2        0.0        0.0        0.0       0.00       15.6       0.00       0.00       29.0
2:18              229        0.0         69       21.2      255.0       21.2       22.7       15.3     1015.3       21.2       20.2        0.0        0.0        0.0       0.00       15.9       0.00       0.00       29.0
2:20              229        0.0         69       21.2      255.0       21.2       22.7       15.3     1015.5       21.2       20.2        0.0        0.0        0.0       0.00       16.1       0.00       0.00       29.0
2:22              229        0.0         69       21.1      255.0       21.1       22.7       15.2     1015.5       21.2       20.2        0.0        0.0        0.0       0.00       16.3       0.00       0.00       29.0
2:24              229        0.0         70       21.1      255.0       21.1       22.8       15.4     1015.5       21.2       20.2        0.0        0.0        0.0       0.00       16.5       0.00       0.00       29.0
2:26              229        0.0         70       21.1      255.0       21.1       22.8       15.4     1015.5       21.2       20.2        0.0        0.0        0.0       0.00       16.8       0.00       0.00       29.0
2:28              229        0.0         70       21.1      255.0       21.1       22.8       15.4     1015.5       21.2       20.2        0.0        0.0        0.0       0.00       17.0       0.00       0.00       29.0
2:30              229        0.0         70       21.1      255.0       21.1       22.7       15.4     1015.5       21.2       20.2        0.0        0.0        0.0       0.00       17.2       0.00       0.00       29.0
2:32              229        0.0         70       21.1      255.0       21.1       22.7       15.4     1015.5       21.2       20.2        0.0        0.0        0.0       0.00       17.4       0.00       0.00       29.0
2:34              229        0.0         71       21.1      255.0       21.1       22.8       15.6     1015.5       21.2       20.2        0.0        0.0        0.0       0.00       17.7       0.00       0.00       29.0
2:35              229        0.0         71       21.0      255.0       21.0       22.7       15.5     1015.5       21.2       20.2        0.0        0.0        0.0       0.00       17.9       0.00       0.00       29.0
2:38              229        0.0         71       21.0      255.0       21.0       22.7       15.5     1015.4       21.2       20.2        0.0        0.0        0.0       0.00       18.2       0.00       0.00       29.0
2:40              229        0.0         71       21.0      255.0       21.0       22.7       15.5     1015.3       21.2       20.2        0.0        0.0        0.0       0.00       18.5       0.00       0.00       29.0
2:42              229        0.0         72       21.0      255.0       21.0       22.8       15.8     1015.5       21.2       20.2        0.0        0.0        0.0       0.00       18.7       0.00       0.00       29.0
2:44              229        0.0         72       20.9      255.0       20.9       22.7       15.7     1015.5       21.2       20.2        0.0        0.0        0.0       0.00       19.0       0.00       0.00       29.0
2:46              229        0.0         72       20.9      255.0       20.9       22.7       15.7     1015.4       21.2       20.2        0.0        0.0        0.0       0.00       19.3       0.00       0.00       29.0
2:48              229        0.0         72       20.9      255.0       20.9       22.7       15.7     1015.4       21.2       20.2        0.0        0.0        0.0       0.00       19.6       0.00       0.00       29.0
2:50              229        0.0         72       20.9      255.0       20.9       22.7       15.7     1015.4       21.2       20.2        0.0        0.0        0.0       0.00       19.8       0.00       0.00       29.0
2:52              229        0.0         72       20.9      255.0       20.9       22.7       15.7     1015.5       21.2       20.2        0.0        0.0        0.0       0.00       20.1       0.00       0.00       29.0
2:54              229        0.0         72       20.9      255.0       20.9       22.7       15.7     1015.4       21.2       20.2        0.0        0.0        0.0       0.00       20.4       0.00       0.00       29.0
2:56              229        0.0         73       20.8      255.0       20.8       22.7       15.8     1015.4       21.2       20.2        0.0        0.0        0.0       0.00       20.6       0.00       0.00       29.0
2:58              229        0.0         73       20.8      255.0       20.8       22.7       15.8     1015.5       21.2       20.2        0.0        0.0        0.0       0.00       20.8       0.00       0.00       29.0
3:00              229        0.0         73       20.8      255.0       20.8       22.6       15.8     1015.5       21.2       20.2        0.0        0.0        0.0       0.00       21.1       0.00       0.00       29.0
3:02              229        0.0         73       20.8      255.0       20.8       22.6       15.8     1015.5       21.2       20.2        0.0        0.0        0.0       0.00       21.3       0.00       0.00       29.0
3:04              229        0.0         73       20.8      255.0       20.8       22.6       15.8     1015.4       21.2       20.2        0.0        0.0        0.0       0.00       21.5       0.00       0.00       29.0
3:06              229        0.0         74       20.8      255.0       20.8       22.7       16.0     1015.5       21.2       20.2        0.0        0.0        0.0       0.00       21.7       0.00       0.00       29.0
3:08              229        0.0         74       20.8      255.0       20.8       22.7       16.0     1015.5       21.2       20.2        0.0        0.0        0.0       0.00       21.9       0.00       0.00       29.0
3:10              229        0.0         74       20.7      255.0       20.7       22.6       15.9     1015.3       21.2       20.2        0.0        0.0        0.0       0.00       22.1       0.00       0.00       29.0
3:12              229        0.0         74       20.7      255.0       20.7       22.6       15.9     1015.4       21.2       20.2        0.0        0.0        0.0       0.00       22.4       0.00       0.00       29.0
3:14              229        0.0         74       20.7      255.0       20.7       22.6       15.9     1015.4       21.2       20.2        0.0        0.0        0.0       0.00       22.6       0.00       0.00       29.0
3:16              229        0.0         75       20.7      255.0       20.7       22.7       16.1     1015.3       21.2       20.2        0.0        0.0        0.0       0.00       22.8       0.00       0.00       29.0
3:18              229        0.0         75       20.7      255.0       20.7       22.7       16.1     1015.3       21.2       20.2        0.0        0.0        0.0       0.00       23.0       0.00       0.00       29.0
3:20              229        0.0         75       20.7      255.0       20.7       22.7       16.1     1015.3       21.2       20.2        0.0        0.0        0.0       0.00       23.2       0.00       0.00       29.0
3:22              229        0.0         75       20.7      255.0       20.7       22.7       16.1     1015.3       21.2       20.2        0.0        0.0        0.0       0.00       23.5       0.00       0.00       29.0
3:24              229        0.0         75       20.7      255.0       20.7       22.7       16.1     1015.2       21.2       20.2        0.0        0.0        0.0       0.00       23.8       0.00       0.00       29.0
3:26              229        0.0         75       20.7      255.0       20.7       22.7       16.1     1015.3       21.2       20.2        0.0        0.0        0.0       0.00       24.0       0.00       0.00       29.0
3:28              229        0.0         76       20.7      255.0       20.7       22.7       16.3     1015.3       21.2       20.2        0.0        0.0        0.0       0.00       24.2       0.00       0.00       29.0
3:30              229        0.0         76       20.7      255.0       20.7       22.7       16.3     1015.2       21.2       20.2        0.0        0.0        0.0       0.00       24.5       0.00       0.00       29.0
3:32              229        0.0         76       20.7      255.0       20.7       22.7       16.3     1015.3       21.2       20.2        0.0        0.0        0.0       0.00       24.7       0.00       0.00       29.0
3:34              229        0.0         76       20.7      255.0       20.7       22.7       16.3     1015.3       21.2       20.2        0.0        0.0        0.0       0.00       24.9       0.00       0.00       29.0
3:36              229        0.0         76       20.7      255.0       20.7       22.7       16.3     1015.2       21.2       20.2        0.0        0.0        0.0       0.00       25.2       0.00       0.00       29.0
3:38              229        0.0         76       20.7      255.0       20.7       22.7       16.3     1015.3       21.2       20.2        0.0        0.0        0.0       0.00       25.4       0.00       0.00       29.0
3:40              229        0.0         77       20.7      255.0       20.7       22.8       16.5     1015.3       21.2       20.2        0.0        0.0        0.0       0.00       25.6       0.00       0.00       29.0
3:42              229        0.0         77       20.7      255.0       20.7       22.8       16.5     1015.2       21.2       20.2        0.0        0.0        0.0       0.00       25.8       0.00       0.00       29.0
3:44              229        0.0         77       20.7      255.0       20.7       22.9       16.5     1015.3       21.2       20.2        0.0        0.0        0.0       0.00       26.0       0.00       0.00       29.0
3:46              229        0.0         77       20.7      255.0       20.7       22.9       16.5     1015.2       21.2       20.2        0.0        0.0        0.0       0.00       26.3       0.00       0.00       29.0
3:48              229        0.0         77       20.7      255.0       20.7       22.9       16.5     1015.2       21.2       20.2        0.0        0.0        0.0       0.00       26.4       0.00       0.00       29.0
3:50              229        0.0         78       20.7      255.0       20.7       22.9       16.8     1015.2       21.2       20.2        0.0        0.0        0.0       0.00       26.5       0.00       0.00       29.0
3:52              229        0.0         78       20.7      255.0       20.7       22.9       16.7     1015.2       21.2       20.2        0.0        0.0        0.0       0.00       26.6       0.00       0.00       29.0
3:54              229        0.0         77       20.7      255.0       20.7       22.8       16.5     1015.2       21.2       20.2        0.0        0.0        0.0       0.00       26.7       0.00       0.00       29.0
3:55              229        0.0         78       20.7      255.0       20.7       22.9       16.7     1015.3       21.2       20.2        0.0        0.0        0.0       0.00       26.7       0.00       0.00       29.0
3:58              229        0.0         78       20.7      255.0       20.7       22.9       16.7     1015.2       21.2       20.2        0.0        0.0        0.0       0.00       26.7       0.00       0.00       29.0
4:00              229        0.0         78       20.7      255.0       20.7       22.9       16.7     1015.2       21.2       20.2        0.0        0.0        0.0       0.00       26.7       0.00       0.00       29.0
4:02              229        0.0         78       20.7      255.0       20.7       22.9       16.7     1015.2       21.2       20.2        0.0        0.0        0.0       0.00       26.8       0.00       0.00       29.0
4:04              229        0.0         78       20.6      255.0       20.6       22.8       16.6     1015.3       21.2       20.2        0.0        0.0        0.0       0.00       26.9       0.00       0.00       29.0
4:06              229        0.0         78       20.6      255.0       20.6       22.8       16.6     1015.2       21.2       20.2        0.0        0.0        0.0       0.00       27.0       0.00       0.00       29.0
4:08              229        0.0         78       20.6      255.0       20.6       22.8       16.6     1015.3       21.2       20.2        0.0        0.0        0.0       0.00       27.1       0.00       0.00       29.0
4:10              229        0.0         79       20.6      255.0       20.6       22.8       16.8     1015.2       21.2       20.2        0.0        0.0        0.0       0.00       27.2       0.00       0.00       29.0
4:11              229        0.0         79       20.5      255.0       20.5       22.8       16.7     1015.3       21.2       20.2        0.0        0.0        0.0       0.00       27.3       0.00       0.00       29.0
4:14              229        0.0         79       20.6      255.0       20.6       22.8       16.8     1015.3       21.2       20.2        0.0        0.0        0.0       0.00       27.3       0.00       0.00       29.0
4:16              229        0.0         79       20.5      255.0       20.5       22.8       16.7     1015.2       21.2       20.2        0.0        0.0        0.0       0.00       27.3       0.00       0.00       29.0
4:18              229        0.0         79       20.5      255.0       20.5       22.8       16.7     1015.2       21.2       20.2        0.0        0.0        0.0       0.00       27.3       0.00       0.00       29.0
4:20              229        0.0         79       20.5      255.0       20.5       22.8       16.7     1015.2       21.2       20.2        0.0        0.0        0.0       0.00       27.3       0.00       0.00       29.0
4:22              229        0.0         79       20.5      255.0       20.5       22.8       16.7     1015.2       21.2       20.2        0.0        0.0        0.0       0.00       27.4       0.00       0.00       29.0
4:24              229        0.0         79       20.5      255.0       20.5       22.8       16.7     1015.2       21.2       20.2        0.0        0.0        0.0       0.00       27.4       0.00       0.00       29.0
4:26              229        0.0         79       20.4      255.0       20.4       22.7       16.7     1015.2       21.2       20.2        0.0        0.0        0.0       0.00       27.4       0.00       0.00       29.0
4:28              229        0.0         79       20.4      255.0       20.4       22.7       16.7     1015.3       21.2       20.2        0.0        0.0        0.0       0.00       27.4       0.00       0.00       29.0
4:30              229        0.0         79       20.4      255.0       20.4       22.7       16.7     1015.3       21.2       20.2        0.0        0.0        0.0       0.00       27.4       0.00       0.00       29.0
4:32              229        0.0         79       20.4      255.0       20.4       22.7       16.7     1015.3       21.2       20.2        0.0        0.0        0.0       0.00       27.4       0.00       0.00       29.0
4:34              229        0.0         79       20.4      255.0       20.4       22.7       16.6     1015.2       21.2       20.2        0.0        0.0        0.0       0.00       27.4       0.00       0.00       29.0
4:36              229        0.0         79       20.4      255.0       20.4       22.7       16.6     1015.3       21.2       20.2        0.0        0.0        0.0       0.00       27.4       0.00       0.00       29.0
4:38              229        0.0         79       20.3      255.0       20.3       22.6       16.6     1015.3       21.2       20.2        0.0        0.0        0.0       0.00       27.4       0.00       0.00       29.0
4:40              229        0.0         79       20.3      255.0       20.3       22.6       16.6     1015.3       21.2       20.2        0.0        0.0        0.0       0.00       27.5       0.00       0.00       29.0
4:42              229        0.0         79       20.3      255.0       20.3       22.6       16.6     1015.3       21.2       20.2        0.0        0.0        0.0       0.00       27.5       0.00       0.00       29.0
4:44              229        0.0         79       20.3      255.0       20.3       22.6       16.5     1015.3       21.2       20.2        0.0        0.0        0.0       0.00       27.5       0.00       0.00       29.0
4:46              229        0.0         79       20.3      255.0       20.3       22.6       16.5     1015.3       21.2       20.2        0.0        0.0        0.0       0.00       27.5       0.00       0.00       29.0
4:48              229        0.0         79       20.2      255.0       20.2       22.5       16.5     1015.4       21.2       20.2        0.0        0.0        0.0       0.00       27.5       0.00       0.00       29.0
4:50              229        0.0         79       20.2      255.0       20.2       22.4       16.4     1015.3       21.2       20.2        0.0        0.0        0.0       0.00       27.5       0.00       0.00       29.0
4:52              229        0.0         78       20.1      255.0       20.1       22.3       16.2     1015.3       21.2       20.1        0.0        0.0        0.0       0.00       27.6       0.00       0.00       29.0
4:54              229        0.0         78       20.1      255.0       20.1       22.3       16.1     1015.3       21.2       20.1        0.0        0.0        0.0       0.00       27.6       0.00       0.00       29.0
4:56              229        0.0         78       20.0      255.0       20.0       22.2       16.1     1015.5       21.2       20.0        0.0        0.0        0.0       0.00       27.6       0.00       0.00       29.0
4:58              229        0.0         79       20.0      255.0       20.0       22.3       16.3     1015.4       21.2       19.9        0.0        0.0        0.0       0.00       27.7       0.00       0.00       29.0
5:00              229        0.0         79       19.9      255.0       19.9       22.2       16.2     1015.5       21.2       19.9        0.0        0.0        0.0       0.00       27.9       0.00       0.00       29.0
5:02              229        0.0         79       19.9      255.0       19.9       22.2       16.1     1015.5       21.2       19.9        0.0        0.0        0.0       0.00       27.9       0.00       0.00       29.0
5:04              229        0.0         79       19.8      255.0       19.8       22.1       16.1     1015.5       21.2       19.8        0.0        0.0        0.0       0.00       27.9       0.00       0.00       29.0
5:06              229        0.0         78       19.8      255.0       19.8       22.0       15.8     1015.5       21.2       19.8        0.0        0.0        0.0       0.00       28.0       0.00       0.00       29.0
5:08              229        0.0         78       19.7      255.0       19.7       21.9       15.8     1015.5       21.2       19.7        0.0        0.0        0.0       0.00       28.0       0.00       0.00       29.0
5:10              229        0.0         78       19.7      255.0       19.7       21.9       15.8     1015.6       21.2       19.7        0.0        0.0        0.0       0.00       28.1       0.00       0.00       29.0
5:12              229        0.0         78       19.7      255.0       19.7       21.9       15.7     1015.6       21.2       19.7        0.0        0.0        0.0       0.00       28.1       0.00       0.00       29.0
5:14              229        0.0         78       19.6      255.0       19.6       21.8       15.7     1015.5       21.2       19.6        0.0        0.0        0.0       0.00       28.1       0.00       0.00       29.0
5:16              229        0.0         77       19.6      255.0       19.6       21.7       15.5     1015.5       21.2       19.6        0.0        0.0        0.0       0.00       28.2       0.00       0.00       29.0
5:18              229        0.0         77       19.6      255.0       19.6       21.7       15.4     1015.6       21.2       19.6        0.0        0.0        0.0       0.00       28.3       0.00       0.00       29.0
5:20              229        0.0         77       19.5      255.0       19.5       21.6       15.4     1015.6       21.2       19.5        0.0        0.0        0.0       0.00       28.3       0.00       0.00       29.0
5:22              229        0.0         77       19.5      255.0       19.5       21.6       15.4     1015.6       21.2       19.5        0.0        0.0        0.0       0.00       28.3       0.00       0.00       29.0
5:24              229        0.0         76       19.4      255.0       19.4       21.5       15.1     1015.6       21.2       19.4        0.0        0.0        0.0       0.00       28.3       0.00       0.00       29.0
5:26              229        0.0         76       19.4      255.0       19.4       21.5       15.1     1015.7       21.2       19.4        0.0        0.0        0.0       0.00       28.3       0.00       0.00       29.0
5:28              229        0.0         76       19.4      255.0       19.4       21.4       15.1     1015.6       21.2       19.4        0.0        0.0        0.0       0.00       28.3       0.00       0.00       29.0
5:30              229        0.0         77       19.4      255.0       19.4       21.5       15.3     1015.6       21.2       19.4        0.0        0.0        0.0       0.00       28.3       0.00       0.00       29.0
5:32              229        0.0         77       19.3      255.0       19.3       21.5       15.2     1015.6       21.2       19.3        0.0        0.0        0.0       0.00       28.3       0.00       0.00       29.0
5:34              229        0.0         77       19.3      255.0       19.3       21.5       15.2     1015.7       21.2       19.3        0.0        0.0        0.0       0.00       28.3       0.00       0.00       29.0
5:36              229        0.0         77       19.3      255.0       19.3       21.4       15.1     1015.8       21.2       19.3        0.0        0.0        0.0       0.00       28.3       0.00       0.00       29.0
5:38              229        0.0         77       19.3      255.0       19.3       21.4       15.1     1015.8       21.2       19.3        0.0        0.0        0.0       0.00       28.3       0.00       0.00       29.0
5:40              229        0.0         77       19.3      255.0       19.3       21.4       15.1     1015.8       21.2       19.2        0.0        0.0        0.0       0.00       28.3       0.00       0.00       29.0
5:42              229        0.0         78       19.3      255.0       19.3       21.5       15.4     1015.6       21.2       19.2        0.0        0.0        0.0       0.00       28.4       0.00       0.00       29.0
5:44              229        0.0         79       19.3      255.0       19.3       21.6       15.5     1015.7       21.2       19.2        0.0        0.0        0.0       0.00       28.4       0.00       0.00       29.0
5:46              229        0.0         79       19.3      255.0       19.3       21.6       15.5     1015.8       21.2       19.2        0.0        0.0        0.0       0.00       28.4       0.00       0.00       29.0
5:48              229        0.0         79       19.2      255.0       19.2       21.5       15.5     1015.8       21.2       19.2        0.0        0.0        0.0       0.00       28.4       0.00       0.00       29.0
5:50              229        0.0         80       19.2      255.0       19.2       21.6       15.7     1015.9       21.2       19.2        0.0        0.0        0.0       0.00       28.4       0.00       0.00       29.0
5:52              229        0.0         80       19.2      255.0       19.2       21.6       15.7     1015.9       21.2       19.2        0.0        0.0        0.0       0.00       28.4       0.00       0.00       29.0
5:54              229        0.0         80       19.2      255.0       19.2       21.5       15.6     1015.9       21.2       19.2        0.0        0.0        0.0       0.00       28.4       0.00       0.00       29.0
5:56              229        0.0         80       19.2      255.0       19.2       21.5       15.6     1015.9       21.2       19.2        0.0        0.0        0.0       0.00       28.4       0.00       0.00       29.0
5:58              229        0.0         80       19.2      255.0       19.2       21.5       15.6     1015.8       21.2       19.2        0.0        0.0        0.0       0.00       28.4       0.00       0.00       29.0
6:00              229        0.0         81       19.2      255.0       19.2       21.6       15.8     1015.9       21.2       19.1        0.0        0.0        0.0       0.00       28.4       0.00       0.00       29.0
6:02              229        0.0         81       19.2      255.0       19.2       21.6       15.8     1015.9       21.2       19.1        0.0        0.0        0.0       0.00       28.4       0.00       0.00       29.0
6:04              229        0.0         81       19.1      255.0       19.1       21.5       15.8     1015.9       21.2       19.1        0.0        0.0        0.0       0.00       28.4       0.00       0.00       29.0
6:06              229        0.0         81       19.2      255.0       19.2       21.6       15.8     1015.9       21.2       19.1        0.0        0.0        0.0       0.00       28.4       0.00       0.00       29.0
6:08              229        0.0         81       19.1      255.0       19.1       21.5       15.8     1015.9       21.2       19.1        0.0        0.0        0.0       0.00       28.4       0.00       0.00       29.0
6:10              229        0.0         81       19.1      255.0       19.1       21.5       15.8     1015.9       21.2       19.1        0.0        0.0        0.0       0.00       28.4       0.00       0.00       29.0
6:12              229        0.0         81       19.1      255.0       19.1       21.5       15.8     1015.9       21.2       19.1        0.0        0.0        0.0       0.00       28.4       0.00       0.00       29.0
6:14              229        0.0         81       19.1      255.0       19.1       21.5       15.8     1015.9       21.2       19.1        0.0        0.0        0.0       0.00       28.4       0.00       0.00       29.0
6:16              229        0.0         81       19.1      255.0       19.1       21.5       15.8     1015.9       21.2       19.1        0.0        0.0        0.0       0.00       28.4       0.00       0.00       29.0
6:18              229        0.0         81       19.1      255.0       19.1       21.5       15.8     1015.9       21.2       19.1        0.0        0.0        0.0       0.00       28.4       0.00       0.00       29.0
6:20              229        0.0         80       19.1      255.0       19.1       21.4       15.5     1015.9       21.2       19.1        0.0        0.0        0.0       0.00       28.4       0.00       0.00       29.0
6:22              229        0.0         78       19.0      255.0       19.0       21.2       15.1     1016.0       21.2       19.0        0.0        0.0        0.0       0.00       28.4       0.00       0.00       29.0
6:24              229        0.0         77       18.9      255.0       18.9       21.1       14.8     1016.0       21.2       18.9        0.0        0.0        0.0       0.00       28.4       0.00       0.00       29.0
6:26              229        0.0         77       18.9      255.0       18.9       21.1       14.8     1016.0       21.2       18.9        0.0        0.0        0.0       0.00       28.4       0.00       0.00       29.0
6:28              229        0.0         77       19.0      255.0       19.0       21.1       14.9     1016.0       21.2       18.9        0.0        0.0        0.0       0.00       28.4       0.00       0.00       29.0
6:30              229        0.0         78       19.0      255.0       19.0       21.2       15.1     1015.9       21.2       18.9        0.0        0.0        0.0       0.00       28.4       0.00       0.00       29.0
6:32              229        0.0         78       19.1      255.0       19.1       21.3       15.2     1016.1       21.2       18.9        0.0        0.0        0.0       0.00       28.4       0.00       0.00       29.0
6:34              229        0.0         78       19.1      255.0       19.1       21.3       15.2     1016.1       21.2       18.9        0.0        0.0        0.0       0.00       28.4       0.00       0.00       29.0
6:36              229        0.0         78       19.1      255.0       19.1       21.3       15.2     1016.1       21.2       18.9        0.0        0.0        0.0       0.00       28.4       0.00       0.00       29.0
6:38              229        0.0         78       19.2      255.0       19.2       21.4       15.2     1016.1       21.2       18.9        0.0        0.0        0.0       0.00       28.4       0.00       0.00       29.0
6:40              229        0.0         78       19.2      255.0       19.2       21.4       15.3     1016.2       21.2       18.9        0.0        0.0        0.0       0.00       28.4       0.00       0.00       29.0
6:42              229        0.0         78       19.2      255.0       19.2       21.4       15.3     1016.2       21.2       18.9        0.0        0.0        0.0       0.00       28.4       0.00       0.00       29.0
6:44              229        0.0         78       19.3      255.0       19.3       21.5       15.4     1016.2       21.2       18.9        0.0        0.0        0.0       0.00       28.5       0.00       0.00       29.0
6:46              229        0.0         78       19.3      255.0       19.3       21.5       15.4     1016.3       21.2       18.9        0.0        0.0        0.0       0.00       28.5       0.00       0.00       29.0
6:48              229        0.0         77       19.3      255.0       19.3       21.4       15.1     1016.3       21.2       18.9        0.0        0.0        0.0       0.00       28.5       0.00       0.00       29.0
6:50              229        0.0         75       19.2      255.0       19.2       21.2       14.7     1016.3       21.2       18.9        0.0        0.0        0.0       0.00       28.6       0.00       0.00       29.0
6:52              229        0.0         74       19.2      255.0       19.2       21.1       14.5     1016.3       21.2       18.9        0.0        0.0        0.0       0.00       28.6       0.00       0.00       29.0
6:54              229        0.0         72       19.2      255.0       19.2       21.0       14.1     1016.3       21.2       18.9        0.0        0.0        0.0       0.00       28.7       0.00       0.00       29.0
6:56              229        0.0         71       19.3      255.0       19.3       21.0       13.9     1016.4       21.2       18.9        0.0        0.0        0.0       0.00       28.7       0.00       0.00       29.0
6:58              229        0.0         71       19.3      255.0       19.3       21.0       13.9     1016.4       21.2       18.9        0.0        0.0        0.0       0.00       28.7       0.00       0.00       29.0
7:00              229        0.0         69       19.3      255.0       19.3       20.9       13.5     1016.4       21.2       18.9        0.0        0.0        0.0       0.00       28.7       0.00       0.00       29.0
7:02              229        0.0         70       19.3      255.0       19.3       21.0       13.7     1016.5       21.2       18.9        0.0        0.0        0.0       0.00       28.7       0.00       0.00       29.0
7:04              229        0.0         69       19.4      255.0       19.4       21.0       13.6     1016.6       21.2       18.9        0.0        0.0        0.0       0.00       28.7       0.00       0.00       29.0
7:06              229        0.0         67       19.4      255.0       19.4       20.9       13.2     1016.6       21.2       18.9        0.0        0.0        0.0       0.00       28.8       0.00       0.00       29.0
7:08              229        0.0         66       19.5      255.0       19.5       20.9       13.0     1016.6       21.2       18.9        0.0        0.0        0.0       0.00       28.8       0.00       0.00       29.0
7:10              229        0.0         66       19.7      255.0       19.7       21.0       13.1     1016.7       21.2       18.9        0.0        0.0        0.0       0.00       28.8       0.00       0.00       29.0
7:12              229        0.0         66       19.8      255.0       19.8       21.2       13.3     1016.8       21.2       18.9        0.0        0.0        0.0       0.00       28.8       0.00       0.00       29.0
7:14              229        0.0         67       19.9      255.0       19.9       21.4       13.6     1016.7       21.2       18.9        0.0        0.0        0.0       0.00       28.8       0.00       0.00       29.0
7:16              229        0.0         66       20.1      255.0       20.1       21.4       13.5     1016.7       21.2       18.9        0.0        0.0        0.0       0.00       28.8       0.00       0.00       29.0
7:18              229        0.0         65       20.3      255.0       20.3       21.6       13.5     1016.7       21.2       18.9        0.0        0.0        0.0       0.00       28.8       0.00       0.00       29.0
7:20              229        0.0         64       20.5      255.0       20.5       21.8       13.5     1016.8       21.2       18.9        0.0        0.0        0.0       0.00       28.9       0.00       0.00       29.0
7:22              229        0.0         63       20.7      255.0       20.7       21.9       13.4     1016.8       21.2       18.9        0.0        0.0        0.0       0.00       29.1       0.00       0.00       29.0
7:24              229        0.0         61       20.8      255.0       20.8       21.9       13.0     1016.8       21.2       18.9        0.0        0.0        0.0       0.00       29.4       0.00       0.00       29.0
7:26              229        0.0         60       20.9      255.0       20.9       21.9       12.8     1016.8       21.2       18.9        0.0        0.0        0.0       0.00       29.5       0.00       0.00       29.0
7:28              229        0.0         59       20.9      255.0       20.9       21.8       12.6     1016.8       21.2       18.9        0.0        0.0        0.0       0.00       29.7       0.00       0.00       29.0
7:30              229        0.0         59       20.9      255.0       20.9       21.9       12.6     1016.8       21.2       18.9        0.0        0.0        0.0       0.00       29.9       0.00       0.00       29.0
7:32              229        0.0         58       21.0      255.0       21.0       21.9       12.4     1016.8       21.2       18.9        0.0        0.0        0.0       0.00       30.1       0.00       0.00       29.0
7:34              229        0.0         58       21.0      255.0       21.0       21.9       12.4     1016.7       21.2       18.9        0.0        0.0        0.0       0.00       30.2       0.00       0.00       29.0
7:36              229        0.0         58       21.1      255.0       21.1       21.9       12.5     1016.8       21.2       18.9        0.0        0.0        0.0       0.00       30.5       0.00       0.00       29.0
7:38              229        0.0         58       21.1      255.0       21.1       22.0       12.5     1016.8       21.2       18.9        0.0        0.0        0.0       0.00       30.6       0.00       0.00       29.0
7:40              229        0.0         58       21.2      255.0       21.2       22.1       12.6     1016.8       21.2       18.9        0.0        0.0        0.0       0.00       30.8       0.00       0.00       29.0
7:42              229        0.0         58       21.2      255.0       21.2       22.1       12.6     1016.8       21.2       18.9        0.0        0.0        0.0       0.00       31.1       0.00       0.00       29.0
7:44              229        0.0         58       21.3      255.0       21.3       22.2       12.7     1016.8       21.3       18.9        0.0        0.0        0.0       0.00       31.2       0.00       0.00       29.0
7:46              229        0.0         58       21.4      255.0       21.4       22.3       12.8     1016.8       21.4       18.9        0.0        0.0        0.0       0.00       31.3       0.00       0.00       29.0
7:48              229        0.0         58       21.4      255.0       21.4       22.3       12.8     1016.8       21.4       18.9        0.0        0.0        0.0       0.00       31.4       0.00       0.00       29.0
7:50              229        0.0         57       21.5      255.0       21.5       22.3       12.6     1016.9       21.6       18.9        0.0        0.0        0.0       0.00       31.5       0.00       0.00       29.0
7:52              229        0.0         57       21.6      255.0       21.6       22.4       12.7     1016.9       21.6       18.9        0.0        0.0        0.0       0.00       31.6       0.00       0.00       29.0
7:54              229        0.0         58       21.7      255.0       21.7       22.6       13.1     1017.0       21.7       18.9        0.0        0.0        0.0       0.00       31.8       0.00       0.00       29.0
7:56              229        0.0         57       21.8      255.0       21.8       22.6       12.9     1016.9       21.8       18.9        0.0        0.0        0.0       0.00       31.9       0.00       0.00       29.0
7:58              229        0.0         57       21.9      255.0       21.9       22.7       13.0     1017.0       21.9       18.9        0.0        0.0        0.0       0.00       31.9       0.00       0.00       29.0
8:00              229        0.0         57       22.1      255.0       22.1       22.9       13.2     1017.0       22.1       18.9        0.0        0.0        0.0       0.00       32.0       0.00       0.00       29.0
8:02              229        0.0         57       22.1      255.0       22.1       22.9       13.2     1017.1       22.1       18.9        0.0        0.0        0.0       0.00       32.2       0.00       0.00       29.0
8:04              229        0.0         57       22.3      255.0       22.3       23.1       13.4     1017.1       22.3       18.9        0.0        0.0        0.0       0.00       32.4       0.00       0.00       29.0
8:06              229        0.0         57       22.4      255.0       22.4       23.2       13.5     1017.1       22.4       18.9        0.0        0.0        0.0       0.00       32.8       0.00       0.00       29.0
8:08              229        0.0         57       22.4      255.0       22.4       23.3       13.5     1017.1       22.4       18.9        0.0        0.0        0.0       0.00       33.0       0.00       0.00       29.0
8:10              229        0.0         57       22.5      255.0       22.5       23.3       13.6     1017.1       22.5       18.9        0.0        0.0        0.0       0.00       33.2       0.00       0.00       29.0
8:12              229        0.0         57       22.5      255.0       22.5       23.3       13.6     1017.1       22.5       18.9        0.0        0.0        0.0       0.00       33.5       0.00       0.00       29.0
8:14              229        0.0         58       22.5      255.0       22.5       23.4       13.8     1017.2       22.5       18.9        0.0        0.0        0.0       0.00       33.7       0.00       0.00       29.0
8:16              229        0.0         58       22.5      255.0       22.5       23.4       13.8     1017.1       22.5       18.9        0.0        0.0        0.0       0.00       34.2       0.00       0.01       29.0
8:18              229        0.0         58       22.4      255.0       22.4       23.3       13.8     1017.1       22.5       18.9        0.0        0.0        0.0       0.00       34.5       0.00       0.01       29.0
8:20              229        0.0         58       22.4      255.0       22.4       23.3       13.8     1017.1       22.5       18.9        0.0        0.0        0.0       0.00       34.8       0.00       0.01       29.0
8:22              229        0.0         58       22.4      255.0       22.4       23.3       13.8     1017.2       22.5       18.9        0.0        0.0        0.0       0.00       35.2       0.00       0.01       29.0
8:24              229        0.0         59       22.4      255.0       22.4       23.3       14.0     1017.2       22.5       18.9        0.0        0.0        0.0       0.00       35.3       0.00       0.01       29.0
8:26              229        0.0         59       22.4      255.0       22.4       23.4       14.0     1017.3       22.5       18.9        0.0        0.0        0.0       0.00       35.6       0.00       0.01       29.0
8:28              229        0.0         59       22.5      255.0       22.5       23.4       14.1     1017.2       22.5       18.9        0.0        0.0        0.0       0.00       35.9       0.00       0.01       29.0
8:30              229        0.0         59       22.5      255.0       22.5       23.4       14.1     1017.2       22.5       18.9        0.0        0.0        0.0       0.00       36.4       0.00       0.01       29.0
8:32              229        0.0         59       22.6      255.0       22.6       23.5       14.1     1017.2       22.6       18.9        0.0        0.0        0.0       0.00       36.7       0.00       0.01       29.0
8:34              229        0.0         58       22.7      255.0       22.7       23.6       14.0     1017.2       22.7       18.9        0.0        0.0        0.0       0.00       37.0       0.00       0.01       29.0
8:36              229        0.0         58       22.7      255.0       22.7       23.6       14.0     1017.1       22.7       18.9        0.0        0.0        0.0       0.00       37.3       0.00       0.01       29.0
8:38              229        0.0         57       22.8      255.0       22.8       23.6       13.8     1017.2       22.8       18.9        0.0        0.0        0.0       0.00       37.6       0.00       0.01       29.0
8:40              229        0.0         57       22.8      255.0       22.8       23.7       13.9     1017.2       22.8       18.9        0.0        0.0        0.0       0.00       37.8       0.00       0.01       29.0
8:42              229        0.0         57       22.9      255.0       22.9       23.7       13.9     1017.2       22.9       18.9        0.0        0.0        0.0       0.00       38.2       0.00       0.01       29.0
8:44              229        0.0         57       22.9      255.0       22.9       23.7       13.9     1017.2       22.9       18.9        0.0        0.0        0.0       0.00       38.3       0.00       0.01       29.0
8:46              229        0.0         57       22.9      255.0       22.9       23.8       14.0     1017.2       22.9       18.9        0.0        0.0        0.0       0.00       38.6       0.00       0.02       29.0
8:48              229        0.0         56       22.9      255.0       22.9       23.7       13.7     1017.2       22.9       18.9        0.0        0.0        0.0       0.00       38.8       0.00       0.02       29.0
8:50              229        0.0         56       22.9      255.0       22.9       23.7       13.7     1017.2       23.0       18.9        0.0        0.0        0.0       0.00       39.0       0.00       0.02       29.0
8:52              229        0.0         57       23.1      255.0       23.1       23.9       14.1     1017.2       23.1       18.9        0.0        0.0        0.0       0.00       39.2       0.00       0.02       29.0
8:54              229        0.0         57       23.2      255.0       23.2       24.0       14.2     1017.2       23.2       18.9        0.0        0.0        0.0       0.00       39.4       0.00       0.02       29.0
8:56              229        0.0         56       23.3      255.0       23.3       24.1       14.0     1017.2       23.3       18.9        0.0        0.0        0.0       0.00       39.6       0.00       0.02       29.0
8:58              229        0.0         55       23.4      255.0       23.4       24.1       13.8     1017.2       23.4       18.9        0.0        0.0        0.0       0.00       39.8       0.00       0.02       29.0
9:00              229        0.0         55       23.6      255.0       23.6       24.3       14.0     1017.2       23.6       18.9        0.0        0.0        0.0       0.00       40.2       0.00       0.02       29.0
9:02              229        0.0         55       23.7      255.0       23.7       24.4       14.2     1017.2       23.7       18.9        0.0        0.0        0.0       0.00       40.5       0.00       0.04       29.0
9:04              229        0.0         54       23.8      255.0       23.8       24.4       13.9     1017.2       23.8       18.9        0.0        0.0        0.0       0.00       40.8       0.00       0.04       29.0
9:06              229        0.0         54       23.8      255.0       23.8       24.5       14.0     1017.1       23.8       18.9        0.0        0.0        0.0       0.00       41.2       0.00       0.04       29.0
9:08              229        0.0         55       23.8      255.0       23.8       24.5       14.3     1017.2       23.8       18.9        0.0        0.0        0.0       0.00       41.7       0.00       0.04       29.0
9:10              229        0.0         55       23.9      255.0       23.9       24.6       14.3     1017.2       23.9       18.9        0.0        0.0        0.0       0.00       42.0       0.00       0.04       29.0
9:12              229        0.0         54       23.8      255.0       23.8       24.5       14.0     1017.2       23.9       18.9        0.0        0.0        0.0       0.00       42.3       0.00       0.04       29.0
9:14              229        0.0         55       23.8      255.0       23.8       24.5       14.3     1017.2       23.9       18.9        0.0        0.0        0.0       0.00       42.6       0.00       0.04       29.0
9:16              229        0.0         54       23.8      255.0       23.8       24.4       13.9     1017.1       23.9       18.9        0.0        0.0        0.0       0.00       42.9       0.00       0.05       29.0
9:18              229        0.0         55       23.8      255.0       23.8       24.5       14.3     1017.2       23.9       18.9        0.0        0.0        0.0       0.00       43.2       0.00       0.05       29.0
9:20              229        0.0         55       23.8      255.0       23.8       24.5       14.3     1017.2       23.9       18.9        0.0        0.0        0.0       0.00       43.5       0.00       0.05       29.0
9:22              229        0.0         54       23.8      255.0       23.8       24.5       14.0     1017.2       23.9       18.9        0.0        0.0        0.0       0.00       43.9       0.00       0.05       29.0
9:24              229        0.0         55       23.8      255.0       23.8       24.5       14.3     1017.3       23.9       18.9        0.0        0.0        0.0       0.00       44.3       0.00       0.05       29.0
9:26              229        0.0         56       23.9      255.0       23.9       24.7       14.6     1017.3       23.9       18.9        0.0        0.0        0.0       0.00       44.7       0.00       0.05       29.0
9:28              229        0.0         55       23.9      255.0       23.9       24.7       14.4     1017.2       23.9       18.9        0.0        0.0        0.0       0.00       45.2       0.00       0.05       29.0
9:30              229        0.0         55       24.0      255.0       24.0       24.7       14.4     1017.2       24.0       18.9        0.0        0.0        0.0       0.00       45.4       0.00       0.05       29.0
9:32              229        0.0         56       24.0      255.0       24.0       24.8       14.7     1017.2       24.0       18.9        0.0        0.0        0.0       0.00       45.7       0.00       0.08       29.0
9:34              229        0.0         56       24.1      255.0       24.1       24.8       14.7     1017.2       24.1       18.9        0.0        0.0        0.0       0.00       46.0       0.00       0.08       29.0
9:36              229        0.0         56       24.1      255.0       24.1       24.8       14.7     1017.2       24.1       18.9        0.0        0.0        0.0       0.00       46.3       0.00       0.08       29.0
9:38              229        0.0         56       24.1      255.0       24.1       24.9       14.8     1017.2       24.1       18.9        0.0        0.0        0.0       0.00       46.5       0.00       0.08       29.0
9:40              229        0.0         55       24.2      255.0       24.2       24.9       14.6     1017.2       24.2       18.9        0.0        0.0        0.0       0.00       47.0       0.00       0.08       29.0
9:42              229        0.0         56       24.2      255.0       24.2       25.0       14.9     1017.2       24.2       18.9        0.0        0.0        0.0       0.00       47.3       0.00       0.08       29.0
9:44              229        0.0         56       24.3      255.0       24.3       25.1       14.9     1017.2       24.3       18.9        0.0        0.0        0.0       0.00       47.6       0.00       0.08       29.0
9:46              229        0.0         56       24.4      255.0       24.4       25.2       15.1     1017.2       24.4       18.9        0.0        0.0        0.0       0.00       48.2       0.00       0.10       29.0
9:48              229        0.0         55       24.6      255.0       24.6       25.3       14.9     1017.2       24.6       18.9        0.0        0.0        0.0       0.00       48.5       0.00       0.10       29.0
9:50              229        0.0         56       24.7      255.0       24.7       25.4       15.3     1017.2       24.7       18.9        0.0        0.0        0.0       0.00       48.8       0.00       0.10       29.0
9:52              229        0.0         55       24.7      255.0       24.7       25.4       15.1     1017.2       24.7       18.9        0.0        0.0        0.0       0.00       49.1       0.00       0.10       29.0
9:54              229        0.0         54       24.8      255.0       24.8       25.5       14.9     1017.2       24.8       18.9        0.0        0.0        0.0       0.00       49.4       0.00       0.10       29.0
9:56              229        0.0         54       24.9      255.0       24.9       25.6       15.0     1017.2       24.9       18.9        0.0        0.0        0.0       0.00       49.6       0.00       0.10       29.0
9:58              229        0.0         53       25.1      255.0       25.1       25.7       14.8     1017.2       25.1       18.9        0.0        0.0        0.0       0.00       50.0       0.00       0.10       29.0
10:00             229        0.0         53       25.1      255.0       25.1       25.7       14.9     1017.2       25.1       18.9        0.0        0.0        0.0       0.00       50.4       0.00       0.10       29.0
10:01             229        0.0         53       25.2      255.0       25.2       25.8       15.0     1017.2       25.2       18.9        0.0        0.0        0.0       0.00       50.7       0.00       0.13       29.0
10:04             229        0.0         52       25.3      255.0       25.3       25.9       14.8     1017.2       25.3       18.9        0.0        0.0        0.0       0.00       51.0       0.00       0.13       29.0
10:06             229        0.0         52       25.4      255.0       25.4       26.0       14.9     1017.2       25.4       18.9        0.0        0.0        0.0       0.00       51.4       0.00       0.13       29.0
10:08             229        0.0         52       25.6      255.0       25.6       26.1       15.0     1017.2       25.6       18.9        0.0        0.0        0.0       0.00       51.6       0.00       0.13       29.0
10:10             229        0.0         51       25.6      255.0       25.6       26.1       14.7     1017.2       25.6       18.9        0.0        0.0        0.0       0.00       52.0       0.00       0.13       29.0
10:12             229        0.0         51       25.7      255.0       25.7       26.2       14.8     1017.2       25.7       18.9        0.0        0.0        0.0       0.00       52.3       0.00       0.13       29.0
10:14             229        0.0         52       25.7      255.0       25.7       26.3       15.1     1017.2       25.7       18.9        0.0        0.0        0.0       0.00       52.4       0.00       0.13       29.0
10:16             229        0.0         51       25.8      255.0       25.8       26.3       14.9     1017.2       25.8       18.9        0.0        0.0        0.0       0.00       52.7       0.00       0.17       29.0
10:18             229        0.0         51       25.8      255.0       25.8       26.3       14.9     1017.2       25.8       18.9        0.0        0.0        0.0       0.00       53.2       0.00       0.17       29.0
10:20             229        0.0         51       25.9      255.0       25.9       26.4       15.0     1017.2       25.9       18.9        0.0        0.0        0.0       0.00       53.5       0.00       0.17       29.0
10:22             229        0.0         51       25.9      255.0       25.9       26.4       15.0     1017.2       25.9       18.9        0.0        0.0        0.0       0.00       53.5       0.00       0.17       29.0
10:24             229        0.0         51       26.0      255.0       26.0       26.5       15.1     1017.1       26.0       18.9        0.0        0.0        0.0       0.00       53.8       0.00       0.17       29.0
10:26             229        0.0         51       26.1      255.0       26.1       26.6       15.1     1017.2       26.1       18.9        0.0        0.0        0.0       0.00       53.9       0.00       0.17       29.0
10:28             229        0.0         51       26.1      255.0       26.1       26.6       15.1     1017.2       26.1       18.9        0.0        0.0        0.0       0.00       54.2       0.00       0.17       29.0
10:30             229        0.0         52       26.1      255.0       26.1       26.6       15.4     1017.2       26.1       18.9        0.0        0.0        0.0       0.00       54.3       0.00       0.17       29.0
10:32             229        0.0         52       26.1      255.0       26.1       26.6       15.4     1017.2       26.1       18.9        0.0        0.0        0.0       0.00       54.5       0.00       0.21       29.0
10:34             229        0.0         52       26.1      255.0       26.1       26.6       15.4     1017.1       26.1       18.9        0.0        0.0        0.0       0.00       54.6       0.00       0.21       29.0
10:36             229        0.0         51       26.1      255.0       26.1       26.6       15.2     1017.2       26.1       18.9        0.0        0.0        0.0       0.00       54.7       0.00       0.21       29.0
10:38             229        0.0         52       26.2      255.0       26.2       26.7       15.5     1017.1       26.2       18.9        0.0        0.0        0.0       0.00       54.8       0.00       0.21       29.0
10:40             229        0.0         52       26.3      255.0       26.3       26.9       15.7     1017.0       26.3       18.9        0.0        0.0        0.0       0.00       55.1       0.00       0.21       29.0
10:42             229        0.0         52       26.4      255.0       26.4       27.0       15.8     1016.9       26.4       18.9        0.0        0.0        0.0       0.00       55.4       0.00       0.21       29.0
10:44             229        0.0         51       26.6      255.0       26.6       27.1       15.7     1017.0       26.6       18.9        0.0        0.0        0.0       0.00       55.5       0.00       0.21       29.0
10:46             229        0.0         51       26.7      255.0       26.7       27.2       15.8     1016.9       26.7       18.9        0.0        0.0        0.0       0.00       55.8       0.00       0.26       29.0
10:48             229        0.0         50       26.8      255.0       26.8       27.3       15.5     1016.8       26.8       18.9        0.0        0.0        0.0       0.00       56.0       0.00       0.26       29.0
10:50             229        0.0         50       26.9      255.0       26.9       27.4       15.6     1016.8       26.9       18.9        0.0        0.0        0.0       0.00       56.3       0.00       0.26       29.0
10:52             229        0.0         50       27.1      255.0       27.1       27.5       15.8     1016.7       27.1       18.9        0.0        0.0        0.0       0.00       56.6       0.00       0.26       29.0
10:54             229        0.0         50       27.2      255.0       27.2       27.6       15.9     1016.7       27.2       18.9        0.0        0.0        0.0       0.00       56.7       0.00       0.26       29.0
10:56             229        0.0         50       27.2      255.0       27.2       27.6       15.9     1016.7       27.2       18.9        0.0        0.0        0.0       0.00       56.8       0.00       0.26       29.0
10:58             229        0.0         50       27.3      255.0       27.3       27.7       16.0     1016.7       27.3       18.9        0.0        0.0        0.0       0.00       57.3       0.00       0.26       29.0
11:00             229        0.0         51       27.3      255.0       27.3       27.8       16.3     1016.7       27.3       18.9        0.0        0.0        0.0       0.00       57.5       0.00       0.26       29.0
11:02             229        0.0         52       27.3      255.0       27.3       27.9       16.6     1016.7       27.3       18.9        0.0        0.0        0.0       0.00       57.5       0.00       0.32       29.0
11:04             229        0.0         53       27.4      255.0       27.4       28.1       17.0     1016.6       27.4       18.9        0.0        0.0        0.0       0.00       57.7       0.00       0.32       29.0
11:06             229        0.0         52       27.6      255.0       27.6       28.2       16.9     1016.6       27.6       18.9        0.0        0.0        0.0       0.00       57.9       0.00       0.32       29.0
11:08             229        0.0         52       27.7      255.0       27.7       28.3       17.0     1016.6       27.7       18.9        0.0        0.0        0.0       0.00       58.2       0.00       0.32       29.0
11:10             229        0.0         52       27.8      255.0       27.8       28.4       17.0     1016.6       27.8       18.9        0.0        0.0        0.0       0.00       58.5       0.00       0.32       29.0
11:12             229        0.0         53       27.8      255.0       27.8       28.5       17.4     1016.6       27.8       18.9        0.0        0.0        0.0       0.00       59.1       0.00       0.32       29.0
11:14             229        0.0         53       27.7      255.0       27.7       28.4       17.3     1016.6       27.8       18.9        0.0        0.0        0.0       0.00       59.5       0.00       0.32       29.0
11:16             229        0.0         53       27.7      255.0       27.7       28.3       17.2     1016.5       27.8       18.9        0.0        0.0        0.0       0.00       60.0       0.00       0.38       29.0
11:18             231        0.0         53       27.5      255.0       27.5       28.1       17.1     1016.6       27.8       18.9        0.0        0.0        0.0       0.00       60.6       0.00       0.38       29.0
11:20             231        0.0         54       27.4      255.0       27.4       28.2       17.3     1016.5       27.8       18.9        0.0        0.0        0.0       0.00       60.9       0.00       0.38       29.0
11:22             230        0.0         55       27.4      255.0       27.4       28.2       17.6     1016.5       27.8       18.9        0.0        0.0        0.0       0.00       61.3       0.00       0.38       29.0
11:24             225        0.0         56       27.4      255.0       27.4       28.3       17.9     1016.5       27.8       18.9        0.0        0.0        0.0       0.00       61.9       0.00       0.38       29.0
11:26             225        0.0         56       27.5      255.0       27.5       28.4       17.9     1016.4       27.8       18.9        0.0        0.0        0.0       0.00       62.2       0.00       0.38       29.0
11:28             225        0.0         56       27.6      255.0       27.6       28.5       18.0     1016.4       27.8       18.9        0.0        0.0        0.0       0.00       62.7       0.00       0.38       29.0
11:30             215        0.0         55       27.6      255.0       27.6       28.4       17.8     1016.3       27.8       18.9        0.0        0.0        0.0       0.00       63.4       0.00       0.38       29.0
11:32             212        0.0         55       27.6      255.0       27.6       28.4       17.8     1016.3       27.8       18.9        0.0        0.0        0.0       0.00       63.9       0.00       0.44       29.0
11:34             208        0.0         55       27.7      255.0       27.7       28.6       17.9     1016.3       27.8       18.9        0.0        0.0        0.0       0.00       64.4       0.00       0.44       29.0
11:36             207        0.0         54       27.8      255.0       27.8       28.5       17.6     1016.2       27.8       18.9        0.0        0.0        0.0       0.00       64.9       0.00       0.44       29.0
11:38             207        0.0         54       27.8      255.0       27.8       28.6       17.7     1016.2       27.8       18.9        0.0        0.0        0.0       0.00       65.3       0.00       0.44       29.0
11:40             207        0.0         53       27.9      255.0       27.9       28.6       17.4     1016.1       27.9       18.9        0.0        0.0        0.0       0.00       65.7       0.00       0.44       29.0
11:42             208        0.0         53       27.9      255.0       27.9       28.7       17.5     1016.2       27.9       18.9        0.0        0.0        0.0       0.00       66.1       0.00       0.44       29.0
11:44             208        0.0         54       27.9      255.0       27.9       28.7       17.7     1016.1       27.9       18.9        0.0        0.0        0.0       0.00       66.3       0.00       0.44       29.0
11:46             208        0.0         53       27.9      255.0       27.9       28.7       17.5     1016.1       27.9       18.9        0.0        0.0        0.0       0.00       66.6       0.00       0.50       29.0
11:48             208        0.0         53       27.9      255.0       27.9       28.7       17.5     1016.0       27.9       18.9        0.0        0.0        0.0       0.00       67.0       0.00       0.50       29.0
11:50             208        0.0         54       28.0      255.0       28.0       28.8       17.8     1016.0       28.0       18.9        0.0        0.0        0.0       0.00       67.3       0.00       0.50       29.0
11:52             208        0.0         53       28.1      255.0       28.1       28.8       17.6     1016.0       28.1       18.9        0.0        0.0        0.0       0.00       67.7       0.00       0.50       29.0
11:54             208        0.0         53       28.1      255.0       28.1       28.9       17.6     1016.0       28.1       18.9        0.0        0.0        0.0       0.00       68.1       0.00       0.50       29.0
11:56             209        0.0         52       28.2      255.0       28.2       28.8       17.4     1015.9       28.2       18.9        0.0        0.0        0.0       0.00       68.6       0.00       0.50       29.0
11:58             209        0.0         51       28.2      255.0       28.2       28.8       17.1     1016.0       28.2       18.9        0.0        0.0        0.0       0.00       68.9       0.00       0.50       29.0
12:00             205        0.0         51       28.3      255.0       28.3       28.9       17.2     1015.9       28.3       18.9        0.0        0.0        0.0       0.00       69.3       0.00       0.50       29.0
12:02             202        0.0         52       28.4      255.0       28.4       29.1       17.6     1015.8       28.4       18.9        0.0        0.0        0.0       0.00       69.9       0.00       0.56       29.0
12:04             202        0.0         52       28.5      255.0       28.5       29.2       17.7     1015.8       28.5       18.9        0.0        0.0        0.0       0.00       70.4       0.00       0.56       29.0
12:06             205        0.0         52       28.6      255.0       28.6       29.4       17.8     1015.8       28.6       18.9        0.0        0.0        0.0       0.00       70.8       0.00       0.56       29.0
12:08             205        0.0         51       28.6      255.0       28.6       29.3       17.5     1015.8       28.6       18.9        0.0        0.0        0.0       0.00       71.3       0.00       0.56       29.0
12:10             205        0.0         52       28.6      255.0       28.6       29.4       17.8     1015.7       28.6       18.9        0.0        0.0        0.0       0.00       71.7       0.00       0.56       29.0
12:12             205        0.0         52       28.6      255.0       28.6       29.4       17.8     1015.8       28.6       18.9        0.0        0.0        0.0       0.00       72.1       0.00       0.56       29.0
12:14             205        0.0         51       28.7      255.0       28.7       29.3       17.5     1015.7       28.7       18.9        0.0        0.0        0.0       0.00       72.4       0.00       0.56       29.0
12:16             205        0.0         49       28.7      255.0       28.7       29.2       17.0     1015.7       28.7       18.9        0.0        0.0        0.0       0.00       72.9       0.00       0.63       29.0
12:18             205        0.0         49       28.7      255.0       28.7       29.1       16.9     1015.6       28.7       18.9        0.0        0.0        0.0       0.00       73.3       0.00       0.63       29.0
12:20             205        0.0         49       28.6      255.0       28.6       29.1       16.9     1015.6       28.7       18.9        0.0        0.0        0.0       0.00       73.6       0.00       0.63       29.0
12:22             205        0.0         49       28.7      255.0       28.7       29.1       16.9     1015.6       28.7       18.9        0.0        0.0        0.0       0.00       74.1       0.00       0.63       29.0
12:24             205        0.0         48       28.7      255.0       28.7       29.0       16.6     1015.6       28.7       18.9        0.0        0.0        0.0       0.00       74.4       0.00       0.63       29.0
12:26             206        0.0         49       28.7      255.0       28.7       29.2       17.0     1015.6       28.7       18.9        0.0        0.0        0.0       0.00       74.9       0.00       0.63       29.0
12:28             206        0.0         47       28.8      255.0       28.8       29.1       16.4     1015.6       28.8       18.9        0.0        0.0        0.0       0.00       75.3       0.00       0.63       29.0
12:30             206        0.0         47       28.9      255.0       28.9       29.2       16.5     1015.5       28.9       18.9        0.0        0.0        0.0       0.00       75.7       0.00       0.63       29.0
12:32             206        0.0         46       28.9      255.0       28.9       29.1       16.2     1015.6       28.9       18.9        0.0        0.0        0.0       0.00       76.0       0.00       0.71       29.0
12:34             206        0.0         45       28.9      255.0       28.9       29.0       15.8     1015.5       28.9       18.9        0.0        0.0        0.0       0.00       76.2       0.00       0.71       29.0
12:35             206        0.0         45       29.0      255.0       29.0       29.1       15.9     1015.5       29.0       18.9        0.0        0.0        0.0       0.00       76.4       0.00       0.71       29.0
12:38             206        0.0         45       29.1      255.0       29.1       29.2       15.9     1015.4       29.1       18.9        0.0        0.0        0.0       0.00       76.7       0.00       0.71       29.0
12:40             205        0.0         45       29.2      255.0       29.2       29.3       16.0     1015.3       29.2       18.9        0.0        0.0        0.0       0.00       77.2       0.00       0.71       29.0
12:42             202        0.0         44       29.3      255.0       29.3       29.4       15.8     1015.4       29.3       18.9        0.0        0.0        0.0       0.00       77.7       0.00       0.71       29.0
12:44             202        0.0         44       29.4      255.0       29.4       29.5       15.9     1015.3       29.4       18.9        0.0        0.0        0.0       0.00       78.1       0.00       0.71       29.0
12:46             202        0.0         43       29.6      255.0       29.6       29.6       15.7     1015.3       29.6       18.9        0.0        0.0        0.0       0.00       78.5       0.00       0.78       29.0
12:48             203        0.0         44       29.7      255.0       29.7       29.8       16.2     1015.2       29.7       18.9        0.0        0.0        0.0       0.00       78.9       0.00       0.78       29.0
12:50             204        0.0         44       29.7      255.0       29.7       29.8       16.2     1015.3       29.7       18.9        0.0        0.0        0.0       0.00       79.3       0.00       0.78       29.0
12:52             203        0.0         43       29.8      255.0       29.8       29.8       15.9     1015.3       29.8       18.9        0.0        0.0        0.0       0.00       79.7       0.00       0.78       29.0
12:54             208        0.0         42       29.8      255.0       29.8       29.7       15.6     1015.3       29.8       18.9        0.0        0.0        0.0       0.00       80.2       0.00       0.78       29.0
12:56             207        0.0         43       29.8      255.0       29.8       29.8       15.9     1015.2       29.8       18.9        0.0        0.0        0.0       0.00       80.6       0.00       0.78       29.0
12:58             205        0.0         42       29.8      255.0       29.8       29.7       15.5     1015.3       29.8       18.9        0.0        0.0        0.0       0.00       81.2       0.00       0.78       29.0
13:00             205        0.0         42       29.8      255.0       29.8       29.7       15.6     1015.2       29.8       18.9        0.0        0.0        0.0       0.00       81.4       0.00       0.78       29.0
13:02             205        0.0         42       29.9      255.0       29.9       29.8       15.6     1015.1       29.9       18.9        0.0        0.0        0.0       0.00       81.5       0.00       0.87       29.0
13:04             205        0.0         41       29.9      255.0       29.9       29.7       15.3     1015.2       29.9       18.9        0.0        0.0        0.0       0.00       81.8       0.00       0.87       29.0
13:06             205        0.0         41       30.1      255.0       30.1       29.9       15.4     1015.1       30.1       18.9        0.0        0.0        0.0       0.00       82.3       0.00       0.87       29.0
13:08             205        0.0         40       30.1      255.0       30.1       29.8       15.0     1015.2       30.1       18.9        0.0        0.0        0.0       0.00       82.6       0.00       0.87       29.0
13:10             205        0.0         40       30.2      255.0       30.2       29.9       15.1     1015.1       30.2       18.9        0.0        0.0        0.0       0.00       83.1       0.00       0.87       29.0
13:12             205        0.0         40       30.1      255.0       30.1       29.8       15.0     1015.1       30.2       18.9        0.0        0.0        0.0       0.00       83.3       0.00       0.87       29.0
13:14             205        0.0         39       30.2      255.0       30.2       29.8       14.7     1015.0       30.2       18.9        0.0        0.0        0.0       0.00       83.5       0.00       0.87       29.0
13:16             205        0.0         40       30.2      255.0       30.2       29.9       15.1     1015.0       30.2       18.9        0.0        0.0        0.0       0.00       83.7       0.00       0.95       29.0
13:18             205        0.0         40       30.3      255.0       30.3       30.0       15.2     1015.0       30.3       18.9        0.0        0.0        0.0       0.00       84.0       0.00       0.95       29.0
13:20             205        0.0         39       30.3      255.0       30.3       30.0       14.8     1015.0       30.3       18.9        0.0        0.0        0.0       0.00       84.1       0.00       0.95       29.0
13:22             205        0.0         38       30.3      255.0       30.3       29.8       14.4     1014.8       30.3       18.9        0.0        0.0        0.0       0.00       84.4       0.00       0.95       29.0
13:24             205        0.0         39       30.4      255.0       30.4       30.0       14.9     1014.9       30.4       18.9        0.0        0.0        0.0       0.00       84.8       0.00       0.95       29.0
13:26             205        0.0         40       30.3      255.0       30.3       30.1       15.2     1014.9       30.4       18.9        0.0        0.0        0.0       0.00       85.0       0.00       0.95       29.0
13:28             205        0.0         41       30.4      255.0       30.4       30.3       15.7     1014.9       30.4       18.9        0.0        0.0        0.0       0.00       85.0       0.00       0.95       29.0
13:30             205        0.0         41       30.5      255.0       30.5       30.4       15.8     1014.8       30.5       18.9        0.0        0.0        0.0       0.00       85.1       0.00       0.95       29.0
13:32             204        0.0         40       30.7      255.0       30.7       30.5       15.5     1014.8       30.7       18.9        0.0        0.0        0.0       0.00       85.7       0.00       1.04       29.0
13:34             204        0.0         40       30.8      255.0       30.8       30.6       15.6     1014.8       30.8       18.9        0.0        0.0        0.0       0.00       86.1       0.00       1.04       29.0
13:36             204        0.0         39       30.8      255.0       30.8       30.5       15.2     1014.8       30.8       18.9        0.0        0.0        0.0       0.00       86.3       0.00       1.04       29.0
13:38             204        0.0         39       30.8      255.0       30.8       30.5       15.2     1014.7       30.8       18.9        0.0        0.0        0.0       0.00       86.8       0.00       1.04       29.0
13:40             206        0.0         39       30.8      255.0       30.8       30.5       15.2     1014.8       30.8       18.9        0.0        0.0        0.0       0.00       87.4       0.00       1.04       29.0
13:42             206        0.0         38       30.7      255.0       30.7       30.3       14.8     1014.7       30.8       18.9        0.0        0.0        0.0       0.00       87.8       0.00       1.04       29.0
13:44             206        0.0         38       30.7      255.0       30.7       30.3       14.8     1014.7       30.8       18.9        0.0        0.0        0.0       0.00       88.3       0.00       1.04       29.0
13:45             206        0.0         37       30.7      255.0       30.7       30.1       14.3     1014.8       30.8       18.9        0.0        0.0        0.0       0.00       88.6       0.00       1.13       29.0
13:48             206        0.0         38       30.7      255.0       30.7       30.2       14.7     1014.7       30.8       18.9        0.0        0.0        0.0       0.00       88.9       0.00       1.13       29.0
13:50             206        0.0         37       30.7      255.0       30.7       30.2       14.4     1014.7       30.8       18.9        0.0        0.0        0.0       0.00       89.2       0.00       1.13       29.0
13:52             206        0.0         37       30.8      255.0       30.8       30.2       14.4     1014.8       30.8       18.9        0.0        0.0        0.0       0.00       89.3       0.00       1.13       29.0
13:54             206        0.0         36       30.9      255.0       30.9       30.2       14.1     1014.6       30.9       18.9        0.0        0.0        0.0       0.00       89.7       0.00       1.13       29.0
13:56             206        0.0         35       30.9      255.0       30.9       30.2       13.7     1014.7       30.9       18.9        0.0        0.0        0.0       0.00       89.9       0.00       1.13       29.0
13:58             206        0.0         36       31.0      255.0       31.0       30.4       14.2     1014.7       31.0       18.9        0.0        0.0        0.0       0.00       90.0       0.00       1.13       29.0
14:00             206        0.0         37       31.1      255.0       31.1       30.6       14.7     1014.6       31.1       18.9        0.0        0.0        0.0       0.00       90.1       0.00       1.13       29.0
14:02             206        0.0         37       31.2      255.0       31.2       30.7       14.8     1014.6       31.2       18.9        0.0        0.0        0.0       0.00       90.3       0.00       1.22       29.0
14:03             206        0.0         37       31.2      255.0       31.2       30.8       14.8     1014.6       31.2       18.9        0.0        0.0        0.0       0.00       90.6       0.00       1.22       29.0
14:06             206        0.0         37       31.3      255.0       31.3       30.8       14.9     1014.5       31.3       18.9        0.0        0.0        0.0       0.00       91.0       0.00       1.22       29.0
14:08             206        0.0         37       31.3      255.0       31.3       30.9       14.9     1014.6       31.3       18.9        0.0        0.0        0.0       0.00       91.1       0.00       1.22       29.0
14:10             206        0.0         38       31.3      255.0       31.3       31.1       15.3     1014.5       31.3       18.9        0.0        0.0        0.0       0.00       91.9       0.00       1.22       29.0
14:12             206        0.0         38       31.3      255.0       31.3       31.1       15.3     1014.5       31.3       18.9        0.0        0.0        0.0       0.00       92.5       0.00       1.22       29.0
14:14             206        0.0         39       31.3      255.0       31.3       31.1       15.7     1014.4       31.3       18.9        0.0        0.0        0.0       0.00       93.1       0.00       1.22       29.0
14:16             206        0.0         38       31.3      255.0       31.3       31.1       15.3     1014.4       31.3       18.9        0.0        0.0        0.0       0.00       93.7       0.00       1.32       29.0
14:18             206        0.0         37       31.3      255.0       31.3       30.9       14.9     1014.4       31.4       18.9        0.0        0.0        0.0       0.00       94.2       0.00       1.32       29.0
14:20             206        0.0         37       31.3      255.0       31.3       30.8       14.9     1014.4       31.4       18.9        0.0        0.0        0.0       0.00       94.3       0.00       1.32       29.0
14:22             206        0.0         38       31.3      255.0       31.3       31.1       15.3     1014.2       31.4       18.9        0.0        0.0        0.0       0.00       94.5       0.00       1.32       29.0
14:24             206        0.0         38       31.5      255.0       31.5       31.3       15.5     1014.2       31.5       18.9        0.0        0.0        0.0       0.00       94.8       0.00       1.32       29.0
14:26             206        0.0         39       31.6      255.0       31.6       31.6       16.0     1014.2       31.6       18.9        0.0        0.0        0.0       0.00       95.1       0.00       1.32       29.0
14:27             206        0.0         38       31.7      255.0       31.7       31.6       15.7     1014.3       31.7       18.9        0.0        0.0        0.0       0.00       95.5       0.00       1.32       29.0
14:30             206        0.0         38       31.8      255.0       31.8       31.7       15.8     1014.2       31.8       18.9        0.0        0.0        0.0       0.00       95.7       0.00       1.32       29.0
14:32             206        0.0         35       31.8      255.0       31.8       31.3       14.5     1014.2       31.8       18.9        0.0        0.0        0.0       0.00       96.1       0.00       1.42       29.0
14:33             206        0.0         36       31.8      255.0       31.8       31.3       14.9     1014.2       31.8       18.9        0.0        0.0        0.0       0.00       96.4       0.00       1.42       29.0
14:36             206        0.0         36       31.7      255.0       31.7       31.3       14.8     1014.1       31.8       18.9        0.0        0.0        0.0       0.00       96.7       0.00       1.42       29.0
14:38             206        0.0         34       31.7      255.0       31.7       30.9       13.9     1014.1       31.8       18.9        0.0        0.0        0.0       0.00       97.2       0.00       1.42       29.0
14:40             206        0.0         33       31.6      255.0       31.6       30.7       13.4     1014.1       31.8       18.9        0.0        0.0        0.0       0.00       97.9       0.00       1.42       29.0
14:41             206        0.0         35       31.5      255.0       31.5       30.8       14.2     1014.1       31.8       18.9        0.0        0.0        0.0       0.00       98.2       0.00       1.42       29.0
14:44             206        0.0         35       31.4      255.0       31.4       30.8       14.2     1014.1       31.8       18.9        0.0        0.0        0.0       0.00       98.3       0.00       1.42       29.0
14:46             206        0.0         36       31.4      255.0       31.4       30.9       14.6     1014.1       31.8       18.9        0.0        0.0        0.0       0.00       98.6       0.00       1.52       29.0
14:48             206        0.0         35       31.4      255.0       31.4       30.8       14.2     1014.1       31.8       18.9        0.0        0.0        0.0       0.00       99.0       0.00       1.52       29.0
14:50             206        0.0         36       31.4      255.0       31.4       30.9       14.6     1014.0       31.8       18.9        0.0        0.0        0.0       0.00       99.4       0.00       1.52       29.0
14:52             206        0.0         36       31.4      255.0       31.4       30.9       14.6     1014.1       31.8       18.9        0.0        0.0        0.0       0.00       99.9       0.00       1.52       29.0
14:53             206        0.0         36       31.4      255.0       31.4       30.8       14.5     1014.1       31.8       18.9        0.0        0.0        0.0       0.00      100.3       0.00       1.52       29.0
14:56             206        0.0         36       31.4      255.0       31.4       30.8       14.5     1014.0       31.8       18.9        0.0        0.0        0.0       0.00      100.5       0.00       1.52       29.0
14:58             206        0.0         36       31.4      255.0       31.4       30.8       14.5     1014.0       31.8       18.9        0.0        0.0        0.0       0.00      100.7       0.00       1.52       29.0
15:00             206        0.0         36       31.5      255.0       31.5       31.0       14.6     1013.9       31.8       18.9        0.0        0.0        0.0       0.00      100.9       0.00       1.52       29.0
15:02             206        0.0         36       31.7      255.0       31.7       31.2       14.8     1013.9       31.8       18.9        0.0        0.0        0.0       0.00      101.1       0.00       1.62       29.0
15:04             206        0.0         36       31.9      255.0       31.9       31.5       15.0     1013.9       31.9       18.9        0.0        0.0        0.0       0.00      101.1       0.00       1.62       29.0
15:06             206        0.0         34       32.1      255.0       32.1       31.4       14.2     1013.9       32.1       18.9        0.0        0.0        0.0       0.00      101.2       0.00       1.62       29.0
15:07             206        0.0         34       32.2      255.0       32.2       31.6       14.4     1013.8       32.2       18.9        0.0        0.0        0.0       0.00      101.3       0.00       1.62       29.0
15:10             206        0.0         34       32.3      255.0       32.3       31.7       14.5     1013.8       32.3       18.9        0.0        0.0        0.0       0.00      101.8       0.00       1.62       29.0
15:12             206        0.0         35       32.4      255.0       32.4       32.0       15.0     1013.8       32.4       18.9        0.0        0.0        0.0       0.00      102.5       0.00       1.62       29.0
15:14             206        0.0         34       32.3      255.0       32.3       31.7       14.5     1013.7       32.4       18.9        0.0        0.0        0.0       0.00      103.1       0.00       1.62       29.0
15:16             206        0.0         34       32.3      255.0       32.3       31.7       14.4     1013.7       32.4       18.9        0.0        0.0        0.0       0.00      103.5       0.00       1.73       29.0
15:18             206        0.0         35       32.2      255.0       32.2       31.8       14.8     1013.7       32.4       18.9        0.0        0.0        0.0       0.00      103.8       0.00       1.73       29.0
15:20             206        0.0         36       32.2      255.0       32.2       31.9       15.3     1013.6       32.4       18.9        0.0        0.0        0.0       0.00      104.0       0.00       1.73       29.0
15:22             206        0.0         35       32.2      255.0       32.2       31.8       14.8     1013.7       32.4       18.9        0.0        0.0        0.0       0.00      104.3       0.00       1.73       29.0
15:24             206        0.0         34       32.3      255.0       32.3       31.7       14.4     1013.6       32.4       18.9        0.0        0.0        0.0       0.00      104.4       0.00       1.73       29.0
15:26             206        0.0         34       32.3      255.0       32.3       31.7       14.5     1013.6       32.4       18.9        0.0        0.0        0.0       0.00      104.4       0.00       1.73       29.0
15:28             206        0.0         35       32.5      255.0       32.5       32.1       15.1     1013.7       32.5       18.9        0.0        0.0        0.0       0.00      104.7       0.00       1.73       29.0
15:30             206        0.0         34       32.7      255.0       32.7       32.2       14.8     1013.5       32.7       18.9        0.0        0.0        0.0       0.00      105.2       0.00       1.73       29.0
15:31             208        0.0         34       32.8      255.0       32.8       32.4       14.9     1013.7       32.8       18.9        0.0        0.0        0.0       0.00      105.8       0.00       1.84       29.0
15:34             207        0.0         34       32.9      255.0       32.9       32.5       15.0     1013.5       32.9       18.9        0.0        0.0        0.0       0.00      106.4       0.00       1.84       29.0
15:36             208        0.0         34       33.0      255.0       33.0       32.6       15.1     1013.6       33.0       18.9        0.0        0.0        0.0       0.00      107.0       0.00       1.84       29.0
15:38             209        0.0         35       32.9      255.0       32.9       32.7       15.5     1013.5       33.0       18.9        0.0        0.0        0.0       0.00      107.6       0.00       1.84       29.0
15:40             212        0.0         36       32.8      255.0       32.8       32.7       15.8     1013.6       33.0       18.9        0.0        0.0        0.0       0.00      108.1       0.00       1.84       29.0
15:42             212        0.0         36       32.6      255.0       32.6       32.4       15.6     1013.6       33.0       18.9        0.0        0.0        0.0       0.00      108.4       0.00       1.84       29.0
15:44             212        0.0         36       32.5      255.0       32.5       32.3       15.5     1013.5       33.0       18.9        0.0        0.0        0.0       0.00      108.8       0.00       1.84       29.0
15:46             212        0.0         35       32.5      255.0       32.5       32.1       15.1     1013.3       33.0       18.9        0.0        0.0        0.0       0.00      109.1       0.00       1.95       29.0
15:48             212        0.0         35       32.5      255.0       32.5       32.1       15.1     1013.3       33.0       18.9        0.0        0.0        0.0       0.00      109.2       0.00       1.95       29.0
15:50             212        0.0         35       32.6      255.0       32.6       32.2       15.1     1013.3       33.0       18.9        0.0        0.0        0.0       0.00      109.5       0.00       1.95       29.0
15:52             212        0.0         35       32.6      255.0       32.6       32.3       15.2     1013.3       33.0       18.9        0.0        0.0        0.0       0.00      110.0       0.00       1.95       29.0
15:53             211        0.0         35       32.7      255.0       32.7       32.3       15.2     1013.2       33.0       18.9        0.0        0.0        0.0       0.00      110.5       0.00       1.95       29.0
15:56             211        0.0         35       32.8      255.0       32.8       32.5       15.3     1013.3       33.0       18.9        0.0        0.0        0.0       0.00      110.8       0.00       1.95       29.0
15:58             211        0.0         36       32.8      255.0       32.8       32.7       15.8     1013.1       33.0       18.9        0.0        0.0        0.0       0.00      111.0       0.00       1.95       29.0
16:00             211        0.0         35       32.8      255.0       32.8       32.6       15.4     1013.2       33.0       18.9        0.0        0.0        0.0       0.00      111.2       0.00       1.95       29.0
16:02             211        0.0         35       32.8      255.0       32.8       32.5       15.3     1013.1       33.0       18.9        0.0        0.0        0.0       0.00      111.6       0.00       2.06       29.0
16:04             209        0.0         37       32.8      255.0       32.8       32.8       16.2     1013.1       33.0       18.9        0.0        0.0        0.0       0.00      112.4       0.00       2.06       29.0
16:06             209        0.0         38       32.7      255.0       32.7       33.0       16.6     1013.0       33.0       18.9        0.0        0.0        0.0       0.00      112.9       0.00       2.06       29.0
16:08             202        0.0         38       32.7      255.0       32.7       33.0       16.6     1013.1       33.0       18.9        0.0        0.0        0.0       0.00      113.4       0.00       2.06       29.0
16:10             196        0.0         38       32.8      255.0       32.8       33.0       16.6     1013.1       33.0       18.9        0.0        0.0        0.0       0.00      113.9       0.00       2.06       29.0
16:12             196        0.0         38       32.8      255.0       32.8       33.0       16.6     1013.1       33.0       18.9        0.0        0.0        0.0       0.00      114.2       0.00       2.06       29.0
16:14             196        0.0         38       32.8      255.0       32.8       33.0       16.6     1013.1       33.0       18.9        0.0        0.0        0.0       0.00      114.7       0.00       2.06       29.0
16:15             195        0.0         38       32.8      255.0       32.8       33.1       16.7     1013.0       33.0       18.9        0.0        0.0        0.0       0.00      115.2       0.00       2.17       29.0
16:18             195        0.0         38       32.9      255.0       32.9       33.2       16.7     1013.0       33.0       18.9        0.0        0.0        0.0       0.00      115.7       0.00       2.17       29.0
16:20             195        0.0         38       32.8      255.0       32.8       33.1       16.7     1012.9       33.0       18.9        0.0        0.0        0.0       0.00      116.1       0.00       2.17       29.0
16:21             196        0.0         37       32.8      255.0       32.8       32.8       16.2     1013.0       33.0       18.9        0.0        0.0        0.0       0.00      116.6       0.00       2.17       29.0
16:24             196        0.0         37       32.7      255.0       32.7       32.8       16.1     1013.0       33.0       18.9        0.0        0.0        0.0       0.00      117.1       0.00       2.17       29.0
16:26             196        0.0         37       32.7      255.0       32.7       32.8       16.1     1013.0       33.0       18.9        0.0        0.0        0.0       0.00      117.4       0.00       2.17       29.0
16:28             196        0.0         37       32.7      255.0       32.7       32.7       16.1     1013.0       33.0       18.9        0.0        0.0        0.0       0.00      117.7       0.00       2.17       29.0
16:30             196        0.0         37       32.6      255.0       32.6       32.6       16.0     1013.0       33.0       18.9        0.0        0.0        0.0       0.00      118.1       0.00       2.17       29.0
16:32             196        0.0         38       32.6      255.0       32.6       32.7       16.4     1012.9       33.0       18.9        0.0        0.0        0.0       0.00      118.8       0.00       2.28       29.0
16:34             196        0.0         39       32.4      255.0       32.4       32.7       16.7     1012.9       33.0       18.9        0.0        0.0        0.0       0.00      119.5       0.00       2.28       29.0
16:36             204        0.0         39       32.2      255.0       32.2       32.4       16.5     1013.0       33.0       18.9        0.0        0.0        0.0       0.00      120.3       0.00       2.28       29.0
16:38             234        0.0         40       31.9      255.0       31.9       32.2       16.7     1013.0       33.0       18.9        0.0        0.0        0.0       0.00      121.1       0.00       2.28       29.0
16:40             221        0.0         40       31.7      255.0       31.7       31.9       16.5     1013.0       33.0       18.9        0.0        0.0        0.0       0.00      122.1       0.00       2.28       29.0
16:42             214        0.0         41       31.6      255.0       31.6       31.9       16.8     1013.1       33.0       18.9        0.0        0.0        0.0       0.00      123.0       0.00       2.28       29.0
16:44             216        0.0         41       31.5      255.0       31.5       31.7       16.7     1013.1       33.0       18.9        0.0        0.0        0.0       0.00      124.1       0.00       2.28       29.0
16:45             223        0.0         41       31.4      255.0       31.4       31.6       16.6     1013.0       33.0       18.9        0.0        0.0        0.0       0.00      125.0       0.00       2.38       29.0
16:48             225        0.0         41       31.3      255.0       31.3       31.5       16.5     1013.1       33.0       18.9        0.0        0.0        0.0       0.00      125.8       0.00       2.38       29.0
16:50             213        0.0         41       31.2      255.0       31.2       31.4       16.4     1013.0       33.0       18.9        0.0        0.0        0.0       0.00      126.6       0.00       2.38       29.0
16:52             212        0.0         41       31.2      255.0       31.2       31.3       16.4     1013.0       33.0       18.9        0.0        0.0        0.0       0.00      127.5       0.00       2.38       29.0
16:54             220        0.0         41       31.2      255.0       31.2       31.3       16.4     1013.0       33.0       18.9        0.0        0.0        0.0       0.00      128.2       0.00       2.38       29.0
16:56             220        0.0         42       31.1      255.0       31.1       31.4       16.7     1013.0       33.0       18.9        0.0        0.0        0.0       0.00      128.8       0.00       2.38       29.0
16:57             227        0.0         41       31.1      255.0       31.1       31.1       16.3     1013.1       33.0       18.9        0.0        0.0        0.0       0.00      129.8       0.00       2.38       29.0
17:00             250        0.0         41       30.9      255.0       30.9       31.0       16.2     1013.1       33.0       18.9        0.0        0.0        0.0       0.00      130.8       0.00       2.38       29.0
17:02             249        0.0         41       30.8      255.0       30.8       30.8       16.1     1013.1       33.0       18.9        0.0        0.0        0.0       0.00      131.7       0.00       2.48       29.0
17:04             246        0.0         42       30.8      255.0       30.8       31.0       16.4     1013.1       33.0       18.9        0.0        0.0        0.0       0.00      132.4       0.00       2.48       29.0
17:05             246        0.0         42       30.8      255.0       30.8       30.9       16.4     1013.1       33.0       18.9        0.0        0.0        0.0       0.00      133.5       0.00       2.48       29.0
17:08             244        0.0         42       30.7      255.0       30.7       30.8       16.3     1013.0       33.0       18.9        0.0        0.0        0.0       0.00      134.1       0.00       2.48       29.0
17:10             244        0.0         42       30.7      255.0       30.7       30.8       16.3     1013.1       33.0       18.9        0.0        0.0        0.0       0.00      135.0       0.00       2.48       29.0
17:12             238        0.0         42       30.7      255.0       30.7       30.8       16.3     1013.0       33.0       18.9        0.0        0.0        0.0       0.00      135.7       0.00       2.48       29.0
17:14             238        0.0         42       30.7      255.0       30.7       30.8       16.3     1013.0       33.0       18.9        0.0        0.0        0.0       0.00      136.4       0.00       2.48       29.0
17:16             237        0.0         42       30.6      255.0       30.6       30.7       16.2     1013.0       33.0       18.9        0.0        0.0        0.0       0.00      137.3       0.00       2.57       29.0
17:18             233        0.0         42       30.6      255.0       30.6       30.6       16.2     1013.0       33.0       18.9        0.0        0.0        0.0       0.00      138.3       0.00       2.57       29.0
17:20             248        0.0         42       30.5      255.0       30.5       30.6       16.1     1013.1       33.0       18.9        0.0        0.0        0.0       0.00      139.3       0.00       2.57       29.0
17:22             242        0.0         42       30.4      255.0       30.4       30.4       16.0     1013.0       33.0       18.9        0.0        0.0        0.0       0.00      140.2       0.00       2.57       29.0
17:24             243        0.0         42       30.4      255.0       30.4       30.4       16.0     1013.1       33.0       18.9        0.0        0.0        0.0       0.00      141.1       0.00       2.57       29.0
17:26             249        0.0         42       30.3      255.0       30.3       30.3       15.9     1013.0       33.0       18.9        0.0        0.0        0.0       0.00      141.9       0.00       2.57       29.0
17:28             249        0.0         42       30.2      255.0       30.2       30.2       15.9     1013.0       33.0       18.9        0.0        0.0        0.0       0.00      142.6       0.00       2.57       29.0
17:30             252        0.0         42       30.2      255.0       30.2       30.2       15.9     1013.1       33.0       18.9        0.0        0.0        0.0       0.00      143.3       0.00       2.57       29.0
17:32             254        0.0         42       30.1      255.0       30.1       30.1       15.8     1013.1       33.0       18.9        0.0        0.0        0.0       0.00      144.2       0.00       2.65       29.0
17:34             247        0.0         42       30.1      255.0       30.1       30.0       15.7     1013.1       33.0       18.9        0.0        0.0        0.0       0.00      145.1       0.00       2.65       29.0
17:36             252        0.0         42       30.0      255.0       30.0       29.9       15.7     1013.1       33.0       18.9        0.0        0.0        0.0       0.00      146.2       0.00       2.65       29.0
17:38             248        0.0         42       29.9      255.0       29.9       29.8       15.6     1013.1       33.0       18.9        0.0        0.0        0.0       0.00      147.0       0.00       2.65       29.0
17:40             244        0.0         42       29.8      255.0       29.8       29.7       15.6     1013.1       33.0       18.9        0.0        0.0        0.0       0.00      147.9       0.00       2.65       29.0
17:42             251        0.0         42       29.8      255.0       29.8       29.7       15.5     1013.0       33.0       18.9        0.0        0.0        0.0       0.00      148.8       0.00       2.65       29.0
17:44             243        0.0         42       29.7      255.0       29.7       29.6       15.5     1013.0       33.0       18.9        0.0        0.0        0.0       0.00      149.8       0.00       2.65       29.0
17:46             246        0.0         43       29.6      255.0       29.6       29.6       15.7     1012.9       33.0       18.9        0.0        0.0        0.0       0.00      150.7       0.00       2.73       29.0
17:48             241        0.0         43       29.6      255.0       29.6       29.5       15.7     1013.0       33.0       18.9        0.0        0.0        0.0       0.00      151.3       0.00       2.73       29.0
17:50             248        0.0         43       29.5      255.0       29.5       29.5       15.6     1013.1       33.0       18.9        0.0        0.0        0.0       0.00      151.9       0.00       2.73       29.0
17:52             247        0.0         43       29.4      255.0       29.4       29.4       15.6     1013.0       33.0       18.9        0.0        0.0        0.0       0.00      152.7       0.00       2.73       29.0
17:54             236        0.0         43       29.4      255.0       29.4       29.4       15.6     1012.9       33.0       18.9        0.0        0.0        0.0       0.00      153.3       0.00       2.73       29.0
17:55             245        0.0         44       29.4      255.0       29.4       29.4       15.9     1012.9       33.0       18.9        0.0        0.0        0.0       0.00      153.9       0.00       2.73       29.0
17:58             240        0.0         44       29.3      255.0       29.3       29.3       15.8     1013.0       33.0       18.9        0.0        0.0        0.0       0.00      154.6       0.00       2.73       29.0
18:00             237        0.0         44       29.2      255.0       29.2       29.2       15.7     1013.1       33.0       18.9        0.0        0.0        0.0       0.00      155.3       0.00       2.73       29.0
18:02             234        0.0         44       29.2      255.0       29.2       29.2       15.7     1013.0       33.0       18.9        0.0        0.0        0.0       0.00      155.9       0.00       2.81       29.0
18:04             244        0.0         44       29.1      255.0       29.1       29.1       15.6     1013.0       33.0       18.9        0.0        0.0        0.0       0.00      156.5       0.00       2.81       29.0
18:06             246        0.0         44       29.0      255.0       29.0       29.0       15.5     1013.0       33.0       18.9        0.0        0.0        0.0       0.00      157.1       0.00       2.81       29.0
18:07             251        0.0         44       28.9      255.0       28.9       28.9       15.4     1013.1       33.0       18.9        0.0        0.0        0.0       0.00      157.9       0.00       2.81       29.0
18:10             252        0.0         45       28.8      255.0       28.8       28.9       15.7     1013.1       33.0       18.9        0.0        0.0        0.0       0.00      158.6       0.00       2.81       29.0
18:12             250        0.0         45       28.8      255.0       28.8       28.8       15.7     1013.0       33.0       18.9        0.0        0.0        0.0       0.00      159.3       0.00       2.81       29.0
18:13             252        0.0         45       28.7      255.0       28.7       28.7       15.6     1013.1       33.0       18.9        0.0        0.0        0.0       0.00      159.9       0.00       2.81       29.0
18:16             246        0.0         46       28.6      255.0       28.6       28.8       15.9     1013.1       33.0       18.9        0.0        0.0        0.0       0.00      160.5       0.00       2.88       29.0
18:18             242        0.0         46       28.6      255.0       28.6       28.7       15.8     1013.1       33.0       18.9        0.0        0.0        0.0       0.00      161.1       0.00       2.88       29.0
18:20             243        0.0         46       28.5      255.0       28.5       28.6       15.8     1013.0       33.0       18.9        0.0        0.0        0.0       0.00      161.8       0.00       2.88       29.0
18:22             248        0.0         46       28.4      255.0       28.4       28.5       15.7     1013.1       33.0       18.9        0.0        0.0        0.0       0.00      162.5       0.00       2.88       29.0
18:24             257        0.0         47       28.4      255.0       28.4       28.6       16.0     1013.1       33.0       18.9        0.0        0.0        0.0       0.00      163.2       0.00       2.88       29.0
18:26             250        0.0         47       28.3      255.0       28.3       28.5       16.0     1013.2       33.0       18.9        0.0        0.0        0.0       0.00      164.0       0.00       2.88       29.0
18:28             249        0.0         47       28.3      255.0       28.3       28.5       15.9     1013.1       33.0       18.9        0.0        0.0        0.0       0.00      164.7       0.00       2.88       29.0
18:30             250        0.0         47       28.2      255.0       28.2       28.4       15.9     1013.1       33.0       18.9        0.0        0.0        0.0       0.00      165.3       0.00       2.88       29.0
18:32             247        0.0         47       28.1      255.0       28.1       28.3       15.7     1013.1       33.0       18.9        0.0        0.0        0.0       0.00      165.9       0.00       2.94       29.0
18:34             250        0.0         48       28.1      255.0       28.1       28.3       16.0     1013.1       33.0       18.9        0.0        0.0        0.0       0.00      166.3       0.00       2.94       29.0
18:36             252        0.0         48       28.0      255.0       28.0       28.3       16.0     1013.1       33.0       18.9        0.0        0.0        0.0       0.00      166.9       0.00       2.94       29.0
18:38             252        0.0         48       27.9      255.0       27.9       28.2       15.9     1013.1       33.0       18.9        0.0        0.0        0.0       0.00      167.5       0.00       2.94       29.0
18:40             259        0.0         49       27.8      255.0       27.8       28.2       16.1     1013.1       33.0       18.9        0.0        0.0        0.0       0.00      168.3       0.00       2.94       29.0
18:42             250        0.0         49       27.8      255.0       27.8       28.1       16.1     1013.1       33.0       18.9        0.0        0.0        0.0       0.00      168.9       0.00       2.94       29.0
18:43             252        0.0         49       27.7      255.0       27.7       28.1       16.0     1013.2       33.0       18.9        0.0        0.0        0.0       0.00      169.5       0.00       2.94       29.0
18:46             259        0.0         49       27.7      255.0       27.7       28.0       16.0     1013.1       33.0       18.9        0.0        0.0        0.0       0.00      170.1       0.00       3.00       29.0
18:48             259        0.0         50       27.6      255.0       27.6       28.0       16.3     1013.1       33.0       18.9        0.0        0.0        0.0       0.00      170.6       0.00       3.00       29.0
18:50             252        0.0         50       27.5      255.0       27.5       27.9       16.2     1013.1       33.0       18.9        0.0        0.0        0.0       0.00      171.1       0.00       3.00       29.0
18:52             258        0.0         50       27.4      255.0       27.4       27.9       16.1     1013.1       33.0       18.9        0.0        0.0        0.0       0.00      171.8       0.00       3.00       29.0
18:54             252        0.0         50       27.4      255.0       27.4       27.8       16.1     1013.1       33.0       18.9        0.0        0.0        0.0       0.00      172.4       0.00       3.00       29.0
18:56             252        0.0         51       27.3      255.0       27.3       27.8       16.3     1013.2       33.0       18.9        0.0        0.0        0.0       0.00      173.0       0.00       3.00       29.0
18:57             248        0.0         51       27.3      255.0       27.3       27.8       16.3     1013.2       33.0       18.9        0.0        0.0        0.0       0.00      173.7       0.00       3.00       29.0
19:00             256        0.0         51       27.2      255.0       27.2       27.7       16.2     1013.2       33.0       18.9        0.0        0.0        0.0       0.00      174.4       0.00       3.00       29.0
19:02             257        0.0         51       27.1      255.0       27.1       27.6       16.1     1013.3       33.0       18.9        0.0        0.0        0.0       0.00      175.0       0.00       3.05       29.0
19:03             263        0.0         51       27.1      255.0       27.1       27.5       16.1     1013.4       33.0       18.9        0.0        0.0        0.0       0.00      175.6       0.00       3.05       29.0
19:06             254        0.0         51       27.0      255.0       27.0       27.5       16.0     1013.4       33.0       18.9        0.0        0.0        0.0       0.00      176.5       0.00       3.05       29.0
19:08             263        0.0         52       26.9      255.0       26.9       27.5       16.3     1013.5       33.0       18.9        0.0        0.0        0.0       0.00      177.1       0.00       3.05       29.0
19:10             257        0.0         52       26.9      255.0       26.9       27.4       16.2     1013.6       33.0       18.9        0.0        0.0        0.0       0.00      177.8       0.00       3.05       29.0
19:12             271        0.0         52       26.8      255.0       26.8       27.4       16.2     1013.7       33.0       18.9        0.0        0.0        0.0       0.00      178.4       0.00       3.05       29.0
19:14             271        0.0         52       26.8      255.0       26.8       27.3       16.1     1013.6       33.0       18.9        0.0        0.0        0.0       0.00      179.0       0.00       3.05       29.0
19:16             269        0.0         52       26.7      255.0       26.7       27.3       16.1     1013.7       33.0       18.9        0.0        0.0        0.0       0.00      179.7       0.00       3.10       29.0
19:17             271        0.0         52       26.7      255.0       26.7       27.2       16.0     1013.7       33.0       18.9        0.0        0.0        0.0       0.00      180.4       0.00       3.10       29.0
19:20             276        0.0         52       26.6      255.0       26.6       27.2       16.0     1013.6       33.0       18.9        0.0        0.0        0.0       0.00      181.1       0.00       3.10       29.0
19:22             271        0.0         52       26.6      255.0       26.6       27.2       16.0     1013.7       33.0       18.9        0.0        0.0        0.0       0.00      181.8       0.00       3.10       29.0
19:24             262        0.0         52       26.6      255.0       26.6       27.1       15.9     1013.7       33.0       18.9        0.0        0.0        0.0       0.00      182.5       0.00       3.10       29.0
19:26             259        0.0         52       26.6      255.0       26.6       27.1       15.9     1013.8       33.0       18.9        0.0        0.0        0.0       0.00      183.0       0.00       3.10       29.0
19:27             266        0.0         52       26.5      255.0       26.5       27.1       15.9     1013.8       33.0       18.9        0.0        0.0        0.0       0.00      183.8       0.00       3.10       29.0
19:30             258        0.0         52       26.5      255.0       26.5       27.1       15.9     1013.7       33.0       18.9        0.0        0.0        0.0       0.00      184.5       0.00       3.10       29.0
19:32             261        0.0         52       26.4      255.0       26.4       27.0       15.8     1013.8       33.0       18.9        0.0        0.0        0.0       0.00      185.1       0.00       3.15       29.0
19:34             257        0.0         52       26.4      255.0       26.4       26.9       15.8     1013.8       33.0       18.9        0.0        0.0        0.0       0.00      185.8       0.00       3.15       29.0
19:36             252        0.0         53       26.4      255.0       26.4       27.0       16.0     1013.8       33.0       18.9        0.0        0.0        0.0       0.00      186.4       0.00       3.15       29.0
19:38             252        0.0         53       26.3      255.0       26.3       26.9       16.0     1013.8       33.0       18.9        0.0        0.0        0.0       0.00      187.0       0.00       3.15       29.0
19:40             251        0.0         53       26.3      255.0       26.3       26.9       15.9     1013.8       33.0       18.9        0.0        0.0        0.0       0.00      187.5       0.00       3.15       29.0
19:42             250        0.0         53       26.2      255.0       26.2       26.8       15.9     1013.8       33.0       18.9        0.0        0.0        0.0       0.00      188.0       0.00       3.15       29.0
19:44             248        0.0         53       26.1      255.0       26.1       26.7       15.8     1013.8       33.0       18.9        0.0        0.0        0.0       0.00      188.5       0.00       3.15       29.0
19:46             253        0.0         53       26.1      255.0       26.1       26.7       15.7     1013.8       33.0       18.9        0.0        0.0        0.0       0.00      189.1       0.00       3.19       29.0
19:47             257        0.0         54       26.0      255.0       26.0       26.7       16.0     1013.9       33.0       18.9        0.0        0.0        0.0       0.00      189.8       0.00       3.19       29.0
19:50             254        0.0         54       25.9      255.0       25.9       26.5       15.9     1013.9       33.0       18.9        0.0        0.0        0.0       0.00      190.4       0.00       3.19       29.0
19:52             254        0.0         54       25.8      255.0       25.8       26.5       15.8     1013.9       33.0       18.9        0.0        0.0        0.0       0.00      191.0       0.00       3.19       29.0
19:54             251        0.0         54       25.8      255.0       25.8       26.4       15.8     1014.0       33.0       18.9        0.0        0.0        0.0       0.00      191.6       0.00       3.19       29.0
19:56             254        0.0         55       25.7      255.0       25.7       26.4       16.0     1013.9       33.0       18.9        0.0        0.0        0.0       0.00      192.4       0.00       3.19       29.0
19:58             252        0.0         55       25.7      255.0       25.7       26.4       16.0     1014.0       33.0       18.9        0.0        0.0        0.0       0.00      192.9       0.00       3.19       29.0
20:00             252        0.0         55       25.7      255.0       25.7       26.4       16.0     1014.0       33.0       18.9        0.0        0.0        0.0       0.00      193.4       0.00       3.19       29.0
20:02             250        0.0         55       25.6      255.0       25.6       26.3       15.9     1014.0       33.0       18.9        0.0        0.0        0.0       0.00      193.9       0.00       3.23       29.0
20:04             256        0.0         56       25.6      255.0       25.6       26.3       16.1     1014.0       33.0       18.9        0.0        0.0        0.0       0.00      194.5       0.00       3.23       29.0
20:06             259        0.0         56       25.5      255.0       25.5       26.3       16.1     1014.0       33.0       18.9        0.0        0.0        0.0       0.00      195.2       0.00       3.23       29.0
20:08             259        0.0         56       25.5      255.0       25.5       26.3       16.1     1014.0       33.0       18.9        0.0        0.0        0.0       0.00      195.7       0.00       3.23       29.0
20:10             261        0.0         57       25.4      255.0       25.4       26.3       16.3     1014.0       33.0       18.9        0.0        0.0        0.0       0.00      196.2       0.00       3.23       29.0
20:12             260        0.0         57       25.4      255.0       25.4       26.3       16.3     1014.0       33.0       18.9        0.0        0.0        0.0       0.00      196.8       0.00       3.23       29.0
20:14             267        0.0         57       25.4      255.0       25.4       26.2       16.3     1014.1       33.0       18.9        0.0        0.0        0.0       0.00      197.4       0.00       3.23       29.0
20:16             275        0.0         57       25.4      255.0       25.4       26.2       16.3     1014.0       33.0       18.9        0.0        0.0        0.0       0.00      198.1       0.00       3.27       29.0
20:18             268        0.0         57       25.3      255.0       25.3       26.2       16.2     1014.1       33.0       18.9        0.0        0.0        0.0       0.00      198.7       0.00       3.27       29.0
20:19             267        0.0         58       25.3      255.0       25.3       26.2       16.5     1014.1       33.0       18.9        0.0        0.0        0.0       0.00      199.4       0.00       3.27       29.0
20:22             265        0.0         58       25.3      255.0       25.3       26.2       16.4     1014.1       33.0       18.9        0.0        0.0        0.0       0.00      200.1       0.00       3.27       29.0
20:24             275        0.0         59       25.2      255.0       25.2       26.2       16.6     1014.1       33.0       18.9        0.0        0.0        0.0       0.00      201.0       0.00       3.27       29.0
20:26             259        0.0         59       25.1      255.0       25.1       26.1       16.5     1014.1       33.0       18.9        0.0        0.0        0.0       0.00      201.7       0.00       3.27       29.0
20:28             272        0.0         59       25.1      255.0       25.1       26.0       16.5     1014.1       33.0       18.9        0.0        0.0        0.0       0.00      202.5       0.00       3.27       29.0
20:30             271        0.0         59       25.0      255.0       25.0       25.9       16.4     1014.2       33.0       18.9        0.0        0.0        0.0       0.00      203.1       0.00       3.27       29.0
20:32             263        0.0         59       24.9      255.0       24.9       25.9       16.4     1014.1       33.0       18.9        0.0        0.0        0.0       0.00      203.8       0.00       3.30       29.0
20:34             276        0.0         60       24.9      255.0       24.9       25.9       16.7     1014.2       33.0       18.9        0.0        0.0        0.0       0.00      204.5       0.00       3.30       29.0
20:36             265        0.0         60       24.9      255.0       24.9       25.9       16.6     1014.1       33.0       18.9        0.0        0.0        0.0       0.00      205.2       0.00       3.30       29.0
20:38             269        0.0         60       24.8      255.0       24.8       25.8       16.5     1014.1       33.0       18.9        0.0        0.0        0.0       0.00      205.8       0.00       3.30       29.0
20:40             267        0.0         60       24.8      255.0       24.8       25.8       16.5     1014.1       33.0       18.9        0.0        0.0        0.0       0.00      206.5       0.00       3.30       29.0
20:42             265        0.0         60       24.8      255.0       24.8       25.8       16.5     1014.2       33.0       18.9        0.0        0.0        0.0       0.00      207.2       0.00       3.30       29.0
20:43             276        0.0         60       24.8      255.0       24.8       25.8       16.5     1014.3       33.0       18.9        0.0        0.0        0.0       0.00      207.9       0.00       3.30       29.0
20:46             277        0.0         59       24.8      255.0       24.8       25.7       16.2     1014.2       33.0       18.9        0.0        0.0        0.0       0.00      209.0       0.00       3.33       29.0
20:48             269        0.0         60       24.8      255.0       24.8       25.8       16.5     1014.3       33.0       18.9        0.0        0.0        0.0       0.00      210.0       0.00       3.33       29.0
20:50             273        0.0         60       24.8      255.0       24.8       25.8       16.5     1014.2       33.0       18.9        0.0        0.0        0.0       0.00      210.7       0.00       3.33       29.0
20:52             277        0.0         60       24.7      255.0       24.7       25.7       16.4     1014.2       33.0       18.9        0.0        0.0        0.0       0.00      211.4       0.00       3.33       29.0
20:54             266        0.0         60       24.7      255.0       24.7       25.7       16.4     1014.3       33.0       18.9        0.0        0.0        0.0       0.00      212.0       0.00       3.33       29.0
20:56             280        0.0         60       24.7      255.0       24.7       25.7       16.4     1014.3       33.0       18.9        0.0        0.0        0.0       0.00      212.6       0.00       3.33       29.0
20:58             289        0.0         61       24.7      255.0       24.7       25.7       16.7     1014.3       33.0       18.9        0.0        0.0        0.0       0.00      213.2       0.00       3.33       29.0
21:00             281        0.0         61       24.6      255.0       24.6       25.7       16.6     1014.4       33.0       18.9        0.0        0.0        0.0       0.00      214.0       0.00       3.33       29.0
21:02             275        0.0         61       24.6      255.0       24.6       25.7       16.6     1014.3       33.0       18.9        0.0        0.0        0.0       0.00      214.7       0.00       3.35       29.0
21:04             284        0.0         62       24.6      255.0       24.6       25.7       16.8     1014.3       33.0       18.9        0.0        0.0        0.0       0.00      215.4       0.00       3.35       29.0
21:06             309        0.0         62       24.5      255.0       24.5       25.6       16.7     1014.3       33.0       18.9        0.0        0.0        0.0       0.00      216.0       0.00       3.35       29.0
21:07             305        0.0         62       24.4      255.0       24.4       25.6       16.7     1014.4       33.0       18.9        0.0        0.0        0.0       0.00      216.4       0.00       3.35       29.0
21:10             294        0.0         62       24.4      255.0       24.4       25.6       16.7     1014.2       33.0       18.9        0.0        0.0        0.0       0.00      216.9       0.00       3.35       29.0
21:12             284        0.0         62       24.4      255.0       24.4       25.5       16.6     1014.3       33.0       18.9        0.0        0.0        0.0       0.00      217.6       0.00       3.35       29.0
21:14             288        0.0         62       24.3      255.0       24.3       25.5       16.6     1014.4       33.0       18.9        0.0        0.0        0.0       0.00      218.0       0.00       3.35       29.0
21:16             286        0.0         63       24.3      255.0       24.3       25.5       16.8     1014.3       33.0       18.9        0.0        0.0        0.0       0.00      218.6       0.00       3.38       29.0
21:18             295        0.0         63       24.3      255.0       24.3       25.5       16.8     1014.4       33.0       18.9        0.0        0.0        0.0       0.00      219.2       0.00       3.38       29.0
21:20             298        0.0         63       24.2      255.0       24.2       25.4       16.7     1014.3       33.0       18.9        0.0        0.0        0.0       0.00      219.8       0.00       3.38       29.0
21:21             294        0.0         63       24.2      255.0       24.2       25.4       16.7     1014.2       33.0       18.9        0.0        0.0        0.0       0.00      220.2       0.00       3.38       29.0
21:24             300        0.0         63       24.2      255.0       24.2       25.4       16.7     1014.3       33.0       18.9        0.0        0.0        0.0       0.00      220.6       0.00       3.38       29.0
21:25             287        0.0         63       24.2      255.0       24.2       25.4       16.7     1014.2       33.0       18.9        0.0        0.0        0.0       0.00      221.2       0.00       3.38       29.0
21:28             290        0.0         63       24.2      255.0       24.2       25.4       16.7     1014.2       33.0       18.9        0.0        0.0        0.0       0.00      221.7       0.00       3.38       29.0
21:30             294        0.0         62       24.2      255.0       24.2       25.3       16.4     1014.2       33.0       18.9        0.0        0.0        0.0       0.00      222.1       0.00       3.38       29.0
21:32             293        0.0         62       24.2      255.0       24.2       25.3       16.4     1014.3       33.0       18.9        0.0        0.0        0.0       0.00      222.6       0.00       3.40       29.0
21:34             294        0.0         62       24.2      255.0       24.2       25.3       16.5     1014.2       33.0       18.9        0.0        0.0        0.0       0.00      223.0       0.00       3.40       29.0
21:36             296        0.0         61       24.2      255.0       24.2       25.3       16.2     1014.2       33.0       18.9        0.0        0.0        0.0       0.00      223.5       0.00       3.40       29.0
21:38             301        0.0         61       24.3      255.0       24.3       25.3       16.3     1014.3       33.0       18.9        0.0        0.0        0.0       0.00      224.0       0.00       3.40       29.0
21:39             304        0.0         61       24.3      255.0       24.3       25.4       16.3     1014.2       33.0       18.9        0.0        0.0        0.0       0.00      224.5       0.00       3.40       29.0
21:42             302        0.0         61       24.4      255.0       24.4       25.5       16.4     1014.2       33.0       18.9        0.0        0.0        0.0       0.00      225.1       0.00       3.40       29.0
21:43             306        0.0         60       24.4      255.0       24.4       25.4       16.1     1014.2       33.0       18.9        0.0        0.0        0.0       0.00      225.6       0.00       3.40       29.0
21:46             313        0.0         60       24.4      255.0       24.4       25.4       16.1     1014.2       33.0       18.9        0.0        0.0        0.0       0.00      226.1       0.00       3.43       29.0
21:48             314        0.0         60       24.4      255.0       24.4       25.4       16.1     1014.2       33.0       18.9        0.0        0.0        0.0       0.00      226.5       0.00       3.43       29.0
21:50             314        0.0         60       24.4      255.0       24.4       25.4       16.2     1014.2       33.0       18.9        0.0        0.0        0.0       0.00      227.0       0.00       3.43       29.0
21:52             308        0.0         59       24.4      255.0       24.4       25.4       15.9     1014.2       33.0       18.9        0.0        0.0        0.0       0.00      227.5       0.00       3.43       29.0
21:54             309        0.0         59       24.4      255.0       24.4       25.4       15.9     1014.2       33.0       18.9        0.0        0.0        0.0       0.00      228.0       0.00       3.43       29.0
21:56             308        0.0         59       24.4      255.0       24.4       25.4       15.9     1014.2       33.0       18.9        0.0        0.0        0.0       0.00      228.4       0.00       3.43       29.0
21:58             310        0.0         59       24.5      255.0       24.5       25.4       16.0     1014.2       33.0       18.9        0.0        0.0        0.0       0.00      228.8       0.00       3.43       29.0
22:00             311        0.0         58       24.5      255.0       24.5       25.4       15.7     1014.2       33.0       18.9        0.0        0.0        0.0       0.00      229.2       0.00       3.43       29.0
22:02             310        0.0         58       24.5      255.0       24.5       25.4       15.7     1014.3       33.0       18.9        0.0        0.0        0.0       0.00      229.6       0.00       3.45       29.0
22:03             308        0.0         57       24.5      255.0       24.5       25.3       15.4     1014.2       33.0       18.9        0.0        0.0        0.0       0.00      229.9       0.00       3.45       29.0
22:06             309        0.0         58       24.5      255.0       24.5       25.4       15.7     1014.2       33.0       18.9        0.0        0.0        0.0       0.00      230.4       0.00       3.45       29.0
22:08             309        0.0         57       24.5      255.0       24.5       25.3       15.4     1014.2       33.0       18.9        0.0        0.0        0.0       0.00      230.7       0.00       3.45       29.0
22:10             309        0.0         57       24.5      255.0       24.5       25.3       15.4     1014.2       33.0       18.9        0.0        0.0        0.0       0.00      230.9       0.00       3.45       29.0
22:11             309        0.0         57       24.5      255.0       24.5       25.3       15.4     1014.2       33.0       18.9        0.0        0.0        0.0       0.00      231.2       0.00       3.45       29.0
22:14             309        0.0         57       24.5      255.0       24.5       25.3       15.4     1014.2       33.0       18.9        0.0        0.0        0.0       0.00      231.5       0.00       3.45       29.0
22:16             309        0.0         56       24.5      255.0       24.5       25.3       15.2     1014.3       33.0       18.9        0.0        0.0        0.0       0.00      231.8       0.00       3.48       29.0
22:17             309        0.0         56       24.5      255.0       24.5       25.3       15.2     1014.2       33.0       18.9        0.0        0.0        0.0       0.00      232.1       0.00       3.48       29.0
22:20             309        0.0         56       24.5      255.0       24.5       25.3       15.2     1014.2       33.0       18.9        0.0        0.0        0.0       0.00      232.3       0.00       3.48       29.0
22:22             309        0.0         56       24.4      255.0       24.4       25.2       15.1     1014.2       33.0       18.9        0.0        0.0        0.0       0.00      232.6       0.00       3.48       29.0
22:23             309        0.0         55       24.5      255.0       24.5       25.2       14.9     1014.2       33.0       18.9        0.0        0.0        0.0       0.00      232.9       0.00       3.48       29.0
22:25             309        0.0         53       24.5      255.0       24.5       25.1       14.3     1014.2       33.0       18.9        0.0        0.0        0.0       0.00      233.2       0.00       3.48       29.0
22:28             311        0.0         54       24.6      255.0       24.6       25.2       14.6     1014.3       33.0       18.9        0.0        0.0        0.0       0.00      233.4       0.00       3.48       29.0
22:30             311        0.0         52       24.6      255.0       24.6       25.1       14.1     1014.3       33.0       18.9        0.0        0.0        0.0       0.00      233.7       0.00       3.48       29.0
22:32             312        0.0         52       24.6      255.0       24.6       25.2       14.1     1014.3       33.0       18.9        0.0        0.0        0.0       0.00      234.0       0.00       3.50       29.0
22:34             313        0.0         52       24.7      255.0       24.7       25.2       14.2     1014.3       33.0       18.9        0.0        0.0        0.0       0.00      234.3       0.00       3.50       29.0
22:35             313        0.0         52       24.7      255.0       24.7       25.2       14.2     1014.3       33.0       18.9        0.0        0.0        0.0       0.00      234.5       0.00       3.50       29.0
22:38             313        0.0         51       24.7      255.0       24.7       25.2       13.9     1014.4       33.0       18.9        0.0        0.0        0.0       0.00      234.8       0.00       3.50       29.0
22:40             313        0.0         51       24.7      255.0       24.7       25.2       13.9     1014.5       33.0       18.9        0.0        0.0        0.0       0.00      235.1       0.00       3.50       29.0
22:42             313        0.0         51       24.7      255.0       24.7       25.2       13.9     1014.4       33.0       18.9        0.0        0.0        0.0       0.00      235.4       0.00       3.50       29.0
22:44             314        0.0         51       24.7      255.0       24.7       25.2       13.9     1014.4       33.0       18.9        0.0        0.0        0.0       0.00      235.7       0.00       3.50       29.0
22:46             314        0.0         50       24.7      255.0       24.7       25.1       13.6     1014.3       33.0       18.9        0.0        0.0        0.0       0.00      236.1       0.00       3.53       29.0
22:48             314        0.0         50       24.7      255.0       24.7       25.1       13.6     1014.3       33.0       18.9        0.0        0.0        0.0       0.00      236.3       0.00       3.53       29.0
22:50             314        0.0         50       24.7      255.0       24.7       25.1       13.6     1014.4       33.0       18.9        0.0        0.0        0.0       0.00      236.6       0.00       3.53       29.0
22:52             314        0.0         49       24.7      255.0       24.7       25.1       13.2     1014.3       33.0       18.9        0.0        0.0        0.0       0.00      236.8       0.00       3.53       29.0
22:53             317        0.0         47       24.6      255.0       24.6       24.9       12.6     1014.4       33.0       18.9        0.0        0.0        0.0       0.00      237.1       0.00       3.53       29.0
22:55             317        0.0         47       24.7      255.0       24.7       25.0       12.6     1014.3       33.0       18.9        0.0        0.0        0.0       0.00      237.4       0.00       3.53       29.0
22:58             319        0.0         46       24.7      255.0       24.7       25.0       12.3     1014.3       33.0       18.9        0.0        0.0        0.0       0.00      237.7       0.00       3.53       29.0
23:00             319        0.0         46       24.8      255.0       24.8       25.0       12.4     1014.4       33.0       18.9        0.0        0.0        0.0       0.00      238.0       0.00       3.53       29.0
23:02             319        0.0         46       24.8      255.0       24.8       25.1       12.4     1014.3       33.0       18.9        0.0        0.0        0.0       0.00      238.3       0.00       3.56       29.0
23:04             320        0.0         45       24.8      255.0       24.8       25.0       12.1     1014.3       33.0       18.9        0.0        0.0        0.0       0.00      238.6       0.00       3.56       29.0
23:06             321        0.0         45       24.9      255.0       24.9       25.1       12.2     1014.3       33.0       18.9        0.0        0.0        0.0       0.00      238.9       0.00       3.56       29.0
23:07             321        0.0         45       24.9      255.0       24.9       25.1       12.2     1014.3       33.0       18.9        0.0        0.0        0.0       0.00      239.2       0.00       3.56       29.0
23:10             321        0.0         45       24.9      255.0       24.9       25.1       12.2     1014.3       33.0       18.9        0.0        0.0        0.0       0.00      239.4       0.00       3.56       29.0
23:12             321        0.0         45       24.9      255.0       24.9       25.1       12.2     1014.3       33.0       18.9        0.0        0.0        0.0       0.00      239.9       0.00       3.56       29.0
23:14             321        0.0         45       24.8      255.0       24.8       25.0       12.1     1014.2       33.0       18.9        0.0        0.0        0.0       0.00      240.4       0.00       3.56       29.0
23:16             321        0.0         45       24.8      255.0       24.8       25.0       12.1     1014.3       33.0       18.9        0.0        0.0        0.0       0.00      240.8       0.00       3.59       29.0
23:18             321        0.0         45       24.8      255.0       24.8       25.0       12.1     1014.3       33.0       18.9        0.0        0.0        0.0       0.00      241.3       0.00       3.59       29.0
23:19             321        0.0         45       24.8      255.0       24.8       25.0       12.1     1014.3       33.0       18.9        0.0        0.0        0.0       0.00      241.7       0.00       3.59       29.0
23:22             321        0.0         45       24.7      255.0       24.7       24.9       12.0     1014.3       33.0       18.9        0.0        0.0        0.0       0.00      241.9       0.00       3.59       29.0
23:24             321        0.0         46       24.7      255.0       24.7       25.0       12.3     1014.3       33.0       18.9        0.0        0.0        0.0       0.00      242.2       0.00       3.59       29.0
23:25             321        0.0         47       24.7      255.0       24.7       25.0       12.7     1014.3       33.0       18.9        0.0        0.0        0.0       0.00      242.4       0.00       3.59       29.0
23:28             321        0.0         48       24.6      255.0       24.6       25.0       12.9     1014.3       33.0       18.9        0.0        0.0        0.0       0.00      242.5       0.00       3.59       29.0
23:30             321        0.0         49       24.6      255.0       24.6       24.9       13.1     1014.3       33.0       18.9        0.0        0.0        0.0       0.00      242.8       0.00       3.59       29.0
23:32             321        0.0         49       24.5      255.0       24.5       24.9       13.1     1014.3       33.0       18.9        0.0        0.0        0.0       0.00      243.0       0.00       3.62       29.0
23:34             321        0.0         51       24.4      255.0       24.4       24.9       13.7     1014.3       33.0       18.9        0.0        0.0        0.0       0.00      243.2       0.00       3.62       29.0
23:36             321        0.0         53       24.3      255.0       24.3       24.9       14.1     1014.3       33.0       18.9        0.0        0.0        0.0       0.00      243.4       0.00       3.62       29.0
23:38             321        0.0         54       24.3      255.0       24.3       24.9       14.4     1014.3       33.0       18.9        0.0        0.0        0.0       0.00      243.5       0.00       3.62       29.0
23:39             321        0.0         54       24.2      255.0       24.2       24.8       14.3     1014.3       33.0       18.9        0.0        0.0        0.0       0.00      243.5       0.00       3.62       29.0
23:42             321        0.0         56       24.1      255.0       24.1       24.9       14.8     1014.3       33.0       18.9        0.0        0.0        0.0       0.00      243.6       0.00       3.62       29.0
23:43             321        0.0         57       24.0      255.0       24.0       24.8       15.0     1014.3       33.0       18.9        0.0        0.0        0.0       0.00      243.8       0.00       3.62       29.0
23:46             321        0.0         59       23.8      255.0       23.8       24.8       15.3     1014.3       33.0       18.9        0.0        0.0        0.0       0.00      244.0       0.00       3.64       29.0
23:48             321        0.0         61       23.7      255.0       23.7       24.8       15.8     1014.3       33.0       18.9        0.0        0.0        0.0       0.00      244.1       0.00       3.64       29.0
23:50             321        0.0         62       23.6      255.0       23.6       24.7       15.9     1014.3       33.0       18.9        0.0        0.0        0.0       0.00      244.4       0.00       3.64       29.0
23:52             321        0.0         62       23.4      255.0       23.4       24.5       15.7     1014.3       33.0       18.9        0.0        0.0        0.0       0.00      244.6       0.00       3.64       29.0
23:54             321        0.0         62       23.2      255.0       23.2       24.3       15.5     1014.2       33.0       18.9        0.0        0.0        0.0       0.00      244.9       0.00       3.64       29.0
23:56             321        0.0         62       22.9      255.0       22.9       24.0       15.2     1014.2       33.0       18.9        0.0        0.0        0.0       0.00      245.2       0.00       3.64       29.0
23:58             321        0.0         62       22.8      255.0       22.8       24.0       15.2     1014.3       33.0       18.9        0.0        0.0        0.0       0.00      245.6       0.00       3.64       29.0


Detalle de hace 2 das:

19/9/21
Time         Wind Dir  Wind Gust   Humidity       Temp   Tot Rain Wind Chill Heat Index  Dew Point   Barom SL Temp Out H Temp Out L  DailyRain   HourRain   24HrRain   RainRate   Wind Run   Deg Heat   Deg Cool  MonthRain
                          km/hr          %         C         mm         C         C         C         mb         C         C         mm         mm         mm      mm/hr         km         C         C         mm
0:00              221        0.0         80       19.1      255.0       19.1       21.5       15.6     1014.3       19.1       19.1        0.0        0.0        0.0       0.00      252.2       0.00       2.55       29.0
0:02              221        0.0         81       19.1      255.0       19.1       21.5       15.7     1014.4       19.1       19.1        0.0        0.0        0.0       0.00        0.3       0.00       0.00       29.0
0:04              221        0.0         81       19.1      255.0       19.1       21.5       15.7     1014.4       19.1       19.0        0.0        0.0        0.0       0.00        0.6       0.00       0.00       29.0
0:06              221        0.0         81       19.0      255.0       19.0       21.4       15.7     1014.3       19.1       19.0        0.0        0.0        0.0       0.00        0.8       0.00       0.00       29.0
0:08              221        0.0         81       19.0      255.0       19.0       21.4       15.7     1014.4       19.1       19.0        0.0        0.0        0.0       0.00        1.1       0.00       0.00       29.0
0:09              221        0.0         81       18.9      255.0       18.9       21.4       15.6     1014.4       19.1       18.9        0.0        0.0        0.0       0.00        1.4       0.00       0.00       29.0
0:12              221        0.0         81       18.9      255.0       18.9       21.4       15.6     1014.4       19.1       18.9        0.0        0.0        0.0       0.00        1.7       0.00       0.00       29.0
0:14              221        0.0         81       18.9      255.0       18.9       21.3       15.6     1014.3       19.1       18.9        0.0        0.0        0.0       0.00        2.0       0.00       0.00       29.0
0:16              221        0.0         81       18.9      255.0       18.9       21.3       15.6     1014.3       19.1       18.9        0.0        0.0        0.0       0.00        2.2       0.00       0.00       29.0
0:18              221        0.0         82       18.8      255.0       18.8       21.3       15.7     1014.4       19.1       18.8        0.0        0.0        0.0       0.00        2.4       0.00       0.00       29.0
0:20              221        0.0         82       18.8      255.0       18.8       21.3       15.7     1014.3       19.1       18.8        0.0        0.0        0.0       0.00        2.6       0.00       0.00       29.0
0:22              221        0.0         82       18.8      255.0       18.8       21.3       15.7     1014.4       19.1       18.8        0.0        0.0        0.0       0.00        2.8       0.00       0.00       29.0
0:24              221        0.0         82       18.8      255.0       18.8       21.3       15.6     1014.3       19.1       18.8        0.0        0.0        0.0       0.00        3.0       0.00       0.00       29.0
0:26              221        0.0         82       18.8      255.0       18.8       21.3       15.6     1014.3       19.1       18.8        0.0        0.0        0.0       0.00        3.1       0.00       0.00       29.0
0:27              221        0.0         82       18.7      255.0       18.7       21.2       15.6     1014.3       19.1       18.7        0.0        0.0        0.0       0.00        3.3       0.00       0.00       29.0
0:30              221        0.0         82       18.7      255.0       18.7       21.2       15.6     1014.3       19.1       18.7        0.0        0.0        0.0       0.00        3.4       0.00       0.00       29.0
0:32              221        0.0         82       18.7      255.0       18.7       21.2       15.6     1014.3       19.1       18.7        0.0        0.0        0.0       0.00        3.6       0.00       0.00       29.0
0:34              221        0.0         82       18.7      255.0       18.7       21.2       15.6     1014.3       19.1       18.7        0.0        0.0        0.0       0.00        3.8       0.00       0.00       29.0
0:36              221        0.0         82       18.7      255.0       18.7       21.2       15.6     1014.4       19.1       18.7        0.0        0.0        0.0       0.00        3.9       0.00       0.00       29.0
0:38              221        0.0         82       18.7      255.0       18.7       21.2       15.6     1014.3       19.1       18.7        0.0        0.0        0.0       0.00        4.0       0.00       0.00       29.0
0:40              221        0.0         82       18.7      255.0       18.7       21.2       15.5     1014.2       19.1       18.7        0.0        0.0        0.0       0.00        4.1       0.00       0.00       29.0
0:42              221        0.0         82       18.7      255.0       18.7       21.2       15.6     1014.2       19.1       18.7        0.0        0.0        0.0       0.00        4.1       0.00       0.00       29.0
0:44              221        0.0         82       18.7      255.0       18.7       21.2       15.6     1014.2       19.1       18.7        0.0        0.0        0.0       0.00        4.1       0.00       0.00       29.0
0:46              221        0.0         82       18.7      255.0       18.7       21.2       15.5     1014.2       19.1       18.7        0.0        0.0        0.0       0.00        4.2       0.00       0.00       29.0
0:48              221        0.0         82       18.7      255.0       18.7       21.2       15.5     1014.3       19.1       18.7        0.0        0.0        0.0       0.00        4.3       0.00       0.00       29.0
0:50              221        0.0         82       18.7      255.0       18.7       21.2       15.5     1014.2       19.1       18.7        0.0        0.0        0.0       0.00        4.3       0.00       0.00       29.0
0:52              221        0.0         82       18.6      255.0       18.6       21.1       15.5     1014.1       19.1       18.6        0.0        0.0        0.0       0.00        4.4       0.00       0.00       29.0
0:54              221        0.0         82       18.6      255.0       18.6       21.1       15.5     1014.1       19.1       18.6        0.0        0.0        0.0       0.00        4.4       0.00       0.00       29.0
0:56              221        0.0         82       18.6      255.0       18.6       21.1       15.5     1014.2       19.1       18.6        0.0        0.0        0.0       0.00        4.4       0.00       0.00       29.0
0:58              221        0.0         82       18.6      255.0       18.6       21.1       15.5     1014.1       19.1       18.6        0.0        0.0        0.0       0.00        4.4       0.00       0.00       29.0
1:00              221        0.0         82       18.6      255.0       18.6       21.1       15.5     1014.1       19.1       18.6        0.0        0.0        0.0       0.00        4.4       0.00       0.00       29.0
1:02              221        0.0         82       18.6      255.0       18.6       21.1       15.5     1014.2       19.1       18.6        0.0        0.0        0.0       0.00        4.4       0.00       0.00       29.0
1:04              221        0.0         82       18.6      255.0       18.6       21.1       15.5     1014.2       19.1       18.6        0.0        0.0        0.0       0.00        4.4       0.00       0.00       29.0
1:06              221        0.0         82       18.6      255.0       18.6       21.1       15.5     1014.2       19.1       18.6        0.0        0.0        0.0       0.00        4.4       0.00       0.00       29.0
1:08              221        0.0         83       18.6      255.0       18.6       21.2       15.7     1014.2       19.1       18.6        0.0        0.0        0.0       0.00        4.4       0.00       0.00       29.0
1:10              221        0.0         83       18.6      255.0       18.6       21.2       15.7     1014.2       19.1       18.6        0.0        0.0        0.0       0.00        4.4       0.00       0.00       29.0
1:12              221        0.0         83       18.6      255.0       18.6       21.2       15.7     1014.1       19.1       18.6        0.0        0.0        0.0       0.00        4.4       0.00       0.00       29.0
1:14              221        0.0         83       18.6      255.0       18.6       21.1       15.6     1014.1       19.1       18.6        0.0        0.0        0.0       0.00        4.4       0.00       0.00       29.0
1:16              221        0.0         83       18.6      255.0       18.6       21.1       15.6     1014.1       19.1       18.6        0.0        0.0        0.0       0.00        4.4       0.00       0.00       29.0
1:18              221        0.0         83       18.6      255.0       18.6       21.1       15.6     1014.2       19.1       18.6        0.0        0.0        0.0       0.00        4.4       0.00       0.00       29.0
1:20              221        0.0         83       18.6      255.0       18.6       21.1       15.6     1014.2       19.1       18.6        0.0        0.0        0.0       0.00        4.4       0.00       0.00       29.0
1:22              221        0.0         83       18.6      255.0       18.6       21.1       15.6     1014.2       19.1       18.6        0.0        0.0        0.0       0.00        4.4       0.00       0.00       29.0
1:24              221        0.0         83       18.5      255.0       18.5       21.1       15.6     1014.1       19.1       18.5        0.0        0.0        0.0       0.00        4.4       0.00       0.00       29.0
1:26              221        0.0         83       18.6      255.0       18.6       21.1       15.6     1014.2       19.1       18.5        0.0        0.0        0.0       0.00        4.4       0.00       0.00       29.0
1:28              221        0.0         83       18.6      255.0       18.6       21.1       15.6     1014.2       19.1       18.5        0.0        0.0        0.0       0.00        4.4       0.00       0.00       29.0
1:30              221        0.0         83       18.6      255.0       18.6       21.1       15.6     1014.1       19.1       18.5        0.0        0.0        0.0       0.00        4.4       0.00       0.00       29.0
1:32              221        0.0         83       18.6      255.0       18.6       21.1       15.6     1014.2       19.1       18.5        0.0        0.0        0.0       0.00        4.4       0.00       0.00       29.0
1:34              221        0.0         83       18.6      255.0       18.6       21.1       15.6     1014.2       19.1       18.5        0.0        0.0        0.0       0.00        4.4       0.00       0.00       29.0
1:36              221        0.0         83       18.6      255.0       18.6       21.1       15.6     1014.3       19.1       18.5        0.0        0.0        0.0       0.00        4.4       0.00       0.00       29.0
1:38              221        0.0         83       18.6      255.0       18.6       21.1       15.6     1014.3       19.1       18.5        0.0        0.0        0.0       0.00        4.4       0.00       0.00       29.0
1:40              221        0.0         83       18.6      255.0       18.6       21.1       15.6     1014.3       19.1       18.5        0.0        0.0        0.0       0.00        4.4       0.00       0.00       29.0
1:42              221        0.0         83       18.6      255.0       18.6       21.1       15.6     1014.2       19.1       18.5        0.0        0.0        0.0       0.00        4.4       0.00       0.00       29.0
1:44              221        0.0         83       18.5      255.0       18.5       21.1       15.6     1014.2       19.1       18.5        0.0        0.0        0.0       0.00        4.4       0.00       0.00       29.0
1:46              221        0.0         83       18.6      255.0       18.6       21.1       15.6     1014.2       19.1       18.5        0.0        0.0        0.0       0.00        4.4       0.00       0.00       29.0
1:48              221        0.0         83       18.6      255.0       18.6       21.1       15.6     1014.3       19.1       18.5        0.0        0.0        0.0       0.00        4.4       0.00       0.00       29.0
1:50              221        0.0         83       18.6      255.0       18.6       21.1       15.6     1014.2       19.1       18.5        0.0        0.0        0.0       0.00        4.4       0.00       0.00       29.0
1:52              221        0.0         83       18.6      255.0       18.6       21.1       15.6     1014.2       19.1       18.5        0.0        0.0        0.0       0.00        4.4       0.00       0.00       29.0
1:54              221        0.0         83       18.6      255.0       18.6       21.1       15.6     1014.2       19.1       18.5        0.0        0.0        0.0       0.00        4.4       0.00       0.00       29.0
1:56              221        0.0         84       18.6      255.0       18.6       21.2       15.8     1014.3       19.1       18.5        0.0        0.0        0.0       0.00        4.4       0.00       0.00       29.0
1:58              221        0.0         84       18.6      255.0       18.6       21.2       15.8     1014.3       19.1       18.5        0.0        0.0        0.0       0.00        4.4       0.00       0.00       29.0
2:00              221        0.0         84       18.6      255.0       18.6       21.2       15.8     1014.1       19.1       18.5        0.0        0.0        0.0       0.00        4.4       0.00       0.00       29.0
2:02              221        0.0         84       18.6      255.0       18.6       21.2       15.8     1014.1       19.1       18.5        0.0        0.0        0.0       0.00        4.4       0.00       0.00       29.0
2:03              221        0.0         84       18.6      255.0       18.6       21.2       15.8     1014.1       19.1       18.5        0.0        0.0        0.0       0.00        4.4       0.00       0.00       29.0
2:06              221        0.0         84       18.6      255.0       18.6       21.2       15.8     1014.1       19.1       18.5        0.0        0.0        0.0       0.00        4.4       0.00       0.00       29.0
2:08              221        0.0         84       18.6      255.0       18.6       21.2       15.8     1014.2       19.1       18.5        0.0        0.0        0.0       0.00        4.4       0.00       0.00       29.0
2:10              221        0.0         84       18.6      255.0       18.6       21.2       15.8     1014.1       19.1       18.5        0.0        0.0        0.0       0.00        4.4       0.00       0.00       29.0
2:12              221        0.0         84       18.6      255.0       18.6       21.2       15.8     1014.2       19.1       18.5        0.0        0.0        0.0       0.00        4.4       0.00       0.00       29.0
2:14              221        0.0         84       18.6      255.0       18.6       21.2       15.8     1014.1       19.1       18.5        0.0        0.0        0.0       0.00        4.4       0.00       0.00       29.0
2:16              221        0.0         84       18.6      255.0       18.6       21.2       15.8     1014.1       19.1       18.5        0.0        0.0        0.0       0.00        4.4       0.00       0.00       29.0
2:18              221        0.0         83       18.6      255.0       18.6       21.1       15.6     1014.1       19.1       18.5        0.0        0.0        0.0       0.00        4.4       0.00       0.00       29.0
2:20              221        0.0         84       18.6      255.0       18.6       21.2       15.8     1014.2       19.1       18.5        0.0        0.0        0.0       0.00        4.4       0.00       0.00       29.0
2:21              221        0.0         84       18.6      255.0       18.6       21.2       15.8     1014.2       19.1       18.5        0.0        0.0        0.0       0.00        4.4       0.00       0.00       29.0
2:24              221        0.0         84       18.6      255.0       18.6       21.2       15.8     1014.2       19.1       18.5        0.0        0.0        0.0       0.00        4.4       0.00       0.00       29.0
2:26              221        0.0         84       18.6      255.0       18.6       21.2       15.8     1014.2       19.1       18.5        0.0        0.0        0.0       0.00        4.4       0.00       0.00       29.0
2:28              221        0.0         84       18.6      255.0       18.6       21.2       15.8     1014.2       19.1       18.5        0.0        0.0        0.0       0.00        4.4       0.00       0.00       29.0
2:30              221        0.0         84       18.6      255.0       18.6       21.2       15.8     1014.2       19.1       18.5        0.0        0.0        0.0       0.00        4.4       0.00       0.00       29.0
2:32              221        0.0         83       18.6      255.0       18.6       21.1       15.6     1014.2       19.1       18.5        0.0        0.0        0.0       0.00        4.4       0.00       0.00       29.0
2:34              221        0.0         83       18.6      255.0       18.6       21.1       15.6     1014.2       19.1       18.5        0.0        0.0        0.0       0.00        4.4       0.00       0.00       29.0
2:36              221        0.0         84       18.6      255.0       18.6       21.2       15.8     1014.2       19.1       18.5        0.0        0.0        0.0       0.00        4.4       0.00       0.00       29.0
2:38              221        0.0         84       18.6      255.0       18.6       21.2       15.8     1014.3       19.1       18.5        0.0        0.0        0.0       0.00        4.4       0.00       0.00       29.0
2:40              221        0.0         84       18.6      255.0       18.6       21.2       15.8     1014.3       19.1       18.5        0.0        0.0        0.0       0.00        4.4       0.00       0.00       29.0
2:42              221        0.0         84       18.5      255.0       18.5       21.2       15.7     1014.3       19.1       18.5        0.0        0.0        0.0       0.00        4.4       0.00       0.00       29.0
2:43              221        0.0         84       18.5      255.0       18.5       21.2       15.7     1014.4       19.1       18.5        0.0        0.0        0.0       0.00        4.4       0.00       0.00       29.0
2:46              221        0.0         83       18.5      255.0       18.5       21.1       15.6     1014.3       19.1       18.5        0.0        0.0        0.0       0.00        4.4       0.00       0.00       29.0
2:48              221        0.0         83       18.4      255.0       18.4       21.0       15.5     1014.4       19.1       18.4        0.0        0.0        0.0       0.00        4.4       0.00       0.00       29.0
2:50              221        0.0         83       18.4      255.0       18.4       21.0       15.5     1014.4       19.1       18.4        0.0        0.0        0.0       0.00        4.4       0.00       0.00       29.0
2:52              221        0.0         83       18.4      255.0       18.4       21.0       15.5     1014.3       19.1       18.4        0.0        0.0        0.0       0.00        4.4       0.00       0.00       29.0
2:54              221        0.0         83       18.4      255.0       18.4       21.0       15.5     1014.3       19.1       18.4        0.0        0.0        0.0       0.00        4.4       0.00       0.00       29.0
2:56              221        0.0         83       18.4      255.0       18.4       21.0       15.5     1014.3       19.1       18.4        0.0        0.0        0.0       0.00        4.4       0.00       0.00       29.0
2:58              221        0.0         83       18.4      255.0       18.4       21.0       15.5     1014.3       19.1       18.4        0.0        0.0        0.0       0.00        4.4       0.00       0.00       29.0
3:00              221        0.0         83       18.3      255.0       18.3       20.9       15.4     1014.4       19.1       18.3        0.0        0.0        0.0       0.00        4.4       0.00       0.00       29.0
3:02              221        0.0         83       18.3      255.0       18.3       20.9       15.4     1014.4       19.1       18.3        0.0        0.0        0.0       0.00        4.4       0.00       0.00       29.0
3:03              221        0.0         83       18.3      255.0       18.3       20.9       15.3     1014.2       19.1       18.3        0.0        0.0        0.0       0.00        4.5       0.00       0.00       29.0
3:06              221        0.0         84       18.3      255.0       18.3       20.9       15.5     1014.2       19.1       18.3        0.0        0.0        0.0       0.00        4.5       0.00       0.00       29.0
3:08              221        0.0         84       18.3      255.0       18.3       20.9       15.5     1014.1       19.1       18.3        0.0        0.0        0.0       0.00        4.5       0.00       0.00       29.0
3:10              221        0.0         84       18.3      255.0       18.3       20.9       15.5     1014.2       19.1       18.3        0.0        0.0        0.0       0.00        4.5       0.00       0.00       29.0
3:11              221        0.0         84       18.3      255.0       18.3       20.9       15.5     1014.2       19.1       18.3        0.0        0.0        0.0       0.00        4.5       0.00       0.00       29.0
3:14              221        0.0         84       18.3      255.0       18.3       20.9       15.5     1014.1       19.1       18.3        0.0        0.0        0.0       0.00        4.6       0.00       0.00       29.0
3:15              221        0.0         85       18.3      255.0       18.3       21.0       15.7     1014.1       19.1       18.3        0.0        0.0        0.0       0.00        4.6       0.00       0.00       29.0
3:18              221        0.0         85       18.3      255.0       18.3       21.1       15.8     1014.2       19.1       18.3        0.0        0.0        0.0       0.00        4.6       0.00       0.00       29.0
3:20              221        0.0         85       18.3      255.0       18.3       21.0       15.7     1014.1       19.1       18.3        0.0        0.0        0.0       0.00        4.6       0.00       0.00       29.0
3:22              221        0.0         85       18.3      255.0       18.3       21.0       15.7     1014.1       19.1       18.3        0.0        0.0        0.0       0.00        4.6       0.00       0.00       29.0
3:24              221        0.0         85       18.3      255.0       18.3       21.0       15.7     1014.1       19.1       18.3        0.0        0.0        0.0       0.00        4.6       0.00       0.00       29.0
3:26              221        0.0         85       18.3      255.0       18.3       21.0       15.7     1014.1       19.1       18.3        0.0        0.0        0.0       0.00        4.7       0.00       0.00       29.0
3:28              221        0.0         85       18.3      255.0       18.3       21.0       15.7     1014.1       19.1       18.3        0.0        0.0        0.0       0.00        4.7       0.00       0.00       29.0
3:30              221        0.0         85       18.3      255.0       18.3       21.0       15.7     1014.1       19.1       18.3        0.0        0.0        0.0       0.00        4.7       0.00       0.00       29.0
3:32              221        0.0         85       18.3      255.0       18.3       21.0       15.7     1014.1       19.1       18.2        0.0        0.0        0.0       0.00        4.7       0.00       0.00       29.0
3:34              221        0.0         85       18.2      255.0       18.2       21.0       15.7     1014.1       19.1       18.2        0.0        0.0        0.0       0.00        4.7       0.00       0.00       29.0
3:36              221        0.0         85       18.2      255.0       18.2       21.0       15.7     1014.1       19.1       18.2        0.0        0.0        0.0       0.00        4.7       0.00       0.00       29.0
3:38              221        0.0         85       18.2      255.0       18.2       21.0       15.7     1014.0       19.1       18.2        0.0        0.0        0.0       0.00        4.7       0.00       0.00       29.0
3:40              221        0.0         85       18.2      255.0       18.2       21.0       15.7     1014.1       19.1       18.2        0.0        0.0        0.0       0.00        4.8       0.00       0.00       29.0
3:42              221        0.0         85       18.2      255.0       18.2       20.9       15.6     1014.1       19.1       18.2        0.0        0.0        0.0       0.00        4.8       0.00       0.00       29.0
3:44              221        0.0         85       18.2      255.0       18.2       20.9       15.6     1014.1       19.1       18.2        0.0        0.0        0.0       0.00        4.8       0.00       0.00       29.0
3:46              221        0.0         85       18.2      255.0       18.2       20.9       15.6     1014.1       19.1       18.2        0.0        0.0        0.0       0.00        4.9       0.00       0.00       29.0
3:47              221        0.0         85       18.2      255.0       18.2       20.9       15.6     1014.1       19.1       18.1        0.0        0.0        0.0       0.00        4.9       0.00       0.00       29.0
3:50              221        0.0         85       18.1      255.0       18.1       20.8       15.6     1014.1       19.1       18.1        0.0        0.0        0.0       0.00        5.0       0.00       0.00       29.0
3:52              221        0.0         84       18.1      255.0       18.1       20.8       15.4     1014.1       19.1       18.1        0.0        0.0        0.0       0.00        5.1       0.00       0.00       29.0
3:54              221        0.0         84       18.1      255.0       18.1       20.7       15.3     1014.1       19.1       18.1        0.0        0.0        0.0       0.00        5.2       0.00       0.00       29.0
3:56              221        0.0         84       18.1      255.0       18.1       20.7       15.3     1014.1       19.1       18.1        0.0        0.0        0.0       0.00        5.2       0.00       0.00       29.0
3:58              221        0.0         83       18.0      255.0       18.0       20.6       15.1     1014.2       19.1       18.0        0.0        0.0        0.0       0.00        5.3       0.00       0.00       29.0
4:00              221        0.0         83       18.0      255.0       18.0       20.6       15.1     1014.1       19.1       18.0        0.0        0.0        0.0       0.00        5.3       0.00       0.00       29.0
4:02              221        0.0         83       18.0      255.0       18.0       20.6       15.1     1014.1       19.1       18.0        0.0        0.0        0.0       0.00        5.4       0.00       0.00       29.0
4:04              221        0.0         83       18.0      255.0       18.0       20.6       15.1     1014.2       19.1       18.0        0.0        0.0        0.0       0.00        5.4       0.00       0.00       29.0
4:06              221        0.0         82       18.1      255.0       18.1       20.6       14.9     1014.1       19.1       18.0        0.0        0.0        0.0       0.00        5.5       0.00       0.00       29.0
4:08              221        0.0         82       18.1      255.0       18.1       20.6       14.9     1014.1       19.1       18.0        0.0        0.0        0.0       0.00        5.6       0.00       0.00       29.0
4:10              221        0.0         82       18.1      255.0       18.1       20.6       14.9     1014.1       19.1       18.0        0.0        0.0        0.0       0.00        5.7       0.00       0.00       29.0
4:11              221        0.0         82       18.1      255.0       18.1       20.6       14.9     1014.1       19.1       18.0        0.0        0.0        0.0       0.00        5.8       0.00       0.00       29.0
4:14              221        0.0         81       18.1      255.0       18.1       20.5       14.7     1014.1       19.1       18.0        0.0        0.0        0.0       0.00        5.9       0.00       0.00       29.0
4:16              221        0.0         81       18.1      255.0       18.1       20.5       14.8     1014.1       19.1       18.0        0.0        0.0        0.0       0.00        6.0       0.00       0.00       29.0
4:17              221        0.0         81       18.1      255.0       18.1       20.5       14.8     1014.1       19.1       18.0        0.0        0.0        0.0       0.00        6.1       0.00       0.00       29.0
4:20              221        0.0         81       18.1      255.0       18.1       20.5       14.8     1014.1       19.1       18.0        0.0        0.0        0.0       0.00        6.3       0.00       0.00       29.0
4:22              221        0.0         80       18.2      255.0       18.2       20.5       14.7     1014.1       19.1       18.0        0.0        0.0        0.0       0.00        6.3       0.00       0.00       29.0
4:24              221        0.0         81       18.2      255.0       18.2       20.6       14.9     1014.2       19.1       18.0        0.0        0.0        0.0       0.00        6.4       0.00       0.00       29.0
4:25              221        0.0         80       18.2      255.0       18.2       20.6       14.7     1014.3       19.1       18.0        0.0        0.0        0.0       0.00        6.5       0.00       0.00       29.0
4:28              221        0.0         80       18.2      255.0       18.2       20.6       14.7     1014.3       19.1       18.0        0.0        0.0        0.0       0.00        6.5       0.00       0.00       29.0
4:30              221        0.0         80       18.2      255.0       18.2       20.6       14.7     1014.4       19.1       18.0        0.0        0.0        0.0       0.00        6.6       0.00       0.00       29.0
4:31              221        0.0         80       18.2      255.0       18.2       20.6       14.7     1014.4       19.1       18.0        0.0        0.0        0.0       0.00        6.6       0.00       0.00       29.0
4:34              221        0.0         80       18.2      255.0       18.2       20.6       14.7     1014.4       19.1       18.0        0.0        0.0        0.0       0.00        6.7       0.00       0.00       29.0
4:36              221        0.0         80       18.2      255.0       18.2       20.5       14.7     1014.3       19.1       18.0        0.0        0.0        0.0       0.00        6.8       0.00       0.00       29.0
4:38              221        0.0         80       18.2      255.0       18.2       20.5       14.7     1014.3       19.1       18.0        0.0        0.0        0.0       0.00        6.9       0.00       0.00       29.0
4:40              221        0.0         80       18.2      255.0       18.2       20.5       14.7     1014.3       19.1       18.0        0.0        0.0        0.0       0.00        7.0       0.00       0.00       29.0
4:42              221        0.0         80       18.1      255.0       18.1       20.5       14.6     1014.4       19.1       18.0        0.0        0.0        0.0       0.00        7.1       0.00       0.00       29.0
4:44              221        0.0         80       18.1      255.0       18.1       20.5       14.6     1014.3       19.1       18.0        0.0        0.0        0.0       0.00        7.1       0.00       0.00       29.0
4:46              221        0.0         80       18.1      255.0       18.1       20.5       14.6     1014.3       19.1       18.0        0.0        0.0        0.0       0.00        7.2       0.00       0.00       29.0
4:48              221        0.0         80       18.1      255.0       18.1       20.4       14.6     1014.3       19.1       18.0        0.0        0.0        0.0       0.00        7.3       0.00       0.00       29.0
4:50              221        0.0         80       18.1      255.0       18.1       20.4       14.6     1014.3       19.1       18.0        0.0        0.0        0.0       0.00        7.4       0.00       0.00       29.0
4:52              221        0.0         81       18.1      255.0       18.1       20.5       14.7     1014.4       19.1       18.0        0.0        0.0        0.0       0.00        7.5       0.00       0.00       29.0
4:54              221        0.0         81       18.1      255.0       18.1       20.5       14.7     1014.3       19.1       18.0        0.0        0.0        0.0       0.00        7.6       0.00       0.00       29.0
4:56              221        0.0         81       18.1      255.0       18.1       20.5       14.7     1014.4       19.1       18.0        0.0        0.0        0.0       0.00        7.6       0.00       0.00       29.0
4:58              221        0.0         81       18.1      255.0       18.1       20.5       14.7     1014.4       19.1       18.0        0.0        0.0        0.0       0.00        7.6       0.00       0.00       29.0
5:00              221        0.0         81       18.1      255.0       18.1       20.5       14.7     1014.4       19.1       18.0        0.0        0.0        0.0       0.00        7.6       0.00       0.00       29.0
5:02              221        0.0         81       18.1      255.0       18.1       20.5       14.7     1014.4       19.1       18.0        0.0        0.0        0.0       0.00        7.6       0.00       0.00       29.0
5:03              221        0.0         81       18.1      255.0       18.1       20.5       14.7     1014.5       19.1       18.0        0.0        0.0        0.0       0.00        7.6       0.00       0.00       29.0
5:06              221        0.0         81       18.0      255.0       18.0       20.4       14.7     1014.4       19.1       18.0        0.0        0.0        0.0       0.00        7.6       0.00       0.00       29.0
5:08              221        0.0         81       18.0      255.0       18.0       20.4       14.7     1014.5       19.1       18.0        0.0        0.0        0.0       0.00        7.6       0.00       0.00       29.0
5:10              221        0.0         81       18.0      255.0       18.0       20.4       14.7     1014.5       19.1       17.9        0.0        0.0        0.0       0.00        7.6       0.00       0.00       29.0
5:12              221        0.0         82       17.9      255.0       17.9       20.4       14.8     1014.5       19.1       17.9        0.0        0.0        0.0       0.00        7.6       0.00       0.00       29.0
5:14              221        0.0         82       17.9      255.0       17.9       20.4       14.8     1014.4       19.1       17.9        0.0        0.0        0.0       0.00        7.6       0.00       0.00       29.0
5:16              221        0.0         82       17.9      255.0       17.9       20.4       14.8     1014.4       19.1       17.9        0.0        0.0        0.0       0.00        7.6       0.00       0.00       29.0
5:18              221        0.0         82       17.9      255.0       17.9       20.4       14.8     1014.5       19.1       17.9        0.0        0.0        0.0       0.00        7.6       0.00       0.00       29.0
5:20              221        0.0         82       17.9      255.0       17.9       20.4       14.8     1014.5       19.1       17.9        0.0        0.0        0.0       0.00        7.6       0.00       0.00       29.0
5:22              221        0.0         82       17.9      255.0       17.9       20.4       14.8     1014.6       19.1       17.9        0.0        0.0        0.0       0.00        7.6       0.00       0.00       29.0
5:24              221        0.0         82       17.8      255.0       17.8       20.3       14.7     1014.6       19.1       17.8        0.0        0.0        0.0       0.00        7.6       0.00       0.00       29.0
5:26              221        0.0         82       17.8      255.0       17.8       20.3       14.7     1014.6       19.1       17.8        0.0        0.0        0.0       0.00        7.6       0.00       0.00       29.0
5:28              221        0.0         83       17.8      255.0       17.8       20.4       14.9     1014.6       19.1       17.8        0.0        0.0        0.0       0.00        7.6       0.00       0.00       29.0
5:30              221        0.0         83       17.8      255.0       17.8       20.4       14.9     1014.6       19.1       17.8        0.0        0.0        0.0       0.00        7.6       0.00       0.00       29.0
5:32              221        0.0         83       17.7      255.0       17.7       20.3       14.8     1014.5       19.1       17.7        0.0        0.0        0.0       0.00        7.7       0.00       0.00       29.0
5:34              221        0.0         83       17.7      255.0       17.7       20.3       14.8     1014.5       19.1       17.7        0.0        0.0        0.0       0.00        7.7       0.00       0.00       29.0
5:36              221        0.0         83       17.7      255.0       17.7       20.2       14.7     1014.5       19.1       17.7        0.0        0.0        0.0       0.00        7.7       0.00       0.00       29.0
5:38              221        0.0         83       17.6      255.0       17.6       20.2       14.7     1014.5       19.1       17.6        0.0        0.0        0.0       0.00        7.7       0.00       0.00       29.0
5:40              221        0.0         83       17.6      255.0       17.6       20.2       14.7     1014.6       19.1       17.6        0.0        0.0        0.0       0.00        7.8       0.00       0.00       29.0
5:42              221        0.0         83       17.6      255.0       17.6       20.2       14.7     1014.5       19.1       17.6        0.0        0.0        0.0       0.00        7.8       0.00       0.00       29.0
5:44              221        0.0         83       17.6      255.0       17.6       20.1       14.6     1014.5       19.1       17.6        0.0        0.0        0.0       0.00        7.8       0.00       0.00       29.0
5:45              221        0.0         84       17.5      255.0       17.5       20.2       14.8     1014.6       19.1       17.5        0.0        0.0        0.0       0.00        7.8       0.01       0.00       29.0
5:48              221        0.0         84       17.5      255.0       17.5       20.2       14.8     1014.6       19.1       17.5        0.0        0.0        0.0       0.00        7.8       0.01       0.00       29.0
5:50              221        0.0         84       17.5      255.0       17.5       20.2       14.8     1014.6       19.1       17.5        0.0        0.0        0.0       0.00        7.8       0.01       0.00       29.0
5:52              221        0.0         84       17.4      255.0       17.4       20.1       14.7     1014.6       19.1       17.4        0.0        0.0        0.0       0.00        7.9       0.01       0.00       29.0
5:54              221        0.0         84       17.4      255.0       17.4       20.1       14.7     1014.6       19.1       17.4        0.0        0.0        0.0       0.00        7.9       0.01       0.00       29.0
5:56              221        0.0         84       17.4      255.0       17.4       20.1       14.7     1014.7       19.1       17.4        0.0        0.0        0.0       0.00        8.0       0.01       0.00       29.0
5:58              221        0.0         84       17.4      255.0       17.4       20.0       14.7     1014.6       19.1       17.4        0.0        0.0        0.0       0.00        8.0       0.01       0.00       29.0
6:00              221        0.0         85       17.4      255.0       17.4       20.1       14.8     1014.7       19.1       17.4        0.0        0.0        0.0       0.00        8.1       0.01       0.00       29.0
6:02              221        0.0         85       17.4      255.0       17.4       20.1       14.8     1014.7       19.1       17.4        0.0        0.0        0.0       0.00        8.1       0.01       0.00       29.0
6:04              221        0.0         85       17.3      255.0       17.3       20.1       14.8     1014.7       19.1       17.3        0.0        0.0        0.0       0.00        8.2       0.01       0.00       29.0
6:06              221        0.0         85       17.3      255.0       17.3       20.1       14.8     1014.7       19.1       17.3        0.0        0.0        0.0       0.00        8.3       0.01       0.00       29.0
6:08              221        0.0         85       17.3      255.0       17.3       20.1       14.8     1014.8       19.1       17.3        0.0        0.0        0.0       0.00        8.3       0.01       0.00       29.0
6:10              221        0.0         85       17.3      255.0       17.3       20.1       14.8     1014.8       19.1       17.3        0.0        0.0        0.0       0.00        8.4       0.01       0.00       29.0
6:11              221        0.0         85       17.3      255.0       17.3       20.0       14.7     1014.8       19.1       17.3        0.0        0.0        0.0       0.00        8.5       0.01       0.00       29.0
6:14              221        0.0         85       17.3      255.0       17.3       20.0       14.7     1014.9       19.1       17.3        0.0        0.0        0.0       0.00        8.5       0.01       0.00       29.0
6:16              221        0.0         84       17.3      255.0       17.3       19.9       14.6     1014.9       19.1       17.3        0.0        0.0        0.0       0.00        8.6       0.02       0.00       29.0
6:18              221        0.0         84       17.3      255.0       17.3       19.9       14.6     1015.0       19.1       17.3        0.0        0.0        0.0       0.00        8.7       0.02       0.00       29.0
6:20              221        0.0         84       17.3      255.0       17.3       19.9       14.6     1014.9       19.1       17.3        0.0        0.0        0.0       0.00        8.8       0.02       0.00       29.0
6:21              221        0.0         84       17.3      255.0       17.3       20.0       14.6     1014.8       19.1       17.3        0.0        0.0        0.0       0.00        8.9       0.02       0.00       29.0
6:23              221        0.0         84       17.3      255.0       17.3       20.0       14.6     1015.0       19.1       17.3        0.0        0.0        0.0       0.00        9.1       0.02       0.00       29.0
6:26              221        0.0         84       17.3      255.0       17.3       20.0       14.6     1015.0       19.1       17.3        0.0        0.0        0.0       0.00        9.2       0.02       0.00       29.0
6:28              221        0.0         84       17.4      255.0       17.4       20.0       14.7     1015.1       19.1       17.3        0.0        0.0        0.0       0.00        9.3       0.02       0.00       29.0
6:30              221        0.0         85       17.4      255.0       17.4       20.1       14.8     1015.0       19.1       17.3        0.0        0.0        0.0       0.00        9.4       0.02       0.00       29.0
6:32              221        0.0         85       17.4      255.0       17.4       20.2       14.9     1015.1       19.1       17.3        0.0        0.0        0.0       0.00        9.4       0.03       0.00       29.0
6:34              221        0.0         85       17.4      255.0       17.4       20.2       14.9     1015.1       19.1       17.3        0.0        0.0        0.0       0.00        9.6       0.03       0.00       29.0
6:36              221        0.0         85       17.4      255.0       17.4       20.2       14.9     1015.1       19.1       17.3        0.0        0.0        0.0       0.00        9.6       0.03       0.00       29.0
6:37              221        0.0         85       17.4      255.0       17.4       20.2       14.9     1015.1       19.1       17.3        0.0        0.0        0.0       0.00        9.7       0.03       0.00       29.0
6:40              221        0.0         85       17.5      255.0       17.5       20.2       15.0     1015.1       19.1       17.3        0.0        0.0        0.0       0.00        9.9       0.03       0.00       29.0
6:42              221        0.0         84       17.4      255.0       17.4       20.1       14.7     1015.1       19.1       17.3        0.0        0.0        0.0       0.00       10.0       0.03       0.00       29.0
6:43              221        0.0         84       17.5      255.0       17.5       20.2       14.8     1015.1       19.1       17.3        0.0        0.0        0.0       0.00       10.0       0.03       0.00       29.0
6:46              221        0.0         84       17.5      255.0       17.5       20.2       14.8     1015.2       19.1       17.3        0.0        0.0        0.0       0.00       10.1       0.03       0.00       29.0
6:48              221        0.0         84       17.5      255.0       17.5       20.2       14.8     1015.2       19.1       17.3        0.0        0.0        0.0       0.00       10.3       0.03       0.00       29.0
6:49              221        0.0         85       17.6      255.0       17.6       20.3       15.0     1015.2       19.1       17.3        0.0        0.0        0.0       0.00       10.3       0.03       0.00       29.0
6:52              221        0.0         85       17.6      255.0       17.6       20.3       15.1     1015.2       19.1       17.3        0.0        0.0        0.0       0.00       10.4       0.03       0.00       29.0
6:53              221        0.0         85       17.6      255.0       17.6       20.3       15.1     1015.3       19.1       17.3        0.0        0.0        0.0       0.00       10.6       0.03       0.00       29.0
6:55              221        0.0         85       17.7      255.0       17.7       20.5       15.2     1015.3       19.1       17.3        0.0        0.0        0.0       0.00       10.7       0.03       0.00       29.0
6:58              221        0.0         85       17.7      255.0       17.7       20.5       15.2     1015.3       19.1       17.3        0.0        0.0        0.0       0.00       10.8       0.03       0.00       29.0
7:00              221        0.0         85       17.8      255.0       17.8       20.5       15.2     1015.4       19.1       17.3        0.0        0.0        0.0       0.00       11.0       0.03       0.00       29.0
7:02              221        0.0         85       17.8      255.0       17.8       20.5       15.2     1015.5       19.1       17.3        0.0        0.0        0.0       0.00       11.2       0.04       0.00       29.0
7:04              221        0.0         85       17.8      255.0       17.8       20.6       15.3     1015.4       19.1       17.3        0.0        0.0        0.0       0.00       11.3       0.04       0.00       29.0
7:06              221        0.0         85       17.9      255.0       17.9       20.6       15.3     1015.5       19.1       17.3        0.0        0.0        0.0       0.00       11.4       0.04       0.00       29.0
7:08              221        0.0         85       17.9      255.0       17.9       20.7       15.4     1015.5       19.1       17.3        0.0        0.0        0.0       0.00       11.5       0.04       0.00       29.0
7:10              221        0.0         85       18.1      255.0       18.1       20.8       15.5     1015.6       19.1       17.3        0.0        0.0        0.0       0.00       11.6       0.04       0.00       29.0
7:11              221        0.0         85       18.2      255.0       18.2       20.9       15.6     1015.5       19.1       17.3        0.0        0.0        0.0       0.00       11.6       0.04       0.00       29.0
7:14              221        0.0         85       18.2      255.0       18.2       21.0       15.7     1015.5       19.1       17.3        0.0        0.0        0.0       0.00       11.8       0.04       0.00       29.0
7:16              221        0.0         84       18.3      255.0       18.3       21.0       15.6     1015.6       19.1       17.3        0.0        0.0        0.0       0.00       11.9       0.04       0.00       29.0
7:18              221        0.0         84       18.4      255.0       18.4       21.1       15.7     1015.6       19.1       17.3        0.0        0.0        0.0       0.00       11.9       0.04       0.00       29.0
7:20              221        0.0         84       18.6      255.0       18.6       21.2       15.8     1015.6       19.1       17.3        0.0        0.0        0.0       0.00       12.0       0.04       0.00       29.0
7:22              221        0.0         82       18.6      255.0       18.6       21.1       15.5     1015.6       19.1       17.3        0.0        0.0        0.0       0.00       12.3       0.04       0.00       29.0
7:24              221        0.0         82       18.7      255.0       18.7       21.2       15.5     1015.6       19.1       17.3        0.0        0.0        0.0       0.00       12.3       0.04       0.00       29.0
7:26              221        0.0         82       18.7      255.0       18.7       21.2       15.6     1015.6       19.1       17.3        0.0        0.0        0.0       0.00       12.5       0.04       0.00       29.0
7:27              221        0.0         82       18.8      255.0       18.8       21.3       15.7     1015.6       19.1       17.3        0.0        0.0        0.0       0.00       12.6       0.04       0.00       29.0
7:30              221        0.0         81       18.9      255.0       18.9       21.3       15.6     1015.6       19.1       17.3        0.0        0.0        0.0       0.00       12.8       0.04       0.00       29.0
7:32              221        0.0         80       18.9      255.0       18.9       21.3       15.4     1015.7       19.1       17.3        0.0        0.0        0.0       0.00       12.9       0.04       0.00       29.0
7:33              221        0.0         79       19.0      255.0       19.0       21.3       15.3     1015.7       19.1       17.3        0.0        0.0        0.0       0.00       13.1       0.04       0.00       29.0
7:36              221        0.0         79       19.1      255.0       19.1       21.3       15.3     1015.7       19.1       17.3        0.0        0.0        0.0       0.00       13.3       0.04       0.00       29.0
7:38              221        0.0         79       19.1      255.0       19.1       21.4       15.4     1015.7       19.1       17.3        0.0        0.0        0.0       0.00       13.4       0.04       0.00       29.0
7:40              221        0.0         77       19.2      255.0       19.2       21.3       15.0     1015.8       19.2       17.3        0.0        0.0        0.0       0.00       13.6       0.04       0.00       29.0
7:42              222        0.0         76       19.2      255.0       19.2       21.2       14.8     1015.7       19.2       17.3        0.0        0.0        0.0       0.00       13.8       0.04       0.00       29.0
7:44              221        0.0         75       19.2      255.0       19.2       21.2       14.7     1015.7       19.2       17.3        0.0        0.0        0.0       0.00       13.9       0.04       0.00       29.0
7:46              221        0.0         75       19.3      255.0       19.3       21.3       14.7     1015.8       19.3       17.3        0.0        0.0        0.0       0.00       14.1       0.04       0.00       29.0
7:48              221        0.0         74       19.4      255.0       19.4       21.3       14.6     1015.8       19.4       17.3        0.0        0.0        0.0       0.00       14.3       0.04       0.00       29.0
7:50              221        0.0         73       19.4      255.0       19.4       21.3       14.5     1015.8       19.4       17.3        0.0        0.0        0.0       0.00       14.5       0.04       0.00       29.0
7:51              221        0.0         71       19.4      255.0       19.4       21.2       14.1     1015.8       19.5       17.3        0.0        0.0        0.0       0.00       14.8       0.04       0.00       29.0
7:54              221        0.0         69       19.5      255.0       19.5       21.1       13.7     1015.8       19.5       17.3        0.0        0.0        0.0       0.00       15.2       0.04       0.00       29.0
7:56              221        0.0         69       19.6      255.0       19.6       21.1       13.7     1015.7       19.6       17.3        0.0        0.0        0.0       0.00       15.5       0.04       0.00       29.0
7:57              221        0.0         68       19.6      255.0       19.6       21.1       13.5     1015.7       19.6       17.3        0.0        0.0        0.0       0.00       15.8       0.04       0.00       29.0
8:00              221        0.0         69       19.6      255.0       19.6       21.2       13.8     1015.7       19.6       17.3        0.0        0.0        0.0       0.00       16.1       0.04       0.00       29.0
8:02              221        0.0         69       19.7      255.0       19.7       21.3       13.9     1015.8       19.7       17.3        0.0        0.0        0.0       0.00       16.3       0.04       0.00       29.0
8:03              221        0.0         69       19.8      255.0       19.8       21.4       13.9     1015.8       19.8       17.3        0.0        0.0        0.0       0.00       16.4       0.04       0.00       29.0
8:06              222        0.0         69       19.8      255.0       19.8       21.4       14.0     1015.8       19.8       17.3        0.0        0.0        0.0       0.00       17.0       0.04       0.00       29.0
8:08              221        0.0         68       19.9      255.0       19.9       21.4       13.8     1015.8       19.9       17.3        0.0        0.0        0.0       0.00       17.3       0.04       0.00       29.0
8:10              221        0.0         67       19.9      255.0       19.9       21.4       13.6     1015.8       20.0       17.3        0.0        0.0        0.0       0.00       17.8       0.04       0.00       29.0
8:12              221        0.0         67       20.1      255.0       20.1       21.5       13.7     1015.9       20.1       17.3        0.0        0.0        0.0       0.00       18.2       0.04       0.00       29.0
8:14              221        0.0         65       20.1      255.0       20.1       21.4       13.3     1015.9       20.1       17.3        0.0        0.0        0.0       0.00       18.8       0.04       0.00       29.0
8:16              221        0.0         64       20.1      255.0       20.1       21.4       13.1     1015.9       20.1       17.3        0.0        0.0        0.0       0.00       19.3       0.04       0.00       29.0
8:18              221        0.0         64       20.1      255.0       20.1       21.4       13.1     1015.9       20.1       17.3        0.0        0.0        0.0       0.00       19.7       0.04       0.00       29.0
8:20              221        0.0         64       20.2      255.0       20.2       21.4       13.1     1015.9       20.2       17.3        0.0        0.0        0.0       0.00       20.2       0.04       0.00       29.0
8:22              221        0.0         63       20.2      255.0       20.2       21.4       13.0     1015.9       20.2       17.3        0.0        0.0        0.0       0.00       20.7       0.04       0.00       29.0
8:24              221        0.0         64       20.3      255.0       20.3       21.6       13.3     1015.9       20.3       17.3        0.0        0.0        0.0       0.00       21.1       0.04       0.00       29.0
8:26              221        0.0         63       20.3      255.0       20.3       21.5       13.1     1015.9       20.3       17.3        0.0        0.0        0.0       0.00       21.5       0.04       0.00       29.0
8:28              221        0.0         63       20.4      255.0       20.4       21.6       13.1     1015.9       20.4       17.3        0.0        0.0        0.0       0.00       21.7       0.04       0.00       29.0
8:29              221        0.0         63       20.4      255.0       20.4       21.6       13.2     1016.0       20.4       17.3        0.0        0.0        0.0       0.00       22.1       0.04       0.00       29.0
8:32              221        0.0         62       20.5      255.0       20.5       21.6       13.0     1016.0       20.5       17.3        0.0        0.0        0.0       0.00       22.5       0.04       0.00       29.0
8:34              221        0.0         62       20.6      255.0       20.6       21.7       13.1     1016.0       20.6       17.3        0.0        0.0        0.0       0.00       22.6       0.04       0.00       29.0
8:36              221        0.0         62       20.7      255.0       20.7       21.8       13.1     1016.0       20.7       17.3        0.0        0.0        0.0       0.00       22.9       0.04       0.00       29.0
8:38              221        0.0         62       20.8      255.0       20.8       21.9       13.2     1016.0       20.8       17.3        0.0        0.0        0.0       0.00       23.3       0.04       0.00       29.0
8:40              221        0.0         61       20.9      255.0       20.9       22.0       13.1     1016.0       20.9       17.3        0.0        0.0        0.0       0.00       23.6       0.04       0.00       29.0
8:41              222        0.0         60       21.0      255.0       21.0       22.0       12.9     1016.0       21.0       17.3        0.0        0.0        0.0       0.00       24.3       0.04       0.00       29.0
8:44              221        0.0         60       21.1      255.0       21.1       22.1       13.1     1016.0       21.1       17.3        0.0        0.0        0.0       0.00       24.7       0.04       0.00       29.0
8:46              221        0.0         60       21.2      255.0       21.2       22.2       13.2     1016.0       21.2       17.3        0.0        0.0        0.0       0.00       25.0       0.04       0.00       29.0
8:47              221        0.0         60       21.3      255.0       21.3       22.3       13.3     1016.0       21.3       17.3        0.0        0.0        0.0       0.00       25.3       0.04       0.00       29.0
8:49              221        0.0         59       21.4      255.0       21.4       22.4       13.1     1016.0       21.4       17.3        0.0        0.0        0.0       0.00       25.7       0.04       0.00       29.0
8:52              221        0.0         59       21.6      255.0       21.6       22.5       13.2     1016.0       21.6       17.3        0.0        0.0        0.0       0.00       25.9       0.04       0.00       29.0
8:54              221        0.0         58       21.7      255.0       21.7       22.6       13.1     1016.0       21.7       17.3        0.0        0.0        0.0       0.00       26.2       0.04       0.00       29.0
8:56              221        0.0         57       21.7      255.0       21.7       22.6       12.8     1016.1       21.7       17.3        0.0        0.0        0.0       0.00       26.6       0.04       0.00       29.0
8:58              221        0.0         56       21.8      255.0       21.8       22.6       12.7     1016.0       21.8       17.3        0.0        0.0        0.0       0.00       27.1       0.04       0.00       29.0
9:00              221        0.0         57       21.9      255.0       21.9       22.8       13.0     1016.1       21.9       17.3        0.0        0.0        0.0       0.00       27.3       0.04       0.00       29.0
9:02              221        0.0         55       22.1      255.0       22.1       22.8       12.7     1016.1       22.1       17.3        0.0        0.0        0.0       0.00       27.8       0.04       0.00       29.0
9:04              221        0.0         54       22.2      255.0       22.2       22.9       12.5     1016.1       22.2       17.3        0.0        0.0        0.0       0.00       28.5       0.04       0.00       29.0
9:06              222        0.0         54       22.3      255.0       22.3       22.9       12.5     1016.2       22.3       17.3        0.0        0.0        0.0       0.00       28.9       0.04       0.00       29.0
9:08              217        0.0         53       22.3      255.0       22.3       22.9       12.3     1016.1       22.3       17.3        0.0        0.0        0.0       0.00       29.6       0.04       0.00       29.0
9:10              200        0.0         54       22.4      255.0       22.4       23.0       12.6     1016.2       22.4       17.3        0.0        0.0        0.0       0.00       30.0       0.04       0.00       29.0
9:12              197        0.0         54       22.5      255.0       22.5       23.2       12.7     1016.2       22.5       17.3        0.0        0.0        0.0       0.00       30.4       0.04       0.00       29.0
9:13              197        0.0         54       22.6      255.0       22.6       23.2       12.8     1016.1       22.6       17.3        0.0        0.0        0.0       0.00       30.6       0.04       0.00       29.0
9:16              196        0.0         54       22.6      255.0       22.6       23.3       12.8     1016.2       22.6       17.3        0.0        0.0        0.0       0.00       30.9       0.04       0.01       29.0
9:18              196        0.0         54       22.7      255.0       22.7       23.4       12.9     1016.3       22.7       17.3        0.0        0.0        0.0       0.00       31.2       0.04       0.01       29.0
9:20              196        0.0         53       22.8      255.0       22.8       23.4       12.7     1016.3       22.8       17.3        0.0        0.0        0.0       0.00       31.3       0.04       0.01       29.0
9:22              196        0.0         54       22.8      255.0       22.8       23.5       13.0     1016.3       22.8       17.3        0.0        0.0        0.0       0.00       31.5       0.04       0.01       29.0
9:23              196        0.0         54       22.9      255.0       22.9       23.6       13.1     1016.2       22.9       17.3        0.0        0.0        0.0       0.00       31.7       0.04       0.01       29.0
9:25              196        0.0         53       23.1      255.0       23.1       23.7       13.0     1016.3       23.1       17.3        0.0        0.0        0.0       0.00       32.0       0.04       0.01       29.0
9:28              196        0.0         53       23.1      255.0       23.1       23.7       13.0     1016.3       23.1       17.3        0.0        0.0        0.0       0.00       32.5       0.04       0.01       29.0
9:30              196        0.0         53       23.2      255.0       23.2       23.8       13.1     1016.3       23.2       17.3        0.0        0.0        0.0       0.00       32.8       0.04       0.01       29.0
9:32              196        0.0         53       23.3      255.0       23.3       23.9       13.2     1016.3       23.3       17.3        0.0        0.0        0.0       0.00       33.2       0.04       0.02       29.0
9:34              196        0.0         52       23.3      255.0       23.3       23.9       12.9     1016.3       23.3       17.3        0.0        0.0        0.0       0.00       33.6       0.04       0.02       29.0
9:36              196        0.0         53       23.4      255.0       23.4       24.0       13.3     1016.3       23.4       17.3        0.0        0.0        0.0       0.00       33.9       0.04       0.02       29.0
9:37              196        0.0         53       23.4      255.0       23.4       24.1       13.3     1016.4       23.4       17.3        0.0        0.0        0.0       0.00       34.2       0.04       0.02       29.0
9:40              196        0.0         52       23.4      255.0       23.4       24.0       13.0     1016.3       23.4       17.3        0.0        0.0        0.0       0.00       34.6       0.04       0.02       29.0
9:42              196        0.0         50       23.4      255.0       23.4       23.9       12.4     1016.4       23.4       17.3        0.0        0.0        0.0       0.00       35.2       0.04       0.02       29.0
9:44              196        0.0         50       23.6      255.0       23.6       24.0       12.5     1016.3       23.6       17.3        0.0        0.0        0.0       0.00       35.7       0.04       0.02       29.0
9:46              196        0.0         50       23.7      255.0       23.7       24.1       12.6     1016.4       23.7       17.3        0.0        0.0        0.0       0.00       36.0       0.04       0.04       29.0
9:48              196        0.0         50       23.8      255.0       23.8       24.2       12.7     1016.4       23.8       17.3        0.0        0.0        0.0       0.00       36.4       0.04       0.04       29.0
9:50              196        0.0         49       23.9      255.0       23.9       24.3       12.6     1016.3       23.9       17.3        0.0        0.0        0.0       0.00       36.8       0.04       0.04       29.0
9:52              196        0.0         49       24.1      255.0       24.1       24.5       12.7     1016.3       24.1       17.3        0.0        0.0        0.0       0.00       37.1       0.04       0.04       29.0
9:54              196        0.0         48       24.2      255.0       24.2       24.6       12.5     1016.3       24.2       17.3        0.0        0.0        0.0       0.00       37.2       0.04       0.04       29.0
9:55              195        0.0         48       24.4      255.0       24.4       24.7       12.7     1016.3       24.4       17.3        0.0        0.0        0.0       0.00       37.6       0.04       0.04       29.0
9:58              187        0.0         47       24.5      255.0       24.5       24.8       12.5     1016.3       24.5       17.3        0.0        0.0        0.0       0.00       37.9       0.04       0.04       29.0
10:00             186        0.0         47       24.7      255.0       24.7       25.0       12.6     1016.3       24.7       17.3        0.0        0.0        0.0       0.00       38.2       0.04       0.04       29.0
10:01             187        0.0         47       24.8      255.0       24.8       25.1       12.7     1016.4       24.8       17.3        0.0        0.0        0.0       0.00       38.5       0.04       0.06       29.0
10:04             187        0.0         46       24.8      255.0       24.8       25.1       12.4     1016.4       24.8       17.3        0.0        0.0        0.0       0.00       38.8       0.04       0.06       29.0
10:06             187        0.0         46       24.9      255.0       24.9       25.2       12.5     1016.4       24.9       17.3        0.0        0.0        0.0       0.00       39.2       0.04       0.06       29.0
10:08             187        0.0         46       25.0      255.0       25.0       25.2       12.6     1016.4       25.0       17.3        0.0        0.0        0.0       0.00       39.7       0.04       0.06       29.0
10:09             187        0.0         46       25.1      255.0       25.1       25.3       12.6     1016.3       25.1       17.3        0.0        0.0        0.0       0.00       40.1       0.04       0.06       29.0
10:12             186        0.0         46       25.1      255.0       25.1       25.4       12.7     1016.4       25.1       17.3        0.0        0.0        0.0       0.00       40.2       0.04       0.06       29.0
10:14             186        0.0         46       25.2      255.0       25.2       25.4       12.7     1016.4       25.2       17.3        0.0        0.0        0.0       0.00       40.7       0.04       0.06       29.0
10:16             186        0.0         45       25.2      255.0       25.2       25.4       12.5     1016.3       25.2       17.3        0.0        0.0        0.0       0.00       41.1       0.04       0.10       29.0
10:18             187        0.0         45       25.3      255.0       25.3       25.5       12.5     1016.4       25.3       17.3        0.0        0.0        0.0       0.00       41.7       0.04       0.10       29.0
10:20             186        0.0         45       25.3      255.0       25.3       25.5       12.5     1016.4       25.3       17.3        0.0        0.0        0.0       0.00       42.3       0.04       0.10       29.0
10:21             186        0.0         45       25.3      255.0       25.3       25.5       12.6     1016.4       25.3       17.3        0.0        0.0        0.0       0.00       42.9       0.04       0.10       29.0
10:24             186        0.0         45       25.3      255.0       25.3       25.5       12.6     1016.4       25.3       17.3        0.0        0.0        0.0       0.00       43.4       0.04       0.10       29.0
10:26             186        0.0         45       25.3      255.0       25.3       25.5       12.6     1016.3       25.4       17.3        0.0        0.0        0.0       0.00       43.6       0.04       0.10       29.0
10:27             186        0.0         45       25.4      255.0       25.4       25.6       12.7     1016.4       25.4       17.3        0.0        0.0        0.0       0.00       43.7       0.04       0.10       29.0
10:30             186        0.0         46       25.5      255.0       25.5       25.7       13.0     1016.4       25.5       17.3        0.0        0.0        0.0       0.00       43.9       0.04       0.10       29.0
10:32             186        0.0         46       25.6      255.0       25.6       25.8       13.1     1016.4       25.6       17.3        0.0        0.0        0.0       0.00       44.2       0.04       0.13       29.0
10:34             186        0.0         45       25.6      255.0       25.6       25.8       12.8     1016.4       25.6       17.3        0.0        0.0        0.0       0.00       44.8       0.04       0.13       29.0
10:36             186        0.0         45       25.6      255.0       25.6       25.8       12.8     1016.4       25.6       17.3        0.0        0.0        0.0       0.00       45.2       0.04       0.13       29.0
10:38             186        0.0         45       25.7      255.0       25.7       25.9       12.9     1016.4       25.7       17.3        0.0        0.0        0.0       0.00       45.7       0.04       0.13       29.0
10:40             186        0.0         45       25.7      255.0       25.7       25.9       12.9     1016.4       25.7       17.3        0.0        0.0        0.0       0.00       46.0       0.04       0.13       29.0
10:42             186        0.0         45       25.7      255.0       25.7       25.9       12.9     1016.4       25.7       17.3        0.0        0.0        0.0       0.00       46.3       0.04       0.13       29.0
10:44             186        0.0         45       25.7      255.0       25.7       25.9       12.9     1016.3       25.7       17.3        0.0        0.0        0.0       0.00       46.7       0.04       0.13       29.0
10:46             186        0.0         46       25.7      255.0       25.7       26.0       13.2     1016.3       25.7       17.3        0.0        0.0        0.0       0.00       46.9       0.04       0.17       29.0
10:48             186        0.0         46       25.7      255.0       25.7       26.0       13.2     1016.3       25.7       17.3        0.0        0.0        0.0       0.00       47.4       0.04       0.17       29.0
10:50             186        0.0         47       25.8      255.0       25.8       26.1       13.6     1016.3       25.8       17.3        0.0        0.0        0.0       0.00       47.8       0.04       0.17       29.0
10:52             186        0.0         46       25.8      255.0       25.8       26.0       13.3     1016.3       25.8       17.3        0.0        0.0        0.0       0.00       48.0       0.04       0.17       29.0
10:54             186        0.0         46       25.9      255.0       25.9       26.1       13.4     1016.2       25.9       17.3        0.0        0.0        0.0       0.00       48.2       0.04       0.17       29.0
10:56             186        0.0         46       26.0      255.0       26.0       26.2       13.5     1016.2       26.0       17.3        0.0        0.0        0.0       0.00       48.8       0.04       0.17       29.0
10:58             186        0.0         46       26.1      255.0       26.1       26.4       13.6     1016.2       26.1       17.3        0.0        0.0        0.0       0.00       49.4       0.04       0.17       29.0
11:00             186        0.0         46       26.2      255.0       26.2       26.4       13.6     1016.3       26.2       17.3        0.0        0.0        0.0       0.00       49.8       0.04       0.17       29.0
11:02             186        0.0         45       26.2      255.0       26.2       26.4       13.4     1016.2       26.2       17.3        0.0        0.0        0.0       0.00       50.3       0.04       0.22       29.0
11:04             186        0.0         46       26.3      255.0       26.3       26.5       13.7     1016.2       26.3       17.3        0.0        0.0        0.0       0.00       50.6       0.04       0.22       29.0
11:05             186        0.0         45       26.3      255.0       26.3       26.5       13.5     1016.2       26.3       17.3        0.0        0.0        0.0       0.00       51.0       0.04       0.22       29.0
11:08             186        0.0         46       26.3      255.0       26.3       26.6       13.8     1016.1       26.3       17.3        0.0        0.0        0.0       0.00       51.3       0.04       0.22       29.0
11:09             186        0.0         46       26.2      255.0       26.2       26.5       13.7     1016.1       26.3       17.3        0.0        0.0        0.0       0.00       51.5       0.04       0.22       29.0
11:12             186        0.0         46       26.3      255.0       26.3       26.5       13.7     1016.0       26.3       17.3        0.0        0.0        0.0       0.00       52.1       0.04       0.22       29.0
11:14             186        0.0         46       26.3      255.0       26.3       26.6       13.8     1015.9       26.3       17.3        0.0        0.0        0.0       0.00       52.8       0.04       0.22       29.0
11:16             186        0.0         45       26.4      255.0       26.4       26.6       13.6     1015.9       26.4       17.3        0.0        0.0        0.0       0.00       53.1       0.04       0.26       29.0
11:18             186        0.0         45       26.5      255.0       26.5       26.7       13.6     1016.0       26.5       17.3        0.0        0.0        0.0       0.00       53.5       0.04       0.26       29.0
11:20             186        0.0         46       26.6      255.0       26.6       26.8       14.0     1015.9       26.6       17.3        0.0        0.0        0.0       0.00       54.0       0.04       0.26       29.0
11:22             186        0.0         45       26.6      255.0       26.6       26.8       13.7     1016.0       26.6       17.3        0.0        0.0        0.0       0.00       54.4       0.04       0.26       29.0
11:24             186        0.0         45       26.7      255.0       26.7       26.9       13.8     1016.0       26.7       17.3        0.0        0.0        0.0       0.00       54.6       0.04       0.26       29.0
11:25             186        0.0         45       26.8      255.0       26.8       26.9       13.9     1016.0       26.8       17.3        0.0        0.0        0.0       0.00       54.9       0.04       0.26       29.0
11:28             186        0.0         45       26.9      255.0       26.9       27.0       14.0     1016.0       26.9       17.3        0.0        0.0        0.0       0.00       55.0       0.04       0.26       29.0
11:30             186        0.0         45       27.0      255.0       27.0       27.1       14.1     1015.8       27.0       17.3        0.0        0.0        0.0       0.00       55.1       0.04       0.26       29.0
11:32             186        0.0         44       27.1      255.0       27.1       27.1       13.8     1015.9       27.1       17.3        0.0        0.0        0.0       0.00       55.4       0.04       0.31       29.0
11:34             186        0.0         44       27.2      255.0       27.2       27.2       13.9     1015.8       27.2       17.3        0.0        0.0        0.0       0.00       55.6       0.04       0.31       29.0
11:36             186        0.0         44       27.3      255.0       27.3       27.3       14.0     1015.8       27.3       17.3        0.0        0.0        0.0       0.00       56.0       0.04       0.31       29.0
11:38             186        0.0         44       27.4      255.0       27.4       27.4       14.1     1015.8       27.4       17.3        0.0        0.0        0.0       0.00       56.5       0.04       0.31       29.0
11:40             186        0.0         43       27.6      255.0       27.6       27.5       13.9     1015.8       27.6       17.3        0.0        0.0        0.0       0.00       56.7       0.04       0.31       29.0
11:42             186        0.0         42       27.7      255.0       27.7       27.5       13.6     1015.8       27.7       17.3        0.0        0.0        0.0       0.00       56.9       0.04       0.31       29.0
11:44             186        0.0         42       27.8      255.0       27.8       27.7       13.8     1015.7       27.8       17.3        0.0        0.0        0.0       0.00       57.2       0.04       0.31       29.0
11:46             186        0.0         42       27.9      255.0       27.9       27.8       13.9     1015.8       27.9       17.3        0.0        0.0        0.0       0.00       57.6       0.04       0.37       29.0
11:48             186        0.0         42       28.0      255.0       28.0       27.8       13.9     1015.7       28.0       17.3        0.0        0.0        0.0       0.00       57.7       0.04       0.37       29.0
11:49             186        0.0         42       28.1      255.0       28.1       27.9       14.0     1015.8       28.1       17.3        0.0        0.0        0.0       0.00       57.7       0.04       0.37       29.0
11:52             186        0.0         42       28.0      255.0       28.0       27.8       13.9     1015.7       28.1       17.3        0.0        0.0        0.0       0.00       57.9       0.04       0.37       29.0
11:54             186        0.0         42       28.0      255.0       28.0       27.8       13.9     1015.6       28.1       17.3        0.0        0.0        0.0       0.00       58.0       0.04       0.37       29.0
11:55             186        0.0         42       27.9      255.0       27.9       27.8       13.9     1015.7       28.1       17.3        0.0        0.0        0.0       0.00       58.2       0.04       0.37       29.0
11:58             186        0.0         41       27.9      255.0       27.9       27.7       13.5     1015.6       28.1       17.3        0.0        0.0        0.0       0.00       58.5       0.04       0.37       29.0
12:00             186        0.0         42       27.9      255.0       27.9       27.7       13.8     1015.6       28.1       17.3        0.0        0.0        0.0       0.00       58.8       0.04       0.37       29.0
12:02             186        0.0         42       27.9      255.0       27.9       27.7       13.8     1015.5       28.1       17.3        0.0        0.0        0.0       0.00       59.0       0.04       0.44       29.0
12:03             186        0.0         42       27.9      255.0       27.9       27.8       13.9     1015.5       28.1       17.3        0.0        0.0        0.0       0.00       59.0       0.04       0.44       29.0
12:06             186        0.0         42       28.0      255.0       28.0       27.8       13.9     1015.6       28.1       17.3        0.0        0.0        0.0       0.00       59.3       0.04       0.44       29.0
12:08             186        0.0         41       28.0      255.0       28.0       27.7       13.5     1015.5       28.1       17.3        0.0        0.0        0.0       0.00       59.6       0.04       0.44       29.0
12:10             186        0.0         42       28.1      255.0       28.1       27.9       14.0     1015.5       28.1       17.3        0.0        0.0        0.0       0.00       59.7       0.04       0.44       29.0
12:12             186        0.0         42       28.1      255.0       28.1       27.9       14.0     1015.5       28.1       17.3        0.0        0.0        0.0       0.00       60.0       0.04       0.44       29.0
12:14             186        0.0         41       28.2      255.0       28.2       27.9       13.7     1015.5       28.2       17.3        0.0        0.0        0.0       0.00       60.3       0.04       0.44       29.0
12:16             186        0.0         41       28.3      255.0       28.3       28.0       13.8     1015.4       28.3       17.3        0.0        0.0        0.0       0.00       60.5       0.04       0.50       29.0
12:18             186        0.0         40       28.4      255.0       28.4       28.0       13.5     1015.4       28.4       17.3        0.0        0.0        0.0       0.00       61.1       0.04       0.50       29.0
12:20             186        0.0         40       28.4      255.0       28.4       28.1       13.6     1015.3       28.4       17.3        0.0        0.0        0.0       0.00       61.5       0.04       0.50       29.0
12:22             186        0.0         40       28.5      255.0       28.5       28.1       13.6     1015.3       28.5       17.3        0.0        0.0        0.0       0.00       61.6       0.04       0.50       29.0
12:24             186        0.0         41       28.6      255.0       28.6       28.3       14.0     1015.2       28.6       17.3        0.0        0.0        0.0       0.00       61.8       0.04       0.50       29.0
12:25             186        0.0         40       28.5      255.0       28.5       28.1       13.6     1015.3       28.6       17.3        0.0        0.0        0.0       0.00       62.1       0.04       0.50       29.0
12:28             186        0.0         40       28.5      255.0       28.5       28.1       13.6     1015.2       28.6       17.3        0.0        0.0        0.0       0.00       62.2       0.04       0.50       29.0
12:30             186        0.0         40       28.5      255.0       28.5       28.1       13.6     1015.3       28.6       17.3        0.0        0.0        0.0       0.00       62.3       0.04       0.50       29.0
12:32             186        0.0         40       28.6      255.0       28.6       28.2       13.7     1015.2       28.6       17.3        0.0        0.0        0.0       0.00       62.4       0.04       0.57       29.0
12:33             186        0.0         40       28.7      255.0       28.7       28.3       13.8     1015.2       28.7       17.3        0.0        0.0        0.0       0.00       62.8       0.04       0.57       29.0
12:36             186        0.0         39       28.8      255.0       28.8       28.3       13.5     1015.2       28.8       17.3        0.0        0.0        0.0       0.00       63.0       0.04       0.57       29.0
12:38             186        0.0         39       28.9      255.0       28.9       28.5       13.6     1015.1       28.9       17.3        0.0        0.0        0.0       0.00       63.2       0.04       0.57       29.0
12:39             186        0.0         38       29.1      255.0       29.1       28.5       13.3     1015.1       29.1       17.3        0.0        0.0        0.0       0.00       63.5       0.04       0.57       29.0
12:42             186        0.0         38       29.2      255.0       29.2       28.7       13.5     1015.2       29.2       17.3        0.0        0.0        0.0       0.00       63.8       0.04       0.57       29.0
12:44             186        0.0         38       29.3      255.0       29.3       28.8       13.6     1015.2       29.3       17.3        0.0        0.0        0.0       0.00       64.0       0.04       0.57       29.0
12:45             186        0.0         38       29.3      255.0       29.3       28.8       13.6     1015.1       29.4       17.3        0.0        0.0        0.0       0.00       64.1       0.04       0.64       29.0
12:48             186        0.0         38       29.4      255.0       29.4       28.8       13.6     1015.1       29.4       17.3        0.0        0.0        0.0       0.00       64.4       0.04       0.64       29.0
12:49             186        0.0         38       29.4      255.0       29.4       28.9       13.7     1015.1       29.4       17.3        0.0        0.0        0.0       0.00       64.6       0.04       0.64       29.0
12:52             186        0.0         38       29.6      255.0       29.6       29.0       13.8     1015.1       29.6       17.3        0.0        0.0        0.0       0.00       64.8       0.04       0.64       29.0
12:54             186        0.0         37       29.6      255.0       29.6       28.9       13.3     1015.0       29.6       17.3        0.0        0.0        0.0       0.00       64.9       0.04       0.64       29.0
12:56             186        0.0         37       29.6      255.0       29.6       28.9       13.3     1015.1       29.6       17.3        0.0        0.0        0.0       0.00       65.0       0.04       0.64       29.0
12:57             186        0.0         38       29.6      255.0       29.6       29.0       13.8     1015.0       29.6       17.3        0.0        0.0        0.0       0.00       65.2       0.04       0.64       29.0
13:00             186        0.0         36       29.7      255.0       29.7       28.9       13.0     1015.1       29.7       17.3        0.0        0.0        0.0       0.00       65.4       0.04       0.64       29.0
13:02             186        0.0         37       29.7      255.0       29.7       29.0       13.4     1015.0       29.7       17.3        0.0        0.0        0.0       0.00       65.7       0.04       0.72       29.0
13:03             186        0.0         36       29.6      255.0       29.6       28.9       13.0     1014.9       29.7       17.3        0.0        0.0        0.0       0.00       65.9       0.04       0.72       29.0
13:06             186        0.0         36       29.6      255.0       29.6       28.9       13.0     1015.0       29.7       17.3        0.0        0.0        0.0       0.00       66.0       0.04       0.72       29.0
13:08             186        0.0         36       29.7      255.0       29.7       28.9       13.0     1014.9       29.7       17.3        0.0        0.0        0.0       0.00       66.1       0.04       0.72       29.0
13:10             186        0.0         36       29.7      255.0       29.7       29.0       13.1     1014.9       29.7       17.3        0.0        0.0        0.0       0.00       66.3       0.04       0.72       29.0
13:12             186        0.0         37       29.7      255.0       29.7       29.1       13.5     1014.9       29.7       17.3        0.0        0.0        0.0       0.00       66.5       0.04       0.72       29.0
13:14             186        0.0         35       29.8      255.0       29.8       28.9       12.7     1014.8       29.8       17.3        0.0        0.0        0.0       0.00       67.1       0.04       0.72       29.0
13:16             186        0.0         35       29.8      255.0       29.8       29.0       12.7     1014.8       29.8       17.3        0.0        0.0        0.0       0.00       67.7       0.04       0.81       29.0
13:18             186        0.0         36       29.9      255.0       29.9       29.2       13.3     1014.8       29.9       17.3        0.0        0.0        0.0       0.00       68.0       0.04       0.81       29.0
13:20             186        0.0         35       30.1      255.0       30.1       29.3       13.0     1014.8       30.1       17.3        0.0        0.0        0.0       0.00       68.0       0.04       0.81       29.0
13:22             186        0.0         35       30.2      255.0       30.2       29.4       13.1     1014.8       30.2       17.3        0.0        0.0        0.0       0.00       68.1       0.04       0.81       29.0
13:23             186        0.0         35       30.4      255.0       30.4       29.6       13.2     1014.8       30.4       17.3        0.0        0.0        0.0       0.00       68.3       0.04       0.81       29.0
13:26             186        0.0         34       30.4      255.0       30.4       29.5       12.8     1014.7       30.4       17.3        0.0        0.0        0.0       0.00       68.7       0.04       0.81       29.0
13:28             186        0.0         34       30.4      255.0       30.4       29.5       12.8     1014.7       30.4       17.3        0.0        0.0        0.0       0.00       68.9       0.04       0.81       29.0
13:30             186        0.0         35       30.4      255.0       30.4       29.6       13.3     1014.6       30.4       17.3        0.0        0.0        0.0       0.00       69.3       0.04       0.81       29.0
13:32             186        0.0         34       30.5      255.0       30.5       29.6       12.9     1014.6       30.5       17.3        0.0        0.0        0.0       0.00       69.4       0.04       0.89       29.0
13:33             186        0.0         34       30.6      255.0       30.6       29.7       12.9     1014.5       30.6       17.3        0.0        0.0        0.0       0.00       69.7       0.04       0.89       29.0
13:36             186        0.0         34       30.6      255.0       30.6       29.7       13.0     1014.6       30.6       17.3        0.0        0.0        0.0       0.00       69.9       0.04       0.89       29.0
13:38             186        0.0         35       30.7      255.0       30.7       29.9       13.5     1014.5       30.7       17.3        0.0        0.0        0.0       0.00       70.2       0.04       0.89       29.0
13:40             186        0.0         34       30.8      255.0       30.8       29.9       13.1     1014.4       30.8       17.3        0.0        0.0        0.0       0.00       70.5       0.04       0.89       29.0
13:41             170        0.0         34       30.8      255.0       30.8       30.0       13.2     1014.5       30.8       17.3        0.0        0.0        0.0       0.00       70.9       0.04       0.89       29.0
13:44             170        0.0         34       30.9      255.0       30.9       30.0       13.2     1014.4       30.9       17.3        0.0        0.0        0.0       0.00       71.1       0.04       0.89       29.0
13:46             167        0.0         33       31.0      255.0       31.0       30.0       12.9     1014.4       31.0       17.3        0.0        0.0        0.0       0.00       71.6       0.04       0.99       29.0
13:48             167        0.0         33       31.1      255.0       31.1       30.2       13.0     1014.4       31.1       17.3        0.0        0.0        0.0       0.00       71.8       0.04       0.99       29.0
13:50             167        0.0         34       31.2      255.0       31.2       30.3       13.5     1014.4       31.2       17.3        0.0        0.0        0.0       0.00       71.9       0.04       0.99       29.0
13:52             167        0.0         33       31.2      255.0       31.2       30.3       13.1     1014.3       31.2       17.3        0.0        0.0        0.0       0.00       72.3       0.04       0.99       29.0
13:54             168        0.0         34       31.4      255.0       31.4       30.6       13.7     1014.3       31.4       17.3        0.0        0.0        0.0       0.00       72.5       0.04       0.99       29.0
13:56             167        0.0         34       31.5      255.0       31.5       30.7       13.8     1014.2       31.5       17.3        0.0        0.0        0.0       0.00       72.7       0.04       0.99       29.0
13:58             168        0.0         34       31.6      255.0       31.6       30.8       13.8     1014.3       31.6       17.3        0.0        0.0        0.0       0.00       73.2       0.04       0.99       29.0
14:00             167        0.0         33       31.5      255.0       31.5       30.6       13.3     1014.3       31.6       17.3        0.0        0.0        0.0       0.00       73.6       0.04       0.99       29.0
14:02             167        0.0         34       31.5      255.0       31.5       30.7       13.8     1014.3       31.6       17.3        0.0        0.0        0.0       0.00       73.8       0.04       1.09       29.0
14:03             167        0.0         34       31.6      255.0       31.6       30.8       13.8     1014.3       31.6       17.3        0.0        0.0        0.0       0.00       73.9       0.04       1.09       29.0
14:06             168        0.0         34       31.6      255.0       31.6       30.9       13.8     1014.2       31.6       17.3        0.0        0.0        0.0       0.00       74.3       0.04       1.09       29.0
14:08             167        0.0         35       31.7      255.0       31.7       31.1       14.4     1014.2       31.7       17.3        0.0        0.0        0.0       0.00       74.7       0.04       1.09       29.0
14:10             167        0.0         35       31.7      255.0       31.7       31.1       14.4     1014.2       31.8       17.3        0.0        0.0        0.0       0.00       75.1       0.04       1.09       29.0
14:12             167        0.0         35       31.7      255.0       31.7       31.1       14.4     1014.2       31.8       17.3        0.0        0.0        0.0       0.00       75.6       0.04       1.09       29.0
14:14             167        0.0         34       31.7      255.0       31.7       30.9       13.9     1014.2       31.8       17.3        0.0        0.0        0.0       0.00       75.9       0.04       1.09       29.0
14:16             167        0.0         34       31.7      255.0       31.7       30.9       13.9     1014.1       31.8       17.3        0.0        0.0        0.0       0.00       76.1       0.04       1.19       29.0
14:18             167        0.0         34       31.7      255.0       31.7       30.9       13.9     1014.1       31.8       17.3        0.0        0.0        0.0       0.00       76.2       0.04       1.19       29.0
14:20             167        0.0         35       31.7      255.0       31.7       31.1       14.4     1014.1       31.8       17.3        0.0        0.0        0.0       0.00       76.3       0.04       1.19       29.0
14:22             167        0.0         34       31.8      255.0       31.8       31.1       14.0     1014.1       31.8       17.3        0.0        0.0        0.0       0.00       76.5       0.04       1.19       29.0
14:24             167        0.0         34       31.8      255.0       31.8       31.1       14.0     1014.1       31.8       17.3        0.0        0.0        0.0       0.00       76.8       0.04       1.19       29.0
14:26             167        0.0         33       31.9      255.0       31.9       31.1       13.6     1014.1       31.9       17.3        0.0        0.0        0.0       0.00       77.7       0.04       1.19       29.0
14:28             167        0.0         34       31.8      255.0       31.8       31.1       14.0     1014.1       31.9       17.3        0.0        0.0        0.0       0.00       78.2       0.04       1.19       29.0
14:30             167        0.0         33       31.7      255.0       31.7       30.8       13.4     1014.1       31.9       17.3        0.0        0.0        0.0       0.00       78.7       0.04       1.19       29.0
14:31             167        0.0         34       31.6      255.0       31.6       30.8       13.8     1014.1       31.9       17.3        0.0        0.0        0.0       0.00       79.1       0.04       1.29       29.0
14:34             167        0.0         33       31.6      255.0       31.6       30.7       13.3     1014.0       31.9       17.3        0.0        0.0        0.0       0.00       79.9       0.04       1.29       29.0
14:36             168        0.0         33       31.6      255.0       31.6       30.7       13.4     1014.0       31.9       17.3        0.0        0.0        0.0       0.00       80.3       0.04       1.29       29.0
14:38             167        0.0         34       31.7      255.0       31.7       30.9       13.9     1014.0       31.9       17.3        0.0        0.0        0.0       0.00       80.5       0.04       1.29       29.0
14:40             167        0.0         34       31.7      255.0       31.7       31.0       13.9     1014.0       31.9       17.3        0.0        0.0        0.0       0.00       81.1       0.04       1.29       29.0
14:42             167        0.0         33       31.7      255.0       31.7       30.8       13.4     1014.0       31.9       17.3        0.0        0.0        0.0       0.00       82.0       0.04       1.29       29.0
14:44             167        0.0         33       31.6      255.0       31.6       30.7       13.4     1013.9       31.9       17.3        0.0        0.0        0.0       0.00       82.6       0.04       1.29       29.0
14:46             167        0.0         32       31.6      255.0       31.6       30.5       12.9     1014.0       31.9       17.3        0.0        0.0        0.0       0.00       83.6       0.04       1.39       29.0
14:48             167        0.0         33       31.5      255.0       31.5       30.6       13.3     1013.9       31.9       17.3        0.0        0.0        0.0       0.00       84.3       0.04       1.39       29.0
14:50             167        0.0         34       31.4      255.0       31.4       30.7       13.7     1013.9       31.9       17.3        0.0        0.0        0.0       0.00       84.7       0.04       1.39       29.0
14:51             167        0.0         33       31.5      255.0       31.5       30.6       13.3     1013.9       31.9       17.3        0.0        0.0        0.0       0.00       85.1       0.04       1.39       29.0
14:54             167        0.0         33       31.5      255.0       31.5       30.6       13.3     1014.0       31.9       17.3        0.0        0.0        0.0       0.00       85.4       0.04       1.39       29.0
14:56             167        0.0         33       31.6      255.0       31.6       30.7       13.3     1013.9       31.9       17.3        0.0        0.0        0.0       0.00       85.6       0.04       1.39       29.0
14:58             167        0.0         34       31.6      255.0       31.6       30.8       13.8     1014.0       31.9       17.3        0.0        0.0        0.0       0.00       86.2       0.04       1.39       29.0
15:00             167        0.0         34       31.6      255.0       31.6       30.9       13.8     1013.9       31.9       17.3        0.0        0.0        0.0       0.00       86.8       0.04       1.39       29.0
15:02             167        0.0         34       31.7      255.0       31.7       30.9       13.9     1013.9       31.9       17.3        0.0        0.0        0.0       0.00       87.6       0.04       1.49       29.0
15:04             167        0.0         33       31.8      255.0       31.8       31.0       13.6     1013.8       31.9       17.3        0.0        0.0        0.0       0.00       88.0       0.04       1.49       29.0
15:06             167        0.0         33       32.0      255.0       32.0       31.2       13.7     1013.7       32.0       17.3        0.0        0.0        0.0       0.00       88.1       0.04       1.49       29.0
15:08             167        0.0         33       32.2      255.0       32.2       31.4       13.9     1013.8       32.2       17.3        0.0        0.0        0.0       0.00       88.2       0.04       1.49       29.0
15:10             167        0.0         33       32.2      255.0       32.2       31.5       13.9     1013.9       32.2       17.3        0.0        0.0        0.0       0.00       88.7       0.04       1.49       29.0
15:12             167        0.0         32       32.2      255.0       32.2       31.3       13.5     1013.8       32.2       17.3        0.0        0.0        0.0       0.00       89.2       0.04       1.49       29.0
15:14             167        0.0         31       32.2      255.0       32.2       31.2       13.0     1013.8       32.2       17.3        0.0        0.0        0.0       0.00       89.4       0.04       1.49       29.0
15:16             167        0.0         31       32.2      255.0       32.2       31.2       13.0     1013.8       32.2       17.3        0.0        0.0        0.0       0.00       90.0       0.04       1.59       29.0
15:18             167        0.0         31       32.2      255.0       32.2       31.2       13.0     1013.9       32.2       17.3        0.0        0.0        0.0       0.00       90.9       0.04       1.59       29.0
15:20             167        0.0         31       32.3      255.0       32.3       31.3       13.0     1013.8       32.3       17.3        0.0        0.0        0.0       0.00       91.6       0.04       1.59       29.0
15:21             168        0.0         31       32.4      255.0       32.4       31.4       13.1     1013.8       32.4       17.3        0.0        0.0        0.0       0.00       92.1       0.04       1.59       29.0
15:23             167        0.0         31       32.5      255.0       32.5       31.5       13.2     1013.7       32.5       17.3        0.0        0.0        0.0       0.00       92.3       0.04       1.59       29.0
15:26             168        0.0         30       32.6      255.0       32.6       31.5       12.8     1013.8       32.6       17.3        0.0        0.0        0.0       0.00       93.0       0.04       1.59       29.0
15:28             167        0.0         30       32.6      255.0       32.6       31.5       12.8     1013.8       32.6       17.3        0.0        0.0        0.0       0.00       93.3       0.04       1.59       29.0
15:30             167        0.0         31       32.6      255.0       32.6       31.6       13.3     1013.8       32.6       17.3        0.0        0.0        0.0       0.00       93.5       0.04       1.59       29.0
15:32             167        0.0         32       32.6      255.0       32.6       31.7       13.7     1013.8       32.6       17.3        0.0        0.0        0.0       0.00       93.9       0.04       1.70       29.0
15:34             167        0.0         31       32.5      255.0       32.5       31.5       13.2     1013.8       32.6       17.3        0.0        0.0        0.0       0.00       94.4       0.04       1.70       29.0
15:36             167        0.0         30       32.4      255.0       32.4       31.3       12.7     1013.7       32.6       17.3        0.0        0.0        0.0       0.00       94.8       0.04       1.70       29.0
15:38             167        0.0         30       32.4      255.0       32.4       31.3       12.6     1013.8       32.6       17.3        0.0        0.0        0.0       0.00       95.2       0.04       1.70       29.0
15:40             167        0.0         32       32.3      255.0       32.3       31.5       13.5     1013.7       32.6       17.3        0.0        0.0        0.0       0.00       95.4       0.04       1.70       29.0
15:42             167        0.0         31       32.3      255.0       32.3       31.3       13.0     1013.8       32.6       17.3        0.0        0.0        0.0       0.00       95.7       0.04       1.70       29.0
15:44             167        0.0         32       32.1      255.0       32.1       31.2       13.4     1013.8       32.6       17.3        0.0        0.0        0.0       0.00       96.4       0.04       1.70       29.0
15:46             167        0.0         30       32.1      255.0       32.1       30.9       12.4     1013.8       32.6       17.3        0.0        0.0        0.0       0.00       97.2       0.04       1.81       29.0
15:48             167        0.0         30       32.1      255.0       32.1       30.9       12.3     1013.7       32.6       17.3        0.0        0.0        0.0       0.00       97.8       0.04       1.81       29.0
15:50             167        0.0         30       32.1      255.0       32.1       30.9       12.4     1013.8       32.6       17.3        0.0        0.0        0.0       0.00       98.4       0.04       1.81       29.0
15:52             167        0.0         30       32.1      255.0       32.1       30.9       12.4     1013.8       32.6       17.3        0.0        0.0        0.0       0.00       99.1       0.04       1.81       29.0
15:53             167        0.0         30       32.3      255.0       32.3       31.1       12.5     1013.7       32.6       17.3        0.0        0.0        0.0       0.00       99.2       0.04       1.81       29.0
15:56             166        0.0         31       32.4      255.0       32.4       31.4       13.1     1013.8       32.6       17.3        0.0        0.0        0.0       0.00       99.7       0.04       1.81       29.0
15:57             167        0.0         31       32.4      255.0       32.4       31.5       13.2     1013.7       32.6       17.3        0.0        0.0        0.0       0.00       99.9       0.04       1.81       29.0
16:00             167        0.0         31       32.5      255.0       32.5       31.5       13.2     1013.7       32.6       17.3        0.0        0.0        0.0       0.00      100.3       0.04       1.81       29.0
16:02             166        0.0         31       32.5      255.0       32.5       31.5       13.2     1013.6       32.6       17.3        0.0        0.0        0.0       0.00      100.7       0.04       1.92       29.0
16:03             167        0.0         31       32.4      255.0       32.4       31.4       13.1     1013.6       32.6       17.3        0.0        0.0        0.0       0.00      101.5       0.04       1.92       29.0
16:06             166        0.0         30       32.4      255.0       32.4       31.3       12.6     1013.6       32.6       17.3        0.0        0.0        0.0       0.00      102.0       0.04       1.92       29.0
16:08             166        0.0         31       32.4      255.0       32.4       31.5       13.2     1013.6       32.6       17.3        0.0        0.0        0.0       0.00      102.4       0.04       1.92       29.0
16:10             166        0.0         31       32.6      255.0       32.6       31.7       13.3     1013.6       32.6       17.3        0.0        0.0        0.0       0.00      102.8       0.04       1.92       29.0
16:11             167        0.0         30       32.7      255.0       32.7       31.7       12.9     1013.6       32.7       17.3        0.0        0.0        0.0       0.00      103.5       0.04       1.92       29.0
16:14             166        0.0         30       32.8      255.0       32.8       31.8       13.0     1013.6       32.8       17.3        0.0        0.0        0.0       0.00      104.0       0.04       1.92       29.0
16:16             165        0.0         30       32.9      255.0       32.9       31.9       13.1     1013.6       32.9       17.3        0.0        0.0        0.0       0.00      104.6       0.04       2.03       29.0
16:18             163        0.0         29       33.0      255.0       33.0       31.9       12.6     1013.5       33.0       17.3        0.0        0.0        0.0       0.00      104.9       0.04       2.03       29.0
16:20             163        0.0         29       33.1      255.0       33.1       32.0       12.7     1013.5       33.1       17.3        0.0        0.0        0.0       0.00      105.3       0.04       2.03       29.0
16:22             163        0.0         29       33.2      255.0       33.2       32.1       12.8     1013.4       33.2       17.3        0.0        0.0        0.0       0.00      105.5       0.04       2.03       29.0
16:24             163        0.0         30       33.3      255.0       33.3       32.3       13.4     1013.5       33.3       17.3        0.0        0.0        0.0       0.00      105.8       0.04       2.03       29.0
16:26             163        0.0         29       33.4      255.0       33.4       32.3       12.9     1013.5       33.4       17.3        0.0        0.0        0.0       0.00      105.9       0.04       2.03       29.0
16:27             163        0.0         29       33.5      255.0       33.5       32.5       13.0     1013.4       33.5       17.3        0.0        0.0        0.0       0.00      106.2       0.04       2.03       29.0
16:30             163        0.0         29       33.6      255.0       33.6       32.6       13.1     1013.5       33.6       17.3        0.0        0.0        0.0       0.00      106.4       0.04       2.03       29.0
16:31             163        0.0         29       33.7      255.0       33.7       32.8       13.2     1013.5       33.7       17.3        0.0        0.0        0.0       0.00      106.4       0.04       2.15       29.0
16:34             163        0.0         29       33.8      255.0       33.8       32.8       13.3     1013.4       33.8       17.3        0.0        0.0        0.0       0.00      106.5       0.04       2.15       29.0
16:35             163        0.0         29       33.8      255.0       33.8       32.9       13.3     1013.4       33.8       17.3        0.0        0.0        0.0       0.00      106.7       0.04       2.15       29.0
16:38             163        0.0         28       33.9      255.0       33.9       32.8       12.8     1013.3       33.9       17.3        0.0        0.0        0.0       0.00      107.2       0.04       2.15       29.0
16:40             163        0.0         29       33.9      255.0       33.9       33.0       13.4     1013.4       33.9       17.3        0.0        0.0        0.0       0.00      107.3       0.04       2.15       29.0
16:42             163        0.0         29       33.9      255.0       33.9       33.0       13.4     1013.2       33.9       17.3        0.0        0.0        0.0       0.00      107.5       0.04       2.15       29.0
16:43             163        0.0         29       34.0      255.0       34.0       33.1       13.5     1013.3       34.0       17.3        0.0        0.0        0.0       0.00      107.8       0.04       2.15       29.0
16:46             163        0.0         28       34.1      255.0       34.1       33.0       13.0     1013.2       34.1       17.3        0.0        0.0        0.0       0.00      108.1       0.04       2.28       29.0
16:48             163        0.0         28       34.1      255.0       34.1       33.1       13.0     1013.2       34.1       17.3        0.0        0.0        0.0       0.00      108.5       0.04       2.28       29.0
16:50             163        0.0         28       34.0      255.0       34.0       33.0       12.9     1013.2       34.1       17.3        0.0        0.0        0.0       0.00      109.0       0.04       2.28       29.0
16:52             163        0.0         28       34.0      255.0       34.0       33.0       12.9     1013.4       34.1       17.3        0.0        0.0        0.0       0.00      109.4       0.04       2.28       29.0
16:54             163        0.0         28       33.9      255.0       33.9       32.9       12.9     1013.4       34.1       17.3        0.0        0.0        0.0       0.00      109.8       0.04       2.28       29.0
16:56             163        0.0         28       33.9      255.0       33.9       32.9       12.9     1013.3       34.1       17.3        0.0        0.0        0.0       0.00      110.0       0.04       2.28       29.0
16:58             163        0.0         28       33.9      255.0       33.9       32.8       12.8     1013.2       34.1       17.3        0.0        0.0        0.0       0.00      110.3       0.04       2.28       29.0
17:00             163        0.0         29       33.9      255.0       33.9       33.0       13.4     1013.3       34.1       17.3        0.0        0.0        0.0       0.00      110.4       0.04       2.28       29.0
17:02             163        0.0         28       34.0      255.0       34.0       33.0       12.9     1013.2       34.1       17.3        0.0        0.0        0.0       0.00      110.7       0.04       2.40       29.0
17:04             163        0.0         28       34.1      255.0       34.1       33.0       13.0     1013.2       34.1       17.3        0.0        0.0        0.0       0.00      111.1       0.04       2.40       29.0
17:06             163        0.0         28       34.1      255.0       34.1       33.0       13.0     1013.3       34.1       17.3        0.0        0.0        0.0       0.00      111.3       0.04       2.40       29.0
17:08             163        0.0         28       34.0      255.0       34.0       33.0       12.9     1013.2       34.1       17.3        0.0        0.0        0.0       0.00      111.5       0.04       2.40       29.0
17:10             163        0.0         28       34.0      255.0       34.0       33.0       12.9     1013.2       34.1       17.3        0.0        0.0        0.0       0.00      111.9       0.04       2.40       29.0
17:12             163        0.0         28       33.9      255.0       33.9       32.9       12.9     1013.2       34.1       17.3        0.0        0.0        0.0       0.00      112.3       0.04       2.40       29.0
17:14             163        0.0         29       33.9      255.0       33.9       33.0       13.4     1013.2       34.1       17.3        0.0        0.0        0.0       0.00      112.7       0.04       2.40       29.0
17:15             163        0.0         29       33.9      255.0       33.9       33.0       13.4     1013.2       34.1       17.3        0.0        0.0        0.0       0.00      112.9       0.04       2.53       29.0
17:18             163        0.0         29       33.9      255.0       33.9       33.0       13.4     1013.3       34.1       17.3        0.0        0.0        0.0       0.00      113.1       0.04       2.53       29.0
17:19             163        0.0         29       33.9      255.0       33.9       33.0       13.4     1013.4       34.1       17.3        0.0        0.0        0.0       0.00      113.2       0.04       2.53       29.0
17:22             163        0.0         28       33.9      255.0       33.9       32.8       12.8     1013.4       34.1       17.3        0.0        0.0        0.0       0.00      113.6       0.04       2.53       29.0
17:24             163        0.0         28       33.8      255.0       33.8       32.7       12.7     1013.4       34.1       17.3        0.0        0.0        0.0       0.00      114.0       0.04       2.53       29.0
17:26             163        0.0         28       33.7      255.0       33.7       32.5       12.6     1013.4       34.1       17.3        0.0        0.0        0.0       0.00      114.3       0.04       2.53       29.0
17:28             163        0.0         28       33.6      255.0       33.6       32.5       12.6     1013.4       34.1       17.3        0.0        0.0        0.0       0.00      114.7       0.04       2.53       29.0
17:30             163        0.0         28       33.5      255.0       33.5       32.3       12.5     1013.3       34.1       17.3        0.0        0.0        0.0       0.00      115.0       0.04       2.53       29.0
17:32             163        0.0         29       33.4      255.0       33.4       32.4       13.0     1013.4       34.1       17.3        0.0        0.0        0.0       0.00      115.4       0.04       2.65       29.0
17:34             163        0.0         30       33.4      255.0       33.4       32.5       13.5     1013.4       34.1       17.3        0.0        0.0        0.0       0.00      115.7       0.04       2.65       29.0
17:36             163        0.0         30       33.3      255.0       33.3       32.4       13.4     1013.2       34.1       17.3        0.0        0.0        0.0       0.00      116.1       0.04       2.65       29.0
17:38             163        0.0         30       33.2      255.0       33.2       32.3       13.3     1013.4       34.1       17.3        0.0        0.0        0.0       0.00      116.6       0.04       2.65       29.0
17:39             165        0.0         30       33.1      255.0       33.1       32.1       13.2     1013.4       34.1       17.3        0.0        0.0        0.0       0.00      117.2       0.04       2.65       29.0
17:42             165        0.0         30       32.9      255.0       32.9       31.9       13.1     1013.3       34.1       17.3        0.0        0.0        0.0       0.00      117.6       0.04       2.65       29.0
17:44             165        0.0         30       32.8      255.0       32.8       31.7       12.9     1013.4       34.1       17.3        0.0        0.0        0.0       0.00      118.0       0.04       2.65       29.0
17:46             167        0.0         30       32.7      255.0       32.7       31.6       12.8     1013.4       34.1       17.3        0.0        0.0        0.0       0.00      118.6       0.04       2.76       29.0
17:48             166        0.0         30       32.6      255.0       32.6       31.5       12.8     1013.3       34.1       17.3        0.0        0.0        0.0       0.00      119.1       0.04       2.76       29.0
17:50             166        0.0         30       32.4      255.0       32.4       31.3       12.6     1013.4       34.1       17.3        0.0        0.0        0.0       0.00      119.5       0.04       2.76       29.0
17:51             166        0.0         30       32.3      255.0       32.3       31.2       12.6     1013.4       34.1       17.3        0.0        0.0        0.0       0.00      120.0       0.04       2.76       29.0
17:54             166        0.0         31       32.2      255.0       32.2       31.2       13.0     1013.4       34.1       17.3        0.0        0.0        0.0       0.00      120.4       0.04       2.76       29.0
17:56             166        0.0         31       32.1      255.0       32.1       31.1       12.9     1013.3       34.1       17.3        0.0        0.0        0.0       0.00      120.8       0.04       2.76       29.0
17:58             166        0.0         31       32.0      255.0       32.0       30.9       12.8     1013.3       34.1       17.3        0.0        0.0        0.0       0.00      121.3       0.04       2.76       29.0
18:00             167        0.0         31       31.9      255.0       31.9       30.8       12.7     1013.4       34.1       17.3        0.0        0.0        0.0       0.00      121.7       0.04       2.76       29.0
18:02             166        0.0         32       31.8      255.0       31.8       30.9       13.1     1013.3       34.1       17.3        0.0        0.0        0.0       0.00      122.0       0.04       2.86       29.0
18:04             166        0.0         32       31.7      255.0       31.7       30.7       13.0     1013.4       34.1       17.3        0.0        0.0        0.0       0.00      122.2       0.04       2.86       29.0
18:06             166        0.0         33       31.5      255.0       31.5       30.6       13.3     1013.3       34.1       17.3        0.0        0.0        0.0       0.00      122.5       0.04       2.86       29.0
18:08             166        0.0         33       31.3      255.0       31.3       30.3       13.1     1013.4       34.1       17.3        0.0        0.0        0.0       0.00      122.9       0.04       2.86       29.0
18:10             166        0.0         33       31.1      255.0       31.1       30.1       12.9     1013.4       34.1       17.3        0.0        0.0        0.0       0.00      123.2       0.04       2.86       29.0
18:12             166        0.0         33       30.8      255.0       30.8       29.8       12.7     1013.4       34.1       17.3        0.0        0.0        0.0       0.00      123.6       0.04       2.86       29.0
18:14             166        0.0         34       30.7      255.0       30.7       29.8       13.0     1013.5       34.1       17.3        0.0        0.0        0.0       0.00      124.0       0.04       2.86       29.0
18:15             166        0.0         34       30.5      255.0       30.5       29.6       12.9     1013.5       34.1       17.3        0.0        0.0        0.0       0.00      124.3       0.04       2.95       29.0
18:18             166        0.0         34       30.3      255.0       30.3       29.4       12.7     1013.4       34.1       17.3        0.0        0.0        0.0       0.00      124.7       0.04       2.95       29.0
18:20             166        0.0         35       30.2      255.0       30.2       29.3       13.0     1013.4       34.1       17.3        0.0        0.0        0.0       0.00      125.0       0.04       2.95       29.0
18:22             167        0.0         35       30.1      255.0       30.1       29.2       12.9     1013.3       34.1       17.3        0.0        0.0        0.0       0.00      125.2       0.04       2.95       29.0
18:24             166        0.0         35       29.9      255.0       29.9       29.1       12.8     1013.4       34.1       17.3        0.0        0.0        0.0       0.00      125.5       0.04       2.95       29.0
18:26             171        0.0         36       29.8      255.0       29.8       29.0       13.1     1013.6       34.1       17.3        0.0        0.0        0.0       0.00      125.9       0.04       2.95       29.0
18:27             186        0.0         36       29.6      255.0       29.6       28.9       13.0     1013.7       34.1       17.3        0.0        0.0        0.0       0.00      126.4       0.04       2.95       29.0
18:30             187        0.0         36       29.4      255.0       29.4       28.7       12.8     1013.6       34.1       17.3        0.0        0.0        0.0       0.00      126.8       0.04       2.95       29.0
18:32             191        0.0         37       29.2      255.0       29.2       28.6       13.0     1013.6       34.1       17.3        0.0        0.0        0.0       0.00      127.3       0.04       3.03       29.0
18:34             193        0.0         37       29.0      255.0       29.0       28.4       12.9     1013.6       34.1       17.3        0.0        0.0        0.0       0.00      127.7       0.04       3.03       29.0
18:35             193        0.0         38       28.8      255.0       28.8       28.3       13.1     1013.7       34.1       17.3        0.0        0.0        0.0       0.00      128.1       0.04       3.03       29.0
18:38             192        0.0         38       28.7      255.0       28.7       28.1       13.0     1013.7       34.1       17.3        0.0        0.0        0.0       0.00      128.4       0.04       3.03       29.0
18:40             193        0.0         38       28.4      255.0       28.4       27.9       12.8     1013.7       34.1       17.3        0.0        0.0        0.0       0.00      128.8       0.04       3.03       29.0
18:42             193        0.0         39       28.3      255.0       28.3       27.8       13.0     1013.7       34.1       17.3        0.0        0.0        0.0       0.00      129.1       0.04       3.03       29.0
18:44             193        0.0         39       28.1      255.0       28.1       27.7       12.9     1013.7       34.1       17.3        0.0        0.0        0.0       0.00      129.5       0.04       3.03       29.0
18:46             193        0.0         39       28.0      255.0       28.0       27.6       12.8     1013.8       34.1       17.3        0.0        0.0        0.0       0.00      129.8       0.04       3.09       29.0
18:47             196        0.0         39       27.8      255.0       27.8       27.5       12.6     1013.7       34.1       17.3        0.0        0.0        0.0       0.00      130.2       0.04       3.09       29.0
18:50             199        0.0         39       27.7      255.0       27.7       27.4       12.5     1013.7       34.1       17.3        0.0        0.0        0.0       0.00      130.6       0.04       3.09       29.0
18:52             199        0.0         39       27.6      255.0       27.6       27.3       12.4     1013.7       34.1       17.3        0.0        0.0        0.0       0.00      131.0       0.04       3.09       29.0
18:54             199        0.0         39       27.6      255.0       27.6       27.2       12.4     1013.8       34.1       17.3        0.0        0.0        0.0       0.00      131.4       0.04       3.09       29.0
18:56             199        0.0         39       27.4      255.0       27.4       27.1       12.3     1013.7       34.1       17.3        0.0        0.0        0.0       0.00      131.7       0.04       3.09       29.0
18:58             200        0.0         39       27.4      255.0       27.4       27.1       12.2     1013.8       34.1       17.3        0.0        0.0        0.0       0.00      132.1       0.04       3.09       29.0
19:00             199        0.0         40       27.3      255.0       27.3       27.1       12.6     1013.8       34.1       17.3        0.0        0.0        0.0       0.00      132.4       0.04       3.09       29.0
19:02             199        0.0         40       27.3      255.0       27.3       27.1       12.5     1013.9       34.1       17.3        0.0        0.0        0.0       0.00      132.8       0.04       3.15       29.0
19:04             200        0.0         40       27.2      255.0       27.2       27.0       12.5     1013.9       34.1       17.3        0.0        0.0        0.0       0.00      133.2       0.04       3.15       29.0
19:06             200        0.0         40       27.1      255.0       27.1       26.9       12.4     1013.9       34.1       17.3        0.0        0.0        0.0       0.00      133.6       0.04       3.15       29.0
19:08             200        0.0         40       27.1      255.0       27.1       26.9       12.3     1013.9       34.1       17.3        0.0        0.0        0.0       0.00      133.9       0.04       3.15       29.0
19:10             200        0.0         41       27.0      255.0       27.0       26.9       12.6     1013.9       34.1       17.3        0.0        0.0        0.0       0.00      134.3       0.04       3.15       29.0
19:12             200        0.0         41       26.9      255.0       26.9       26.9       12.6     1014.0       34.1       17.3        0.0        0.0        0.0       0.00      134.7       0.04       3.15       29.0
19:14             202        0.0         41       26.8      255.0       26.8       26.8       12.5     1013.9       34.1       17.3        0.0        0.0        0.0       0.00      135.1       0.04       3.15       29.0
19:16             202        0.0         42       26.8      255.0       26.8       26.8       12.8     1014.0       34.1       17.3        0.0        0.0        0.0       0.00      135.6       0.04       3.20       29.0
19:18             204        0.0         42       26.7      255.0       26.7       26.7       12.7     1014.1       34.1       17.3        0.0        0.0        0.0       0.00      136.0       0.04       3.20       29.0
19:20             204        0.0         42       26.6      255.0       26.6       26.7       12.7     1014.1       34.1       17.3        0.0        0.0        0.0       0.00      136.5       0.04       3.20       29.0
19:22             205        0.0         42       26.6      255.0       26.6       26.6       12.6     1014.1       34.1       17.3        0.0        0.0        0.0       0.00      136.9       0.04       3.20       29.0
19:24             204        0.0         43       26.4      255.0       26.4       26.5       12.9     1014.1       34.1       17.3        0.0        0.0        0.0       0.00      137.3       0.04       3.20       29.0
19:25             204        0.0         43       26.4      255.0       26.4       26.5       12.8     1014.2       34.1       17.3        0.0        0.0        0.0       0.00      137.7       0.04       3.20       29.0
19:28             205        0.0         43       26.3      255.0       26.3       26.4       12.8     1014.2       34.1       17.3        0.0        0.0        0.0       0.00      138.1       0.04       3.20       29.0
19:30             205        0.0         43       26.3      255.0       26.3       26.4       12.7     1014.2       34.1       17.3        0.0        0.0        0.0       0.00      138.5       0.04       3.20       29.0
19:31             204        0.0         44       26.2      255.0       26.2       26.4       13.0     1014.2       34.1       17.3        0.0        0.0        0.0       0.00      139.0       0.04       3.24       29.0
19:34             205        0.0         44       26.2      255.0       26.2       26.3       13.0     1014.3       34.1       17.3        0.0        0.0        0.0       0.00      139.4       0.04       3.24       29.0
19:36             205        0.0         44       26.1      255.0       26.1       26.3       12.9     1014.3       34.1       17.3        0.0        0.0        0.0       0.00      139.9       0.04       3.24       29.0
19:37             205        0.0         44       26.1      255.0       26.1       26.2       12.9     1014.2       34.1       17.3        0.0        0.0        0.0       0.00      140.3       0.04       3.24       29.0
19:40             205        0.0         45       26.0      255.0       26.0       26.2       13.2     1014.3       34.1       17.3        0.0        0.0        0.0       0.00      140.7       0.04       3.24       29.0
19:42             205        0.0         45       25.9      255.0       25.9       26.1       13.1     1014.3       34.1       17.3        0.0        0.0        0.0       0.00      141.2       0.04       3.24       29.0
19:44             206        0.0         45       25.9      255.0       25.9       26.1       13.1     1014.4       34.1       17.3        0.0        0.0        0.0       0.00      141.6       0.04       3.24       29.0
19:45             206        0.0         45       25.9      255.0       25.9       26.1       13.1     1014.4       34.1       17.3        0.0        0.0        0.0       0.00      142.0       0.04       3.28       29.0
19:48             206        0.0         45       25.8      255.0       25.8       26.0       13.0     1014.3       34.1       17.3        0.0        0.0        0.0       0.00      142.4       0.04       3.28       29.0
19:49             206        0.0         46       25.8      255.0       25.8       26.1       13.3     1014.3       34.1       17.3        0.0        0.0        0.0       0.00      142.8       0.04       3.28       29.0
19:51             208        0.0         46       25.8      255.0       25.8       26.1       13.3     1014.4       34.1       17.3        0.0        0.0        0.0       0.00      143.3       0.04       3.28       29.0
19:54             209        0.0         46       25.8      255.0       25.8       26.1       13.3     1014.4       34.1       17.3        0.0        0.0        0.0       0.00      143.7       0.04       3.28       29.0
19:56             209        0.0         46       25.8      255.0       25.8       26.1       13.3     1014.4       34.1       17.3        0.0        0.0        0.0       0.00      144.2       0.04       3.28       29.0
19:58             211        0.0         46       25.8      255.0       25.8       26.1       13.3     1014.4       34.1       17.3        0.0        0.0        0.0       0.00      144.6       0.04       3.28       29.0
20:00             211        0.0         46       25.8      255.0       25.8       26.0       13.3     1014.4       34.1       17.3        0.0        0.0        0.0       0.00      145.0       0.04       3.28       29.0
20:02             212        0.0         46       25.8      255.0       25.8       26.1       13.3     1014.4       34.1       17.3        0.0        0.0        0.0       0.00      145.5       0.04       3.32       29.0
20:04             213        0.0         47       25.8      255.0       25.8       26.1       13.6     1014.5       34.1       17.3        0.0        0.0        0.0       0.00      146.0       0.04       3.32       29.0
20:06             220        0.0         47       25.8      255.0       25.8       26.1       13.7     1014.5       34.1       17.3        0.0        0.0        0.0       0.00      146.6       0.04       3.32       29.0
20:08             221        0.0         47       25.8      255.0       25.8       26.1       13.6     1014.5       34.1       17.3        0.0        0.0        0.0       0.00      147.1       0.04       3.32       29.0
20:09             225        0.0         47       25.8      255.0       25.8       26.1       13.6     1014.5       34.1       17.3        0.0        0.0        0.0       0.00      147.7       0.04       3.32       29.0
20:12             225        0.0         47       25.8      255.0       25.8       26.1       13.6     1014.4       34.1       17.3        0.0        0.0        0.0       0.00      148.1       0.04       3.32       29.0
20:14             227        0.0         47       25.7      255.0       25.7       26.0       13.6     1014.6       34.1       17.3        0.0        0.0        0.0       0.00      148.6       0.04       3.32       29.0
20:16             227        0.0         47       25.7      255.0       25.7       26.0       13.6     1014.5       34.1       17.3        0.0        0.0        0.0       0.00      149.0       0.04       3.36       29.0
20:17             227        0.0         47       25.7      255.0       25.7       26.0       13.6     1014.6       34.1       17.3        0.0        0.0        0.0       0.00      149.5       0.04       3.36       29.0
20:20             228        0.0         47       25.7      255.0       25.7       26.0       13.6     1014.6       34.1       17.3        0.0        0.0        0.0       0.00      149.9       0.04       3.36       29.0
20:22             228        0.0         48       25.7      255.0       25.7       26.0       13.8     1014.6       34.1       17.3        0.0        0.0        0.0       0.00      150.2       0.04       3.36       29.0
20:24             228        0.0         48       25.7      255.0       25.7       26.1       13.9     1014.6       34.1       17.3        0.0        0.0        0.0       0.00      150.7       0.04       3.36       29.0
20:26             229        0.0         48       25.7      255.0       25.7       26.0       13.8     1014.7       34.1       17.3        0.0        0.0        0.0       0.00      151.2       0.04       3.36       29.0
20:28             230        0.0         48       25.7      255.0       25.7       26.0       13.8     1014.7       34.1       17.3        0.0        0.0        0.0       0.00      151.7       0.04       3.36       29.0
20:30             230        0.0         48       25.7      255.0       25.7       26.0       13.8     1014.7       34.1       17.3        0.0        0.0        0.0       0.00      152.2       0.04       3.36       29.0
20:32             230        0.0         48       25.7      255.0       25.7       26.0       13.8     1014.7       34.1       17.3        0.0        0.0        0.0       0.00      152.5       0.04       3.40       29.0
20:34             231        0.0         48       25.6      255.0       25.6       26.0       13.8     1014.8       34.1       17.3        0.0        0.0        0.0       0.00      152.9       0.04       3.40       29.0
20:36             232        0.0         48       25.6      255.0       25.6       26.0       13.8     1014.8       34.1       17.3        0.0        0.0        0.0       0.00      153.4       0.04       3.40       29.0
20:38             232        0.0         49       25.6      255.0       25.6       25.9       14.1     1014.8       34.1       17.3        0.0        0.0        0.0       0.00      153.9       0.04       3.40       29.0
20:40             232        0.0         49       25.6      255.0       25.6       25.9       14.1     1014.7       34.1       17.3        0.0        0.0        0.0       0.00      154.1       0.04       3.40       29.0
20:42             232        0.0         49       25.6      255.0       25.6       25.9       14.1     1014.8       34.1       17.3        0.0        0.0        0.0       0.00      154.4       0.04       3.40       29.0
20:44             232        0.0         49       25.5      255.0       25.5       25.9       14.0     1014.8       34.1       17.3        0.0        0.0        0.0       0.00      154.7       0.04       3.40       29.0
20:45             232        0.0         48       25.5      255.0       25.5       25.8       13.7     1014.8       34.1       17.3        0.0        0.0        0.0       0.00      155.0       0.04       3.43       29.0
20:48             233        0.0         48       25.5      255.0       25.5       25.8       13.7     1014.8       34.1       17.3        0.0        0.0        0.0       0.00      155.4       0.04       3.43       29.0
20:50             234        0.0         47       25.6      255.0       25.6       25.8       13.4     1014.8       34.1       17.3        0.0        0.0        0.0       0.00      155.9       0.04       3.43       29.0
20:52             234        0.0         47       25.6      255.0       25.6       25.9       13.5     1014.8       34.1       17.3        0.0        0.0        0.0       0.00      156.2       0.04       3.43       29.0
20:54             234        0.0         46       25.7      255.0       25.7       25.9       13.2     1014.8       34.1       17.3        0.0        0.0        0.0       0.00      156.6       0.04       3.43       29.0
20:56             234        0.0         46       25.8      255.0       25.8       26.0       13.3     1014.8       34.1       17.3        0.0        0.0        0.0       0.00      156.9       0.04       3.43       29.0
20:57             234        0.0         46       25.8      255.0       25.8       26.1       13.3     1014.8       34.1       17.3        0.0        0.0        0.0       0.00      157.3       0.04       3.43       29.0
21:00             234        0.0         46       25.8      255.0       25.8       26.1       13.3     1014.8       34.1       17.3        0.0        0.0        0.0       0.00      157.5       0.04       3.43       29.0
21:02             234        0.0         46       25.8      255.0       25.8       26.1       13.3     1014.9       34.1       17.3        0.0        0.0        0.0       0.00      157.7       0.04       3.47       29.0
21:04             234        0.0         46       25.8      255.0       25.8       26.1       13.3     1014.9       34.1       17.3        0.0        0.0        0.0       0.00      158.0       0.04       3.47       29.0
21:05             234        0.0         46       25.8      255.0       25.8       26.0       13.3     1014.8       34.1       17.3        0.0        0.0        0.0       0.00      158.1       0.04       3.47       29.0
21:08             234        0.0         45       25.8      255.0       25.8       26.0       13.0     1014.8       34.1       17.3        0.0        0.0        0.0       0.00      158.4       0.04       3.47       29.0
21:10             234        0.0         45       25.7      255.0       25.7       25.9       12.9     1014.9       34.1       17.3        0.0        0.0        0.0       0.00      158.6       0.04       3.47       29.0
21:12             234        0.0         45       25.7      255.0       25.7       25.9       12.9     1014.9       34.1       17.3        0.0        0.0        0.0       0.00      159.0       0.04       3.47       29.0
21:14             234        0.0         45       25.7      255.0       25.7       25.9       12.9     1014.8       34.1       17.3        0.0        0.0        0.0       0.00      159.2       0.04       3.47       29.0
21:15             234        0.0         45       25.7      255.0       25.7       25.9       12.9     1014.9       34.1       17.3        0.0        0.0        0.0       0.00      159.5       0.04       3.51       29.0
21:17             234        0.0         45       25.7      255.0       25.7       25.9       12.9     1014.9       34.1       17.3        0.0        0.0        0.0       0.00      159.9       0.04       3.51       29.0
21:20             234        0.0         45       25.7      255.0       25.7       25.9       12.9     1014.9       34.1       17.3        0.0        0.0        0.0       0.00      160.2       0.04       3.51       29.0
21:21             234        0.0         45       25.7      255.0       25.7       25.9       12.9     1015.0       34.1       17.3        0.0        0.0        0.0       0.00      160.5       0.04       3.51       29.0
21:23             235        0.0         45       25.7      255.0       25.7       25.9       12.9     1015.0       34.1       17.3        0.0        0.0        0.0       0.00      161.0       0.04       3.51       29.0
21:26             235        0.0         45       25.7      255.0       25.7       25.9       12.9     1015.0       34.1       17.3        0.0        0.0        0.0       0.00      161.4       0.04       3.51       29.0
21:28             236        0.0         45       25.7      255.0       25.7       25.9       12.9     1014.9       34.1       17.3        0.0        0.0        0.0       0.00      161.7       0.04       3.51       29.0
21:30             235        0.0         45       25.8      255.0       25.8       26.0       13.0     1015.0       34.1       17.3        0.0        0.0        0.0       0.00      162.0       0.04       3.51       29.0
21:32             235        0.0         44       25.8      255.0       25.8       25.9       12.6     1014.9       34.1       17.3        0.0        0.0        0.0       0.00      162.4       0.04       3.55       29.0
21:34             235        0.0         44       25.8      255.0       25.8       25.9       12.6     1015.0       34.1       17.3        0.0        0.0        0.0       0.00      162.8       0.04       3.55       29.0
21:35             236        0.0         44       25.8      255.0       25.8       25.9       12.6     1015.0       34.1       17.3        0.0        0.0        0.0       0.00      163.1       0.04       3.55       29.0
21:37             238        0.0         44       25.8      255.0       25.8       25.9       12.6     1015.0       34.1       17.3        0.0        0.0        0.0       0.00      163.6       0.04       3.55       29.0
21:40             238        0.0         44       25.8      255.0       25.8       26.0       12.7     1015.0       34.1       17.3        0.0        0.0        0.0       0.00      164.0       0.04       3.55       29.0
21:42             239        0.0         44       25.8      255.0       25.8       26.0       12.7     1015.0       34.1       17.3        0.0        0.0        0.0       0.00      164.4       0.04       3.55       29.0
21:44             240        0.0         43       25.9      255.0       25.9       26.0       12.4     1015.0       34.1       17.3        0.0        0.0        0.0       0.00      164.8       0.04       3.55       29.0
21:46             240        0.0         43       25.9      255.0       25.9       26.0       12.4     1015.0       34.1       17.3        0.0        0.0        0.0       0.00      165.0       0.04       3.59       29.0
21:47             240        0.0         43       25.9      255.0       25.9       26.0       12.4     1015.0       34.1       17.3        0.0        0.0        0.0       0.00      165.2       0.04       3.59       29.0
21:50             240        0.0         43       25.9      255.0       25.9       26.0       12.4     1015.1       34.1       17.3        0.0        0.0        0.0       0.00      165.5       0.04       3.59       29.0
21:52             240        0.0         44       25.9      255.0       25.9       26.0       12.7     1015.1       34.1       17.3        0.0        0.0        0.0       0.00      165.7       0.04       3.59       29.0
21:53             240        0.0         44       25.9      255.0       25.9       26.0       12.7     1015.2       34.1       17.3        0.0        0.0        0.0       0.00      165.9       0.04       3.59       29.0
21:56             240        0.0         44       25.8      255.0       25.8       26.0       12.7     1015.2       34.1       17.3        0.0        0.0        0.0       0.00      166.0       0.04       3.59       29.0
21:58             240        0.0         45       25.8      255.0       25.8       26.0       13.0     1015.1       34.1       17.3        0.0        0.0        0.0       0.00      166.5       0.04       3.59       29.0
22:00             239        0.0         44       25.7      255.0       25.7       25.9       12.6     1015.3       34.1       17.3        0.0        0.0        0.0       0.00      167.0       0.04       3.59       29.0
22:01             229        0.0         47       25.7      255.0       25.7       26.0       13.5     1015.2       34.1       17.3        0.0        0.0        0.0       0.00      167.4       0.04       3.63       29.0
22:04             229        0.0         49       25.6      255.0       25.6       25.9       14.1     1015.3       34.1       17.3        0.0        0.0        0.0       0.00      167.7       0.04       3.63       29.0
22:05             229        0.0         49       25.4      255.0       25.4       25.8       14.0     1015.4       34.1       17.3        0.0        0.0        0.0       0.00      167.8       0.04       3.63       29.0
22:07             229        0.0         49       25.3      255.0       25.3       25.7       13.9     1015.5       34.1       17.3        0.0        0.0        0.0       0.00      167.9       0.04       3.63       29.0
22:10             229        0.0         51       25.2      255.0       25.2       25.7       14.4     1015.4       34.1       17.3        0.0        0.0        0.0       0.00      168.2       0.04       3.63       29.0
22:12             229        0.0         52       25.1      255.0       25.1       25.7       14.6     1015.5       34.1       17.3        0.0        0.0        0.0       0.00      168.3       0.04       3.63       29.0
22:13             229        0.0         53       24.9      255.0       24.9       25.6       14.7     1015.5       34.1       17.3        0.0        0.0        0.0       0.00      168.5       0.04       3.63       29.0
22:16             228        0.0         54       24.9      255.0       24.9       25.5       15.0     1015.6       34.1       17.3        0.0        0.0        0.0       0.00      168.6       0.04       3.66       29.0
22:18             228        0.0         56       24.8      255.0       24.8       25.6       15.4     1015.6       34.1       17.3        0.0        0.0        0.0       0.00      168.7       0.04       3.66       29.0
22:19             229        0.0         57       24.6      255.0       24.6       25.4       15.5     1015.6       34.1       17.3        0.0        0.0        0.0       0.00      168.8       0.04       3.66       29.0
22:22             229        0.0         58       24.5      255.0       24.5       25.4       15.7     1015.5       34.1       17.3        0.0        0.0        0.0       0.00      168.9       0.04       3.66       29.0
22:24             229        0.0         59       24.4      255.0       24.4       25.3       15.9     1015.6       34.1       17.3        0.0        0.0        0.0       0.00      169.1       0.04       3.66       29.0
22:26             229        0.0         59       24.3      255.0       24.3       25.2       15.8     1015.6       34.1       17.3        0.0        0.0        0.0       0.00      169.2       0.04       3.66       29.0
22:28             229        0.0         59       24.2      255.0       24.2       25.2       15.7     1015.6       34.1       17.3        0.0        0.0        0.0       0.00      169.4       0.04       3.66       29.0
22:29             229        0.0         59       24.2      255.0       24.2       25.2       15.7     1015.7       34.1       17.3        0.0        0.0        0.0       0.00      169.5       0.04       3.66       29.0
22:31             229        0.0         59       23.9      255.0       23.9       24.8       15.4     1015.7       34.1       17.3        0.0        0.0        0.0       0.00      169.8       0.04       3.68       29.0
22:33             229        0.0         59       23.7      255.0       23.7       24.6       15.2     1015.7       34.1       17.3        0.0        0.0        0.0       0.00      170.1       0.04       3.68       29.0
22:36             229        0.0         65       23.5      255.0       23.5       24.8       16.5     1015.7       34.1       17.3        0.0        0.0        0.0       0.00      170.3       0.04       3.68       29.0
22:38             229        0.0         66       23.3      255.0       23.3       24.7       16.6     1015.7       34.1       17.3        0.0        0.0        0.0       0.00      170.4       0.04       3.68       29.0
22:40             229        0.0         66       23.2      255.0       23.2       24.5       16.5     1015.7       34.1       17.3        0.0        0.0        0.0       0.00      170.7       0.04       3.68       29.0
22:42             229        0.0         67       22.9      255.0       22.9       24.4       16.5     1015.7       34.1       17.3        0.0        0.0        0.0       0.00      171.0       0.04       3.68       29.0
22:43             229        0.0         68       22.8      255.0       22.8       24.3       16.6     1015.7       34.1       17.3        0.0        0.0        0.0       0.00      171.4       0.04       3.68       29.0
22:45             228        0.0         68       22.6      255.0       22.6       24.1       16.4     1015.6       34.1       17.3        0.0        0.0        0.0       0.00      171.8       0.04       3.69       29.0
22:48             229        0.0         69       22.4      255.0       22.4       24.0       16.4     1015.7       34.1       17.3        0.0        0.0        0.0       0.00      172.1       0.04       3.69       29.0
22:50             229        0.0         69       22.3      255.0       22.3       23.9       16.3     1015.7       34.1       17.3        0.0        0.0        0.0       0.00      172.4       0.04       3.69       29.0
22:51             229        0.0         70       22.1      255.0       22.1       23.8       16.4     1015.7       34.1       17.3        0.0        0.0        0.0       0.00      172.7       0.04       3.69       29.0
22:54             229        0.0         71       22.0      255.0       22.0       23.7       16.5     1015.7       34.1       17.3        0.0        0.0        0.0       0.00      172.9       0.04       3.69       29.0
22:56             229        0.0         71       21.9      255.0       21.9       23.6       16.4     1015.7       34.1       17.3        0.0        0.0        0.0       0.00      173.2       0.04       3.69       29.0
22:58             228        0.0         71       21.8      255.0       21.8       23.5       16.3     1015.7       34.1       17.3        0.0        0.0        0.0       0.00      173.4       0.04       3.69       29.0
23:00             229        0.0         71       21.7      255.0       21.7       23.4       16.2     1015.8       34.1       17.3        0.0        0.0        0.0       0.00      173.7       0.04       3.69       29.0
23:02             229        0.0         71       21.6      255.0       21.6       23.3       16.1     1015.7       34.1       17.3        0.0        0.0        0.0       0.00      173.9       0.04       3.69       29.0
23:03             229        0.0         72       21.4      255.0       21.4       23.2       16.2     1015.7       34.1       17.3        0.0        0.0        0.0       0.00      174.2       0.04       3.69       29.0
23:06             229        0.0         72       21.4      255.0       21.4       23.2       16.1     1015.7       34.1       17.3        0.0        0.0        0.0       0.00      174.6       0.04       3.69       29.0
23:08             229        0.0         72       21.3      255.0       21.3       23.1       16.1     1015.7       34.1       17.3        0.0        0.0        0.0       0.00      174.9       0.04       3.69       29.0
23:10             229        0.0         72       21.2      255.0       21.2       23.0       16.0     1015.7       34.1       17.3        0.0        0.0        0.0       0.00      175.0       0.04       3.69       29.0
23:12             229        0.0         73       21.2      255.0       21.2       23.0       16.1     1015.6       34.1       17.3        0.0        0.0        0.0       0.00      175.4       0.04       3.69       29.0
23:14             229        0.0         73       21.1      255.0       21.1       22.9       16.0     1015.7       34.1       17.3        0.0        0.0        0.0       0.00      175.7       0.04       3.69       29.0
23:16             229        0.0         73       21.0      255.0       21.0       22.8       16.0     1015.7       34.1       17.3        0.0        0.0        0.0       0.00      175.8       0.04       3.69       29.0
23:18             229        0.0         74       21.0      255.0       21.0       22.9       16.2     1015.7       34.1       17.3        0.0        0.0        0.0       0.00      176.0       0.04       3.69       29.0
23:20             229        0.0         74       20.9      255.0       20.9       22.9       16.1     1015.7       34.1       17.3        0.0        0.0        0.0       0.00      176.2       0.04       3.69       29.0
23:22             229        0.0         74       20.9      255.0       20.9       22.8       16.1     1015.6       34.1       17.3        0.0        0.0        0.0       0.00      176.4       0.04       3.69       29.0
23:24             229        0.0         74       20.8      255.0       20.8       22.7       16.0     1015.6       34.1       17.3        0.0        0.0        0.0       0.00      176.7       0.04       3.69       29.0
23:26             228        0.0         74       20.8      255.0       20.8       22.7       16.0     1015.6       34.1       17.3        0.0        0.0        0.0       0.00      176.9       0.04       3.69       29.0
23:28             229        0.0         74       20.8      255.0       20.8       22.7       16.0     1015.6       34.1       17.3        0.0        0.0        0.0       0.00      177.0       0.04       3.69       29.0
23:30             229        0.0         75       20.8      255.0       20.8       22.8       16.2     1015.6       34.1       17.3        0.0        0.0        0.0       0.00      177.2       0.04       3.69       29.0
23:32             228        0.0         75       20.7      255.0       20.7       22.7       16.1     1015.7       34.1       17.3        0.0        0.0        0.0       0.00      177.2       0.04       3.69       29.0
23:34             229        0.0         75       20.7      255.0       20.7       22.7       16.1     1015.5       34.1       17.3        0.0        0.0        0.0       0.00      177.4       0.04       3.69       29.0
23:36             229        0.0         75       20.6      255.0       20.6       22.6       16.0     1015.6       34.1       17.3        0.0        0.0        0.0       0.00      177.6       0.04       3.69       29.0
23:38             229        0.0         75       20.6      255.0       20.6       22.5       16.0     1015.6       34.1       17.3        0.0        0.0        0.0       0.00      177.7       0.04       3.69       29.0
23:40             229        0.0         75       20.6      255.0       20.6       22.5       16.0     1015.6       34.1       17.3        0.0        0.0        0.0       0.00      177.8       0.04       3.69       29.0
23:41             229        0.0         75       20.5      255.0       20.5       22.5       15.9     1015.6       34.1       17.3        0.0        0.0        0.0       0.00      177.9       0.04       3.69       29.0
23:44             229        0.0         75       20.5      255.0       20.5       22.5       15.9     1015.6       34.1       17.3        0.0        0.0        0.0       0.00      178.1       0.04       3.69       29.0
23:46             229        0.0         76       20.5      255.0       20.5       22.6       16.1     1015.6       34.1       17.3        0.0        0.0        0.0       0.00      178.3       0.04       3.69       29.0
23:48             229        0.0         76       20.4      255.0       20.4       22.5       16.1     1015.6       34.1       17.3        0.0        0.0        0.0       0.00      178.3       0.04       3.69       29.0
23:50             229        0.0         76       20.4      255.0       20.4       22.5       16.1     1015.5       34.1       17.3        0.0        0.0        0.0       0.00      178.4       0.04       3.69       29.0
23:52             229        0.0         76       20.4      255.0       20.4       22.4       16.0     1015.6       34.1       17.3        0.0        0.0        0.0       0.00      178.5       0.04       3.69       29.0
23:53             229        0.0         76       20.4      255.0       20.4       22.4       16.0     1015.6       34.1       17.3        0.0        0.0        0.0       0.00      178.6       0.04       3.69       29.0
23:56             229        0.0         76       20.4      255.0       20.4       22.4       16.0     1015.6       34.1       17.3        0.0        0.0        0.0       0.00      178.8       0.04       3.69       29.0
23:58             229        0.0         76       20.3      255.0       20.3       22.4       16.0     1015.6       34.1       17.3        0.0        0.0        0.0       0.00      178.9       0.04       3.69       29.0